[[{"header":{"parameterUnit":"m.s-1","parameterCategory":1,"la1":30.6,"la2":28.766,"lo1":-90.7593,"lo2":-88.6598,"dy":0.0162,"dx":0.0183,"nx":116,"ny":114,"refTime":"2024-05-29T12:00:00:Z","depth":0,"parameterNumber":2,"parameterNumberName":"U-component_of_WINDS"},"data":[0.0,0.0,0.0,0.0,0.0,0.0,0.0,0.0,0.0,0.0,0.0,0.0,0.0,0.0,0.0,0.0,0.0,0.0,0.0,0.0,0.0,0.0,0.0,0.0,0.0,0.0,0.0,0.0,0.0,0.0,0.0,0.0,0.0,0.0,0.0,0.0,0.0,0.0,0.0,0.0,0.0,0.0,0.0,0.0,0.0,0.0,0.0,0.0,0.0,0.0,0.0,0.0,0.0,0.0,0.0,0.0,0.0,0.0,0.0,0.0,0.0,0.0,0.0,0.0,0.0,0.0,0.0,0.0,0.0,0.0,0.0,0.0,0.0,0.0,0.0,0.0,0.0,0.0,0.0,0.0,0.0,0.0,0.0,0.0,0.0,0.0,0.0,0.0,0.0,0.0,0.0,0.0,0.0,0.0,0.0,0.0,0.0,0.0,0.0,0.0,0.0,0.0,0.0,0.0,0.0,0.0,0.0,0.0,0.0,0.0,0.0,0.0,0.0,0.0,0.0,0.0,0.0,0.0,0.0,0.0,0.0,0.0,0.0,0.0,0.0,0.0,0.0,0.0,0.0,0.0,0.0,0.0,0.0,0.0,0.0,0.0,0.0,0.0,0.0,0.0,0.0,0.0,0.0,0.0,0.0,0.0,0.0,0.0,0.0,0.0,0.0,0.0,0.0,0.0,0.0,0.0,0.0,0.0,0.0,0.0,0.0,0.0,0.0,0.0,0.0,0.0,0.0,0.0,0.0,0.0,0.0,0.0,0.0,0.0,0.0,0.0,0.0,0.0,0.0,0.0,0.0,0.0,0.0,0.0,0.0,0.0,0.0,0.0,0.0,0.0,0.0,0.0,0.0,0.0,0.0,0.0,0.0,0.0,0.0,0.0,0.0,0.0,0.0,0.0,0.0,0.0,0.0,0.0,0.0,0.0,0.0,0.0,0.0,0.0,0.0,0.0,0.0,0.0,0.0,0.0,0.0,0.0,0.0,0.0,0.0,0.0,0.0,0.0,0.0,0.0,0.0,0.0,0.0,0.0,0.0,0.0,0.0,0.0,0.0,0.0,0.0,0.0,0.0,0.0,0.0,0.0,0.0,0.0,0.0,0.0,0.0,0.0,0.0,0.0,0.0,0.0,0.0,0.0,0.0,0.0,0.0,0.0,0.0,0.0,0.0,0.0,0.0,0.0,0.0,0.0,0.0,0.0,0.0,0.0,0.0,0.0,0.0,0.0,0.0,0.0,0.0,0.0,0.0,0.0,0.0,0.0,0.0,0.0,0.0,0.0,0.0,0.0,0.0,0.0,0.0,0.0,0.0,0.0,0.0,0.0,0.0,0.0,0.0,0.0,0.0,0.0,0.0,0.0,0.0,0.0,0.0,0.0,0.0,0.0,0.0,0.0,0.0,0.0,0.0,0.0,0.0,0.0,0.0,0.0,0.0,0.0,0.0,0.0,0.0,0.0,0.0,0.0,0.0,0.0,0.0,0.0,0.0,0.0,0.0,0.0,0.0,0.0,0.0,0.0,0.0,0.0,0.0,0.0,0.0,0.0,0.0,0.0,0.0,0.0,0.0,0.0,0.0,0.0,0.0,0.0,0.0,0.0,0.0,0.0,0.0,0.0,0.0,0.0,0.0,0.0,0.0,0.0,0.0,0.0,0.0,0.0,0.0,0.0,0.0,0.0,0.0,0.0,0.0,0.0,0.0,0.0,0.0,0.0,0.0,0.0,0.0,0.0,0.0,0.0,0.0,0.0,0.0,0.0,0.0,0.0,0.0,0.0,0.0,0.0,0.0,0.0,0.0,0.0,0.0,0.0,0.0,0.0,0.0,0.0,0.0,0.0,0.0,0.0,0.0,0.0,0.0,0.0,0.0,0.0,0.0,0.0,0.0,0.0,0.0,0.0,0.0,0.0,0.0,0.0,0.0,0.0,0.0,0.0,0.0,0.0,0.0,0.0,0.0,0.0,0.0,0.0,0.0,0.0,0.0,0.0,0.0,0.0,0.0,0.0,0.0,0.0,0.0,0.0,0.0,0.0,0.0,0.0,0.0,0.0,0.0,0.0,0.0,0.0,0.0,0.0,0.0,0.0,0.0,0.0,0.0,0.0,0.0,0.0,0.0,0.0,0.0,0.0,0.0,0.0,0.0,0.0,0.0,0.0,0.0,0.0,0.0,0.0,0.0,0.0,0.0,0.0,0.0,0.0,0.0,0.0,0.0,0.0,0.0,0.0,0.0,0.0,0.0,0.0,0.0,0.0,0.0,0.0,0.0,0.0,0.0,0.0,0.0,0.0,0.0,0.0,0.0,0.0,0.0,0.0,0.0,0.0,0.0,0.0,0.0,0.0,0.0,0.0,0.0,0.0,0.0,0.0,0.0,0.0,0.0,0.0,0.0,0.0,0.0,0.0,0.0,0.0,0.0,0.0,0.0,0.0,0.0,0.0,0.0,0.0,0.0,0.0,0.0,0.0,0.0,0.0,0.0,0.0,0.0,0.0,0.0,0.0,0.0,0.0,0.0,0.0,0.0,0.0,0.0,0.0,0.0,0.0,0.0,0.0,0.0,0.0,0.0,0.0,0.0,0.0,0.0,0.0,0.0,0.0,0.0,0.0,0.0,0.0,0.0,0.0,0.0,0.0,0.0,0.0,0.0,0.0,0.0,0.0,0.0,0.0,0.0,0.0,0.0,0.0,0.0,0.0,0.0,0.0,0.0,0.0,0.0,0.0,0.0,0.0,0.0,0.0,0.0,0.0,0.0,0.0,0.0,0.0,0.0,0.0,0.0,0.0,0.0,0.0,0.0,0.0,0.0,0.0,0.0,0.0,0.0,0.0,0.0,0.0,0.0,0.0,0.0,0.0,0.0,0.0,0.0,0.0,0.0,0.0,0.0,0.0,0.0,0.0,0.0,0.0,0.0,0.0,0.0,0.0,0.0,0.0,0.0,0.0,0.0,0.0,0.0,0.0,0.0,0.0,0.0,0.0,0.0,0.0,0.0,0.0,0.0,0.0,0.0,0.0,0.0,0.0,0.0,0.0,0.0,0.0,0.0,0.0,0.0,0.0,0.0,0.0,0.0,0.0,0.0,0.0,0.0,0.0,0.0,0.0,0.0,0.0,0.0,0.0,0.0,0.0,0.0,0.0,0.0,0.0,0.0,0.0,0.0,0.0,0.0,0.0,0.0,0.0,0.0,0.0,0.0,0.0,0.0,0.0,0.0,0.0,0.0,0.0,0.0,0.0,0.0,0.0,0.0,0.0,0.0,0.0,0.0,0.0,0.0,0.0,0.0,0.0,0.0,0.0,0.0,0.0,0.0,0.0,0.0,0.0,0.0,0.0,0.0,0.0,0.0,0.0,0.0,0.0,0.0,0.0,0.0,0.0,0.0,0.0,0.0,0.0,0.0,0.0,0.0,0.0,0.0,0.0,0.0,0.0,0.0,0.0,0.0,0.0,0.0,0.0,0.0,0.0,0.0,0.0,0.0,0.0,0.0,0.0,0.0,0.0,0.0,0.0,0.0,0.0,0.0,0.0,0.0,0.0,0.0,0.0,0.0,0.0,0.0,0.0,0.0,0.0,0.0,0.0,0.0,0.0,0.0,0.0,0.0,0.0,0.0,0.0,0.0,0.0,0.0,0.0,0.0,0.0,0.0,0.0,0.0,0.0,0.0,0.0,0.0,0.0,0.0,0.0,0.0,0.0,0.0,0.0,0.0,0.0,0.0,0.0,0.0,0.0,0.0,0.0,0.0,0.0,0.0,0.0,0.0,0.0,0.0,0.0,0.0,0.0,0.0,0.0,0.0,0.0,0.0,0.0,0.0,0.0,0.0,0.0,0.0,0.0,0.0,0.0,0.0,0.0,0.0,0.0,0.0,0.0,0.0,0.0,0.0,0.0,0.0,0.0,0.0,0.0,0.0,0.0,0.0,0.0,0.0,0.0,0.0,0.0,0.0,0.0,0.0,0.0,0.0,0.0,0.0,0.0,0.0,0.0,0.0,0.0,0.0,0.0,0.0,0.0,0.0,0.0,0.0,0.0,0.0,0.0,0.0,0.0,0.0,0.0,0.0,0.0,0.0,0.0,0.0,0.0,0.0,0.0,0.0,0.0,0.0,0.0,0.0,0.0,0.0,0.0,0.0,0.0,0.0,0.0,0.0,0.0,0.0,0.0,0.0,0.0,0.0,0.0,0.0,0.0,0.0,0.0,0.0,0.0,0.0,0.0,0.0,0.0,0.0,0.0,0.0,0.0,0.0,0.0,0.0,0.0,0.0,0.0,0.0,0.0,0.0,0.0,0.0,0.0,0.0,0.0,0.0,0.0,0.0,0.0,0.0,0.0,0.0,0.0,0.0,0.0,0.0,0.0,0.0,0.0,0.0,0.0,0.0,0.0,0.0,0.0,0.0,0.0,0.0,0.0,0.0,0.0,0.0,0.0,0.0,0.0,0.0,0.0,0.0,0.0,0.0,0.0,0.0,0.0,0.0,0.0,0.0,0.0,0.0,0.0,0.0,0.0,0.0,0.0,0.0,0.0,0.0,0.0,0.0,0.0,0.0,0.0,0.0,0.0,0.0,0.0,0.0,0.0,0.0,0.0,0.0,0.0,0.0,0.0,0.0,0.0,0.0,0.0,0.0,0.0,0.0,0.0,0.0,0.0,0.0,0.0,0.0,0.0,0.0,0.0,0.0,0.0,0.0,0.0,0.0,0.0,0.0,0.0,0.0,0.0,0.0,0.0,0.0,0.0,0.0,0.0,0.0,0.0,0.0,0.0,0.0,0.0,0.0,0.0,0.0,0.0,0.0,0.0,0.0,0.0,0.0,0.0,0.0,0.0,0.0,0.0,0.0,0.0,0.0,0.0,0.0,0.0,0.0,0.0,0.0,0.0,0.0,0.0,0.0,0.0,0.0,0.0,0.0,0.0,0.0,0.0,0.0,0.0,0.0,0.0,0.0,0.0,0.0,0.0,0.0,0.0,0.0,0.0,0.0,0.0,0.0,0.0,0.0,0.0,0.0,0.0,0.0,0.0,0.0,0.0,0.0,0.0,0.0,0.0,0.0,0.0,0.0,0.0,0.0,0.0,0.0,0.0,0.0,0.0,0.0,0.0,0.0,0.0,0.0,0.0,0.0,0.0,0.0,0.0,0.0,0.0,0.0,0.0,0.0,0.0,0.0,0.0,0.0,0.0,0.0,0.0,0.0,0.0,0.0,0.0,0.0,0.0,0.0,0.0,0.0,0.0,0.0,0.0,0.0,0.0,0.0,0.0,0.0,0.0,0.0,0.0,0.0,0.0,0.0,0.0,0.0,0.0,0.0,0.0,0.0,0.0,0.0,0.0,0.0,0.0,0.0,0.0,0.0,0.0,0.0,0.0,0.0,0.0,0.0,0.0,0.0,0.0,0.0,0.0,0.0,0.0,0.0,0.0,0.0,0.0,0.0,0.0,0.0,0.0,0.0,0.0,0.0,0.0,0.0,0.0,0.0,0.0,0.0,0.0,0.0,0.0,0.0,0.0,0.0,0.0,0.0,0.0,0.0,0.0,0.0,0.0,0.0,0.0,0.0,0.0,0.0,0.0,0.0,0.0,0.0,0.0,0.0,0.0,0.0,0.0,0.0,0.0,0.0,0.0,0.0,0.0,0.0,0.0,0.0,0.0,0.0,0.0,0.0,0.0,0.0,0.0,0.0,0.0,0.0,0.0,0.0,0.0,0.0,0.0,0.0,0.0,0.0,0.0,0.0,0.0,0.0,0.0,0.0,0.0,0.0,0.0,0.0,0.0,0.0,0.0,0.0,0.0,0.0,0.0,0.0,0.0,0.0,0.0,0.0,0.0,0.0,0.0,0.0,0.0,0.0,0.0,0.0,0.0,0.0,0.0,0.0,0.0,0.0,0.0,0.0,0.0,0.0,0.0,0.0,0.0,0.0,0.0,0.0,0.0,0.0,0.0,0.0,0.0,0.0,0.0,0.0,0.0,0.0,0.0,0.0,0.0,0.0,0.0,0.0,0.0,0.0,0.0,0.0,0.0,0.0,0.0,0.0,0.0,0.0,0.0,0.0,0.0,0.0,0.0,0.0,0.0,0.0,0.0,0.0,0.0,0.0,0.0,1.8358,0.0,0.0,0.0,0.0,0.0,0.0,0.0,0.0,0.0,0.0,0.0,0.0,0.0,0.0,0.0,0.0,0.0,0.0,0.0,0.0,0.0,0.0,0.0,0.0,0.0,0.0,0.0,0.0,-0.0043,-0.0142,0.0,0.0,0.0,0.0,0.0,-0.0569,-0.0738,-0.0568,-0.0057,-0.047,-0.0327,0.0331,0.0797,0.1088,0.1242,0.0,0.0,0.0,0.0,0.0,0.0,0.0,0.0,0.0,0.0,0.0,0.0,0.0,0.0,0.0,0.0,0.0,0.0,0.0,0.0,0.0,0.0,0.0,0.0,0.0,0.0,0.0,0.0,0.0,0.0,0.0,0.0,0.0,0.0,0.0,0.0,0.0,0.0,0.0,0.0,0.0,0.0,0.0,0.0,0.0,0.0,0.0,0.0,0.0,0.0,0.0,0.0,0.0,0.0,0.0,0.0,0.0,0.0,0.0,0.0,0.0,0.0,0.0,0.0,0.0,0.0,0.0,0.0,0.0,0.0,0.0,1.929,0.0,0.0,0.0,0.0,0.0,0.0,0.0,0.0,0.0,0.0,0.0,0.0,0.0,0.0,0.0,0.0,0.0,0.0,0.0,0.0,0.0,0.0,0.0,0.0,0.02,0.0695,0.0378,0.0154,0.0149,0.004,0.0,0.0,0.0,-0.0041,-0.0111,-0.027,0.0191,0.1306,0.0795,0.1361,0.2934,0.3733,0.3796,0.3266,0.3721,0.0,0.0,0.0,0.0,0.0,0.0,0.0,0.0,0.0,0.0,0.0,0.0,0.0,0.0,0.0,0.0,0.0,0.0,0.0,0.0,0.0,0.0,0.0,0.0,0.0,0.0,0.0,0.0,0.0,0.0,0.0,0.0,0.0,0.0,0.0,0.0,0.0,0.0,0.0,0.0,0.0,0.0,0.0,0.0,0.0,0.0,0.0,0.0,0.0,0.0,0.0,0.0,0.0,0.0,0.0,0.0,0.0,0.0,0.0,0.0,0.0,0.0,0.0,3.2176,3.0729,2.8958,2.745,2.7122,2.753,2.415,2.2916,2.3186,2.1131,0.0,0.0,0.0,0.0,0.0,0.0,0.0,0.0,0.0,0.0,0.0,0.0,0.0,0.0,0.0,0.0,0.0,0.0,0.0,0.0,0.0,0.0,0.099,0.3441,0.1888,0.0877,0.1102,0.0575,0.0,0.0,-0.0149,-0.0185,-0.0606,-0.0022,0.0613,0.1298,0.3016,0.452,0.5775,0.6458,0.7179,0.7777,0.6793,0.6641,0.7089,0.0,0.0,0.0,0.0,0.0,0.0,0.0,0.0,0.0,0.0,0.0,0.0,0.0,0.0,0.0,0.0,0.0,0.0,0.0,0.0,0.0,0.0,0.0,0.0,0.0,0.0,0.0,0.0,0.0,0.0,0.0,0.0,0.0,0.0,0.0,0.0,0.0,0.0,0.0,0.0,0.0,1.4767,1.8753,0.0,0.0,0.0,0.0,0.0,0.0,0.0,0.0,0.0,0.0,0.0,0.0,0.0,3.703,3.703,3.4107,3.3338,3.4893,3.377,3.283,3.214,3.1197,3.0904,3.1125,3.0387,0.0,2.5051,2.351,0.0,0.0,0.0,0.0,0.0,0.0,0.0,0.0,0.0,0.0,0.0,0.0,0.0,0.0,0.0,0.0,0.0,0.0,0.0,0.0,0.0,0.1845,0.4131,0.669,0.4811,0.3103,0.2207,0.1664,0.0767,-0.057,-0.047,-0.0419,-0.0479,0.0459,0.1933,0.393,0.616,0.7457,0.7827,0.8413,0.9051,0.9643,0.9285,0.9035,0.868,0.7778,0.0,0.0,0.0,0.0,0.0,0.0,0.0,0.0,0.0,0.0,0.0,0.0,0.0,0.0,0.0,0.0,0.0,0.0,0.0,0.0,0.0,0.0,0.0,0.0,0.0,0.0,0.0,0.0,0.0,0.0,0.0,0.0,0.0,0.0,0.0,0.0,0.0,0.0,0.0,1.5842,1.8934,2.2753,2.1188,1.8211,0.0,0.0,0.0,0.0,0.0,0.0,0.0,0.0,0.0,3.0319,3.5381,3.7986,3.7986,3.5586,3.4637,3.5104,3.4847,3.4378,3.3777,3.3159,3.2889,3.2904,3.2511,3.1194,2.9131,2.7144,2.508,2.3174,0.0,0.0,0.0,0.0,2.1042,1.9834,0.0,0.0,0.0,0.0,0.0,0.0,0.0,0.0,0.0,0.0,0.0,0.0,0.1242,0.3704,0.6191,0.8223,0.671,0.494,0.333,0.2642,0.1502,-0.0306,-0.066,-0.0645,-0.0337,0.1524,0.3879,0.6761,0.8941,0.9981,0.9852,1.0219,1.0516,1.0709,1.0966,1.0735,1.0054,0.9235,0.8505,0.0,0.0,0.0,0.0,0.0,0.0,0.0,0.0,0.0,0.0,0.0,0.0,0.0,0.0,0.0,0.0,0.0,0.0,0.0,0.0,0.0,0.0,0.0,0.0,0.0,0.0,0.0,0.0,0.0,0.0,0.0,0.0,0.0,0.0,0.0,0.0,0.0,0.0,1.9295,2.203,2.4737,2.2479,1.9078,0.0,0.0,0.0,0.0,0.0,0.0,2.9323,3.0817,3.211,3.3538,3.641,3.8017,3.8357,3.6179,3.5207,3.5525,3.5608,3.5399,3.4881,3.443,3.405,3.3849,3.3498,3.3036,3.2201,2.992,2.7927,2.6194,2.5723,2.5531,2.549,2.5961,2.4991,2.3654,0.0,0.0,0.0,0.0,0.0,0.0,0.0,0.0,0.0,0.0,0.0,0.4762,0.4578,0.4833,0.5488,0.6617,0.6251,0.5543,0.0,0.0,0.2015,0.0773,-0.0431,-0.0868,-0.0411,0.3398,0.6537,0.8845,1.0775,1.1836,1.2119,1.2138,1.2012,1.1631,1.1467,1.1438,1.1431,1.0885,1.0486,1.0121,0.0,0.0,0.0,0.0,0.0,0.0,0.0,0.0,0.0,0.0,0.0,0.0,0.0,0.0,0.0,0.0,0.0,0.0,0.0,0.0,0.0,0.0,0.0,0.0,0.0,0.0,0.0,0.0,0.0,0.0,0.0,0.0,0.0,0.0,0.0,0.0,0.0,0.0,0.0,2.2633,2.062,0.0,0.0,0.0,0.0,2.6575,2.8421,3.2322,3.9239,3.7337,3.5477,3.4482,3.6344,3.8071,3.9265,3.8054,3.7219,3.6827,3.6005,3.5629,3.5636,3.5189,3.4589,3.3901,3.4308,3.3768,3.2483,3.1014,2.9852,2.8926,2.796,2.8,2.845,2.7928,2.7474,2.6934,0.0,0.0,0.0,0.0,0.0,0.0,0.0,0.0,0.0652,0.2465,0.6012,0.7918,0.6665,0.7225,0.7909,0.8428,0.7988,0.7057,0.5632,0.4712,0.3508,0.1969,0.1584,0.2407,0.4562,0.6868,0.8877,1.0627,1.1844,1.2179,1.176,1.1917,1.182,1.1417,1.1424,1.1476,1.1473,1.0929,1.0692,1.0493,0.9713,0.8881,0.0,0.0,0.0,0.0,0.0,0.0,0.0,0.0,0.0,0.0,0.0,0.0,0.0,0.0,0.0,0.0,0.0,0.0,0.0,0.0,0.0,0.0,0.0,0.0,0.0,0.0,0.0,0.0,0.0,0.0,0.0,0.0,0.0,0.0,0.0,0.0,0.0,2.4703,2.1404,0.0,2.2815,2.4317,2.7085,3.1822,3.3299,3.5281,3.8284,3.7908,3.7345,3.6855,3.7497,3.7509,3.6767,3.5924,3.5618,3.5703,3.5446,3.5067,3.4464,3.4151,3.3715,3.3224,3.3238,3.3163,3.3086,3.2355,3.1692,3.1048,3.0863,3.0703,3.0577,3.0273,2.9588,2.8545,0.0,0.0,0.0,0.0,0.0,0.0308,0.1247,0.1346,0.2214,0.4714,0.7563,0.9164,0.8669,0.9021,0.9279,0.9192,0.8798,0.7846,0.6242,0.5733,0.4817,0.3281,0.3908,0.5683,0.8581,0.9363,1.0324,1.1539,1.2262,1.2263,1.1558,1.1722,1.1592,1.1318,1.1477,1.1428,1.1254,1.0952,1.0916,1.1015,1.0274,0.9657,0.9023,0.0,0.0,0.0,0.0,0.0,0.0,0.0,0.0,0.0,0.0,0.0,0.0,0.0,0.0,0.0,0.0,0.0,0.0,0.0,0.0,0.0,0.0,0.0,0.0,0.0,0.0,0.0,0.0,0.0,0.0,0.0,0.0,0.0,0.0,0.0,2.5057,2.509,2.3171,2.2201,2.309,2.7651,3.1844,3.5076,3.6572,3.7176,3.6703,3.7695,3.8181,3.816,3.8181,3.7174,3.5129,3.4699,3.447,3.4584,3.4623,3.4283,3.3567,3.3221,3.2997,3.2653,3.2395,3.2576,3.2871,3.2542,3.2263,3.2171,3.2345,3.2228,3.1883,3.1709,3.0858,2.9463,0.0,0.0,0.0,0.0,0.0,0.0922,0.3672,0.4061,0.4687,0.6487,0.7383,0.8597,1.0561,1.0075,0.9327,0.8682,0.8504,0.7772,0.6271,0.6212,0.5784,0.4822,0.6494,0.863,1.1124,1.0742,1.089,1.1638,1.2054,1.2141,1.1816,1.1594,1.1508,1.1476,1.1595,1.1365,1.087,1.1073,1.1365,1.1697,1.0815,1.0098,0.9159,0.0,0.0,0.0,0.0,0.0,0.0,0.0,0.0,0.0,0.0,0.0,0.0,0.0,0.0,0.0,0.0,0.0,0.0,0.0,0.0,0.0,0.0,0.0,0.0,0.0,0.0,0.0,0.0,0.0,0.0,0.0,0.0,0.0,2.0216,2.2514,2.4022,2.3568,2.5814,2.5344,2.0074,2.8667,3.5069,3.6157,3.8149,3.8096,3.5541,3.7177,3.816,3.8119,3.816,3.7075,3.4726,3.4485,3.4047,3.3418,3.361,3.3514,3.3124,3.2548,3.2365,3.2293,3.2054,3.1942,3.1919,3.158,3.1741,3.2274,3.246,3.2405,3.2249,3.1976,3.1121,2.9607,0.0,0.0,0.0,0.0,0.0,0.0864,0.3413,0.5764,0.7195,0.7086,0.9475,1.1013,1.0554,1.1252,1.1051,0.9322,0.9011,0.7945,0.5631,0.5046,0.5889,0.8413,0.9812,1.135,1.3068,1.2939,1.2562,1.2045,1.2409,1.1824,1.0396,1.0048,1.0165,1.0642,1.09,1.1227,1.1582,1.1802,1.1564,1.0989,0.9919,0.9127,0.8319,0.0,0.0,0.0,0.0,0.0,0.0,0.0,0.0,0.0,0.0,0.0,0.0,0.0,0.0,0.0,0.0,0.0,0.0,0.0,0.0,0.0,0.0,0.0,0.0,0.0,0.0,0.0,0.0,0.0,0.0,0.0,0.0,2.3677,2.2865,2.4334,2.5665,2.6099,2.8109,2.9648,3.0217,3.364,3.5938,3.6277,3.7331,3.7132,3.5541,3.7177,3.8181,3.816,3.8181,3.7177,3.5029,3.3579,3.2921,3.3048,3.266,3.2052,3.1383,3.1271,3.1077,3.0998,3.0634,3.1055,3.1795,3.1201,3.1278,3.1569,3.1359,3.1418,3.1405,3.0841,2.9377,2.7586,0.0,0.0,0.0,0.0,0.0,0.0651,0.2602,0.5485,0.757,0.7877,0.9982,1.1571,1.1902,1.2038,1.137,0.9514,0.9254,0.7767,0.4455,0.5529,0.7626,1.0615,1.1923,1.302,1.3951,1.3731,1.3243,1.2441,1.2116,1.1319,1.0137,0.9717,0.9995,1.0862,1.103,1.1508,1.2216,1.219,1.2004,1.1585,1.0297,0.9197,0.8224,0.6988,0.6697,0.7054,0.7646,0.7942,0.8213,0.9384,0.0,0.0,0.0,0.0,0.0,0.0,0.0,0.0,0.0,0.0,0.0,0.0,0.0,0.0,0.0,0.0,0.0,0.0,0.0,0.0,0.0,0.0,0.0,0.0,2.5581,2.5802,2.4934,2.5858,2.6889,2.7807,2.9259,3.1345,3.424,3.5609,3.6622,3.7471,3.745,3.6767,3.5418,3.7177,3.8181,3.8181,3.6954,3.5975,3.5249,3.3452,3.2605,3.2668,3.1966,3.1249,3.0519,3.0382,3.0203,2.9941,2.9819,3.0092,3.0606,3.0538,3.0394,0.0,0.0,0.0,0.0,0.0,2.7373,2.5979,0.0,0.0,0.0,0.0,0.0,0.0418,0.1672,0.4085,0.6478,0.8497,0.0,1.1097,1.3529,1.2464,1.0958,0.9412,0.9389,0.7933,0.0,0.0,0.0,1.1999,1.329,1.406,1.4273,1.386,1.3367,1.2815,1.1699,1.1061,1.0837,1.0348,1.0577,1.1435,1.1498,1.1992,1.2779,1.2592,1.2679,1.2821,1.1519,1.0139,0.8738,0.8039,0.7649,0.7631,0.8894,0.9043,0.8967,1.0949,0.0,0.0,0.0,0.0,0.0,0.0,0.0,0.0,0.0,0.0,0.0,0.0,0.0,0.0,0.0,0.0,0.0,0.0,0.0,0.0,0.0,0.0,0.0,0.0,2.6861,2.6643,2.6393,2.6949,2.7644,2.8702,2.9704,3.1348,3.4054,3.5595,3.7023,3.8826,3.8093,3.7011,3.5665,0.0,0.0,0.0,0.0,3.4333,3.5247,3.3718,3.288,3.2581,3.1819,3.1108,3.044,3.0153,2.9731,2.9386,2.9564,2.9492,2.914,2.9669,2.9574,2.9141,3.0128,2.9601,2.8135,2.6605,2.5517,2.4885,0.0,0.0,0.0,0.0,0.0,0.0501,0.197,0.3403,0.5173,0.7617,0.9801,1.1321,1.186,1.234,1.1665,0.9335,0.9929,1.074,0.0,0.0,1.2746,1.3613,1.4746,1.5332,1.525,1.4776,1.417,1.3348,1.2891,1.2434,1.1917,1.1677,1.1121,1.0338,1.1045,1.2299,1.3838,1.4252,1.3974,1.3114,1.3053,1.1921,1.0238,0.9521,0.9202,0.924,0.9981,1.0743,1.1655,1.3141,1.4597,1.5627,1.4638,0.0,0.0,0.0,0.0,0.0,0.0,0.0,0.0,0.0,0.0,0.0,0.0,0.0,0.0,0.0,0.0,0.0,0.0,0.0,0.0,2.5952,2.7097,2.7584,2.6643,2.6927,2.7631,2.8653,2.962,3.113,3.3322,3.5218,3.6438,3.6828,3.8136,3.8335,3.7132,3.6636,3.6423,3.6423,3.5323,3.484,3.5208,3.4165,3.3395,3.3,0.0,0.0,3.083,3.0822,3.0535,3.0031,3.0074,2.991,2.9934,2.9861,2.9436,2.8831,2.8248,2.7554,2.6598,2.56,2.5003,2.4684,0.0,0.0,0.0,0.0,0.0,0.026,0.1039,0.2713,0.4525,0.6275,0.8459,1.0102,1.0772,1.08,0.9991,0.8071,0.8727,0.0,0.0,1.3789,1.4413,1.5057,1.6223,1.6556,1.5899,1.5631,1.523,1.4701,1.4118,1.3674,1.3374,1.3191,1.2685,1.1948,1.2334,1.3353,1.487,1.5615,1.563,1.516,1.4989,1.4495,1.3671,1.2261,1.142,1.1105,1.2184,1.2749,1.3236,1.5094,1.6795,1.8168,1.796,1.7002,1.5483,0.0,0.0,0.0,0.0,0.0,0.0,0.0,0.0,0.0,0.0,0.0,0.0,0.0,0.0,2.1155,0.0,0.0,2.6398,2.617,2.7314,2.7999,2.7038,2.7167,2.7452,2.8008,2.8899,3.0722,3.3702,3.498,3.6015,3.7049,3.6983,3.671,3.647,3.5906,3.5778,3.5996,3.5327,3.5172,3.5596,3.4306,3.3587,3.342,3.262,3.1797,3.0937,3.1127,3.0843,3.0012,3.036,3.0079,2.9544,2.892,2.8661,2.8501,2.7124,2.6325,2.5631,2.4624,2.3877,2.3347,0.0,0.0,0.0,0.0,0.0,0.0,0.0,0.1782,0.3587,0.4829,0.6587,0.8176,0.9368,0.8852,0.8105,0.0,0.0,0.0,0.0,1.5032,1.6138,1.6873,1.7662,1.7688,1.6797,1.6586,1.6427,1.6367,1.5615,1.5264,1.5244,1.4894,1.4683,1.453,1.4396,1.5137,1.6459,1.7213,1.7615,1.7686,1.738,1.7423,1.7557,1.5754,1.4179,1.3031,1.4389,1.4583,1.4538,1.676,1.8448,1.9782,2.0944,2.0167,1.842,1.6387,1.5399,0.0,0.0,0.0,0.0,0.0,0.0,0.0,0.0,0.0,2.236,2.2551,2.2818,2.372,2.5954,2.6536,2.6875,2.7173,2.8077,2.8431,2.7899,2.7983,2.8166,2.8166,2.8327,3.0164,3.4425,3.4823,3.5701,3.7829,3.6145,3.5065,3.506,3.5344,3.5458,3.5603,3.5303,3.5286,3.5898,3.4697,3.4022,3.412,3.3072,3.2267,3.1565,3.1763,3.135,3.0492,3.0844,3.0445,2.9523,2.8554,2.8364,2.8544,2.7026,2.6004,2.5456,2.4205,2.3029,2.218,0.0,0.0,0.0,0.0,0.0,0.0,0.0,0.0242,0.126,0.3585,0.4895,0.5892,0.658,0.7288,0.8157,0.0,0.0,0.0,1.6318,1.7685,1.8803,1.9787,1.92,1.8796,1.8585,1.7793,1.7632,1.8132,1.7777,1.7593,1.7498,1.7124,1.6947,1.6912,1.6734,1.7656,1.9341,1.9723,1.9845,1.996,2.039,2.0565,2.0544,2.0045,1.7767,1.4931,1.5268,1.5668,1.6268,1.7948,1.9803,2.1629,2.2731,2.2475,2.1289,1.8977,0.0,1.7252,1.6859,1.8747,2.0724,2.0409,1.908,1.779,0.0,0.0,2.4436,2.5125,2.6467,2.7806,2.8449,2.9613,3.0201,2.9693,2.9784,2.9817,2.9715,3.0498,3.1099,3.1099,2.8921,2.9393,3.4328,3.4823,3.5701,3.7829,3.7239,3.592,3.3923,3.4987,3.5345,3.4346,3.4644,3.4989,3.5459,3.4967,3.4992,3.5266,3.4751,3.4315,3.3841,3.3539,3.3215,3.2942,3.2383,3.1846,3.1331,3.0604,3.0165,2.9832,2.859,2.7526,2.6615,2.4974,2.3686,2.2855,0.0,0.0,0.0,0.0,0.0,0.0,0.0,0.0,0.083,0.3172,0.3855,0.4476,0.5401,0.5435,0.5778,0.0,0.0,0.0,1.4048,1.7634,1.9498,1.9107,1.946,1.9503,1.9155,1.9387,1.9621,1.9975,1.9666,1.9437,1.9229,1.8803,1.8541,1.8337,1.8691,1.9377,2.0246,2.0803,2.1132,2.1247,2.1607,2.1957,2.2124,2.1572,1.9518,1.6897,1.7118,1.7286,0.0,0.0,2.0424,2.1597,2.2425,2.2248,2.1473,2.0411,1.982,0.0,1.9449,1.8849,0.0,0.0,2.1487,2.0571,2.0713,2.274,2.4986,2.6299,2.7037,2.7937,2.8856,3.0058,3.0437,0.0,2.9564,2.9994,2.9994,3.0909,3.1618,3.1618,3.0507,3.08,3.3195,3.4834,3.5977,3.64,3.6019,3.5416,3.4659,3.4662,3.4658,3.4518,3.4329,3.4609,3.5391,3.4873,3.4938,3.5743,3.5084,3.4777,3.4425,3.4323,3.3995,3.3535,3.309,3.2652,3.2129,3.1079,3.0537,3.024,2.8929,2.7975,2.7076,2.5586,2.4226,2.3032,0.0,0.0,0.0,0.0,0.0,0.0097,0.0395,0.0444,0.0986,0.2502,0.2905,0.3429,0.4394,0.4182,0.4216,0.4833,0.0,0.0,0.0,1.7264,1.9775,1.9054,2.0152,2.0572,2.0128,2.1186,2.165,2.165,2.149,2.132,2.0983,2.0642,2.0423,2.036,2.0803,2.1219,2.1628,2.2293,2.2772,2.3052,2.3276,2.3375,2.3329,2.2277,2.0476,1.8359,1.8198,1.7807,0.0,0.0,2.0216,2.1186,2.1669,2.1966,2.2124,2.2018,2.201,2.1789,2.0764,0.0,0.0,2.0182,2.2054,2.3323,2.3264,2.4132,2.5286,2.6767,2.7441,2.793,2.8828,2.9695,3.0123,2.9219,2.9571,2.9994,2.9994,3.0909,3.1422,3.0898,3.0086,3.0416,3.248,3.4679,3.5713,3.5255,3.4999,3.4955,3.5103,3.4472,3.4221,3.4268,3.4047,3.4133,3.4712,3.4519,3.4835,3.5695,3.5114,3.5004,3.4939,3.4902,3.4554,3.395,3.393,3.3514,3.295,3.1653,3.107,3.08,2.9407,2.8428,2.7623,2.6264,2.4796,2.3402,0.0,0.0,0.0,0.0,0.0,0.0352,0.1397,0.1555,0.1455,0.1202,0.1904,0.2642,0.3192,0.3928,0.4574,0.0,0.0,0.0,1.357,1.7316,1.9946,2.0973,2.1764,2.2197,2.2322,2.3244,2.3485,2.2915,2.3412,2.3386,2.304,2.2706,2.2898,2.347,2.3158,2.3558,2.4355,2.4647,2.5181,2.5896,2.6124,2.5514,2.4258,2.2635,2.0792,1.8988,1.7834,0.0,0.0,0.0,1.8998,2.0584,2.0855,2.2461,0.0,2.4215,2.4536,0.0,0.0,0.0,2.0937,1.6603,1.99,2.4236,2.4611,2.486,2.5445,2.6851,2.832,2.9179,2.9028,2.8984,2.944,3.0577,3.0388,2.9994,2.9994,3.0909,3.093,2.9063,2.6285,2.6688,0.0,3.4157,3.4847,3.4836,3.5169,3.51,3.4411,3.4549,3.4043,3.2664,3.3528,3.3564,3.2979,3.422,3.4835,3.4979,3.5103,3.5392,3.5711,3.5852,3.5304,3.4403,3.5025,3.4767,3.3813,3.298,3.227,3.1584,3.0372,2.9313,2.8298,2.7314,2.5881,2.4392,0.0,0.0,0.0,0.0,0.0,0.0552,0.2208,0.2461,0.2773,0.3636,0.3967,0.0,0.0,0.0,0.0,0.0,0.0,0.0,1.1541,1.5948,1.8684,1.9099,2.131,2.2655,2.2805,2.4091,2.4517,2.3957,2.4137,2.3997,2.3517,2.3272,2.3311,2.3684,2.3994,2.4318,2.4808,2.5213,2.5426,2.557,2.5692,2.5312,2.4574,2.3408,2.1284,1.8689,0.0,0.0,0.0,0.0,1.8179,0.0,2.0027,0.0,0.0,2.2718,2.3118,2.324,0.0,0.0,2.1038,2.0093,2.1668,2.3659,2.4792,2.4984,2.5186,2.5771,2.6926,2.7842,2.7869,2.7732,2.8148,2.9459,2.9191,2.8824,2.8824,2.8271,2.7283,2.5902,2.5228,0.0,0.0,0.0,0.0,3.4332,3.4952,3.5059,3.4501,3.4266,3.3704,3.2892,3.2805,3.2842,3.3292,3.3503,3.4145,3.5218,3.5485,3.5788,3.6129,3.6026,3.5428,3.436,3.4585,3.4055,3.303,3.2084,3.1238,3.0577,2.9664,2.8728,2.7744,2.703,2.594,2.4666,0.0,0.0,0.0,0.0,0.0,0.0,0.0,0.0,0.0,0.0,0.0,0.0,0.0,0.0,0.0,0.0,0.0,0.0,0.0,0.0,1.6688,1.7353,1.9488,2.0854,2.1223,2.2322,2.2916,2.2949,2.3096,2.3327,2.3567,2.3259,2.3375,2.3793,2.4208,2.4528,2.4721,2.5375,2.5504,2.5435,2.5036,2.4527,2.3745,2.2074,1.9684,0.0,0.0,0.0,0.0,0.0,0.0,0.0,0.0,0.0,0.0,2.2264,2.3729,2.5057,2.3808,2.358,2.3485,2.2717,2.2371,2.2684,2.4007,2.4312,2.4503,2.5052,2.5881,2.6303,2.5802,2.5633,2.6083,2.78,2.8243,2.8076,2.7471,2.6239,2.5107,2.4415,2.4897,2.5382,0.0,0.0,0.0,3.4328,3.501,3.5161,3.4542,3.409,3.3575,3.2828,3.2428,3.2256,3.2585,3.2944,3.3704,3.4761,3.4883,3.505,3.5278,3.5103,3.4568,3.3759,3.3606,3.3,3.2119,3.107,3.0167,2.9516,2.8634,2.7762,2.6918,2.6311,2.5245,2.3833,0.0,0.0,0.0,0.0,0.0,0.0,0.0,0.0,0.0,0.0,0.0,0.0,0.0,0.0,0.0,0.0,0.0,0.0,0.0,0.0,0.0,1.5765,1.6476,1.7234,1.8008,1.8423,1.9133,2.013,2.05,2.1526,2.3077,2.2588,2.2802,2.372,2.3718,2.3847,2.4172,2.4907,2.5253,2.5233,2.4166,2.3033,2.1731,1.8771,0.0,0.0,0.0,0.0,0.0,0.0,0.0,0.0,0.0,0.0,0.0,0.0,0.0,2.9518,2.3522,2.5243,2.7775,2.3963,2.2129,2.149,2.2605,2.2812,2.3161,2.4465,2.4795,2.4356,0.0,0.0,2.344,2.6089,2.7492,2.7591,2.5878,2.4967,2.4454,0.0,0.0,0.0,0.0,0.0,0.0,3.4686,0.0,3.5239,3.4585,3.4205,3.3569,3.2577,3.2395,3.1929,3.1172,3.2422,3.3177,3.3556,3.3056,3.3096,3.3321,3.2892,3.2633,3.2591,3.2171,3.1684,3.0813,2.9784,2.9022,2.8272,2.728,2.6529,2.592,2.517,2.371,2.1954,0.0,0.0,0.0,0.0,0.0,0.0,0.0,0.0,0.0,0.0,0.0,0.0,0.0,0.0,0.0,0.0,0.0,0.0,0.0,0.0,0.0,0.0,0.0,0.0,1.6923,1.8115,0.0,0.0,0.0,1.8326,1.9064,1.8562,1.8915,1.9982,2.0717,2.0996,2.1043,2.2147,2.1947,2.0752,0.0,1.9757,1.8344,0.0,0.0,0.0,0.0,0.0,0.0,0.0,0.0,0.0,0.0,0.0,2.1511,0.0,0.0,3.4252,3.0964,2.8866,2.677,2.3851,2.2822,2.2492,2.2792,2.2184,2.1437,2.093,2.0604,2.0191,0.0,0.0,0.0,2.451,2.611,0.0,2.4781,2.3953,0.0,0.0,0.0,2.777,2.8013,2.9287,0.0,0.0,3.5737,3.6751,3.509,3.4811,3.413,3.2888,3.2189,3.185,3.1895,3.2166,3.2516,3.2898,3.1993,3.1637,3.2004,3.1054,3.0292,2.9618,2.9075,2.8228,2.727,2.6827,2.6427,2.5929,2.5464,2.4798,2.4221,2.3223,2.1904,2.0106,0.0,0.0,0.0,0.0,0.0,0.0,0.0,0.0,0.0,0.0,0.0,0.0,0.0,0.0,0.0,0.0,0.0,0.0,0.0,0.0,0.0,0.0,0.0,1.1597,1.2278,1.272,0.0,0.0,0.0,0.0,0.0,1.4447,1.5049,1.5973,1.6635,1.7014,1.7172,0.0,0.0,0.0,0.0,0.0,0.0,0.0,0.0,0.0,0.0,0.0,0.0,0.0,0.0,2.4066,2.5379,2.5464,2.5142,2.5384,0.0,3.414,3.1605,2.8378,2.525,2.2709,2.2109,2.1957,2.1443,2.0408,1.9158,1.7619,1.6643,0.0,0.0,0.0,0.0,0.0,0.0,0.0,2.4979,2.4883,2.5269,0.0,2.7318,0.0,2.8431,3.0177,3.1775,0.0,3.5987,3.7208,3.6249,3.5332,3.4315,3.3056,3.2113,3.1476,3.1353,3.1276,3.1075,3.092,2.9683,2.9125,2.9155,2.7905,2.7251,2.6818,0.0,2.5474,2.4917,2.4317,2.407,2.3946,2.3325,2.2893,2.2493,2.1628,2.0159,1.82,0.0,0.0,0.0,0.0,0.0,0.0,0.0,0.0,0.0,0.0,0.2567,0.0,0.0,0.0,0.0,0.0,0.0,0.0,0.0,0.0,0.0,0.0,0.0,0.0,0.0,0.0,0.0,0.0,0.0,0.0,0.0,0.0,0.0,0.0,0.0,0.0,0.0,0.0,0.0,0.0,0.0,0.0,0.0,0.0,0.0,0.0,0.0,0.0,0.0,0.0,2.4788,2.6358,2.7618,2.9668,3.1437,3.0859,3.1513,3.1875,2.889,2.624,2.378,2.1325,2.0835,2.0528,1.9428,1.7893,1.6253,1.4501,0.0,1.3094,1.5377,1.561,1.7914,2.5209,0.0,2.511,2.5881,2.6848,2.7808,2.8696,2.8071,2.7847,2.8455,3.1277,3.3496,3.4314,3.6017,3.7065,3.7154,3.5872,3.4593,3.3314,3.2218,3.1271,3.0386,3.0242,2.9623,2.8445,2.7076,2.6215,2.5618,2.4297,2.3885,2.4007,2.3366,2.308,2.2937,2.2069,2.193,2.2013,2.1141,2.0815,2.0644,1.9911,1.8294,1.6211,0.0,0.0,0.0,0.0,0.0,0.0,0.0,0.0,0.0,0.0,0.3263,0.2637,0.0,0.0,0.0,0.0,0.0,0.0,0.0,0.0,0.0,0.0,0.0,0.0,0.0,0.0,0.0,0.0,0.0,0.0,0.0,0.0,0.0,0.0,0.0,0.0,0.0,0.0,0.0,0.0,0.0,0.0,0.0,0.0,0.0,0.0,0.0,0.0,0.0,0.0,2.7105,3.0725,3.1967,3.2908,3.3637,3.4012,3.3702,3.2538,2.959,2.6869,2.4257,2.163,2.0411,1.9327,1.7938,1.5033,0.0,0.0,0.0,1.2148,1.5262,1.4819,0.0,2.416,0.0,0.0,0.0,0.0,2.833,0.0,0.0,0.0,0.0,0.0,0.0,0.0,0.0,3.6735,3.6008,3.6604,3.5807,3.3206,3.2638,3.1719,3.0615,3.0103,2.8856,2.7123,2.5717,2.4382,2.3114,2.1854,2.1336,2.1239,2.088,0.0,2.0202,2.0075,1.9935,1.9712,1.9343,1.8908,1.8341,1.7508,1.5959,1.4194,0.0,0.0,0.0,0.0,0.0,0.0,0.0,0.7073,0.7328,0.6886,0.6093,0.5165,0.4093,0.2853,0.1967,0.0,0.0,0.0,0.0,0.0,0.0,0.0,0.0,0.0,0.0,0.0,0.0,0.0,0.0,0.0,0.0,0.0,0.0,0.0,0.0,0.0,0.0,0.0,0.0,0.0,0.0,0.0,0.0,0.0,0.0,0.0,0.0,0.0,0.0,0.0,2.3884,2.9795,3.1751,3.3093,3.383,3.3197,3.2328,3.1241,2.9182,2.733,2.5592,2.3717,2.1775,1.9566,1.6892,0.0,0.0,0.0,0.0,1.2183,1.4297,0.0,0.0,0.0,0.0,0.0,0.0,0.0,0.0,0.0,0.0,0.0,0.0,0.0,0.0,0.0,0.0,3.635,3.635,3.6494,3.5572,3.3464,3.2884,3.2073,3.077,3.0156,2.8862,2.7127,2.4903,2.31,2.1697,1.987,1.8803,1.842,1.7913,1.7614,1.762,1.7374,1.7422,1.7555,1.7318,1.7086,1.6868,1.6161,1.4914,1.3364,0.0,0.0,0.0,0.0,0.0,0.0,0.0,1.0406,0.9116,0.8728,0.8351,0.7438,0.5706,0.3053,0.1409,0.0,0.0,0.0,0.0,0.0,0.0,0.0,0.0,0.0,0.0,0.0,0.0,0.0,0.0,0.0,0.0,0.0,0.0,0.0,0.0,0.0,0.0,0.0,0.0,0.0,0.0,0.0,0.0,0.0,0.0,0.0,0.0,0.0,0.0,0.0,1.872,2.4034,2.6783,2.9884,3.2327,3.0952,3.0362,2.9818,2.8277,2.7026,2.5889,2.5423,2.3195,2.0287,1.6779,1.3799,0.0,0.0,0.0,1.2067,1.3216,0.0,0.0,0.0,0.0,0.0,0.0,0.0,0.0,0.0,0.0,0.0,0.0,0.0,0.0,0.0,0.0,0.0,3.6495,3.6276,3.5447,3.4054,3.3407,3.2521,3.1308,3.0428,2.9064,2.7234,2.4567,2.2506,2.071,1.8574,1.7104,1.6297,1.5471,1.5237,1.5365,1.5014,1.5131,1.5598,1.537,1.5346,1.5471,1.4895,1.3866,1.2682,0.0,0.0,0.0,0.0,0.0,0.0,0.0,0.8805,0.8068,0.8857,0.7687,0.7125,0.806,0.3365,0.0164,0.0,0.0,0.0,0.0,0.0,0.0,0.0,0.0,0.0,0.0,0.0,0.0,0.0,0.0,0.0,0.0,0.0,0.0,0.0,0.0,0.0,0.0,0.0,0.0,0.0,0.0,0.0,0.0,0.0,0.0,0.0,0.0,0.0,0.0,0.0,0.0,1.1245,1.4421,2.1364,2.8381,2.8773,0.0,0.0,2.728,2.4934,2.3399,2.5172,2.3644,2.108,1.8449,0.0,0.0,0.0,1.0199,1.0954,1.2495,1.4251,0.0,0.0,0.0,0.0,0.0,0.0,0.0,0.0,0.0,0.0,0.0,0.0,0.0,0.0,0.0,0.0,3.5072,3.6487,3.6658,3.5356,3.4386,3.3393,3.2393,3.097,2.902,2.663,2.4733,2.2537,2.0005,1.8408,1.6795,1.5393,1.4611,1.4176,0.0,1.3628,1.374,1.3963,1.374,1.3492,1.3188,1.2859,1.2174,1.1261,0.0,0.0,0.0,0.0,0.0,0.0,0.727,0.6884,0.6924,0.8557,0.7394,0.6696,0.7398,0.43,0.1581,0.0123,0.0,0.0,0.0,0.0,0.0,0.0,0.0,0.0,0.0,0.0,0.0,0.0,0.0,0.0,0.0,0.0,0.0,0.0,0.0,0.0,0.0,0.0,0.0,0.0,0.0,0.0,0.0,0.0,0.0,0.0,0.0,0.0,0.0,0.0,0.0,0.0,1.1872,1.6262,0.0,0.0,2.5989,2.7253,2.6426,2.4974,2.4007,2.5471,2.3577,2.0586,1.745,0.0,0.0,1.131,1.0629,1.0313,1.1102,1.3099,1.4828,0.0,1.8129,2.0597,0.0,0.0,0.0,0.0,0.0,0.0,0.0,0.0,0.0,0.0,0.0,3.4683,3.5213,3.6099,3.6596,3.6611,3.5196,3.3888,3.2835,3.1434,2.9898,2.8209,2.5738,2.3305,2.0874,1.854,1.635,1.4282,1.2809,1.1929,0.0,1.1339,1.1515,1.1933,1.1628,1.1861,1.2327,1.1728,1.1567,1.1481,0.0,0.0,0.0,0.0,0.0,0.3748,0.5479,0.5773,0.6282,0.7647,0.7138,0.6638,0.66,0.5148,0.3032,0.0245,0.0,0.0,0.0,0.0,0.0,0.0,0.0,0.0,0.0,0.0,0.0,0.0,0.0,0.0,0.0,0.0,0.0,0.0,0.0,0.0,0.0,0.0,0.0,0.0,0.0,0.0,0.0,0.0,0.0,0.0,0.0,0.0,0.0,0.0,0.0,0.0,0.0,0.0,0.0,0.0,2.2982,2.5253,2.5473,2.5125,2.4711,2.5267,2.3432,2.0582,0.0,0.0,1.0873,1.1869,1.1273,1.0581,1.0534,1.2528,1.4024,1.3635,1.6247,1.8967,2.0827,0.0,0.0,0.0,0.0,0.0,0.0,0.0,0.0,0.0,0.0,3.4481,3.5439,3.5925,3.6413,3.697,3.5519,3.4316,3.3493,3.2235,3.0899,2.9452,2.6889,2.4341,2.1732,1.9039,1.638,1.3998,1.1767,1.045,0.0,0.9402,0.9516,0.988,0.9662,1.0236,1.114,1.0197,1.0342,1.0757,0.0,0.0,0.0,0.0,0.0,0.0,0.4609,0.5819,0.6377,0.6065,0.6882,0.7136,0.6218,0.5731,0.4005,0.0324,0.0,0.0,0.0,0.0,0.0,0.0,0.0,0.0,0.0,0.0,0.0,0.0,0.0,0.0,0.0,0.0,0.0,0.0,0.0,0.0,0.0,0.0,0.0,0.0,0.0,0.0,0.0,0.0,0.0,0.0,0.0,0.0,0.0,0.0,0.0,0.0,0.0,0.0,0.0,0.0,2.0876,2.3722,2.4339,2.4807,2.4925,2.4402,2.3171,2.1302,0.0,1.3598,1.0583,1.1593,1.1991,1.1949,1.1224,1.2586,1.336,1.2049,1.4411,1.6425,1.6467,0.0,0.0,0.0,0.0,0.0,0.0,0.0,0.0,0.0,0.0,0.0,3.5439,3.6115,3.6367,3.5988,3.5288,3.4804,3.4597,3.3315,3.1707,2.9873,2.8059,2.5575,2.26,1.9834,1.7208,1.4612,1.2125,1.0099,0.0,0.8312,0.8112,0.8044,0.7893,0.8385,0.9002,0.8063,0.8061,0.8329,0.0,0.0,0.0,0.0,0.0,0.0,0.0,0.409,0.4686,0.5192,0.4852,0.4351,0.3832,0.4813,0.5023,0.3856,0.1449,0.0,0.0,0.0,0.0,0.0,0.0,0.0,0.0,0.0,0.0,0.0,0.0,0.0,0.0,0.0,0.0,0.0,0.0,0.0,0.0,0.0,0.0,0.0,0.0,0.0,0.0,0.0,0.0,0.0,0.0,0.0,0.0,0.0,0.0,0.0,0.0,0.0,0.0,0.0,0.0,0.0,2.2439,2.3936,2.4304,2.2776,2.1234,1.8973,1.4411,1.2191,1.137,1.2276,1.2662,1.262,1.197,1.2048,1.2427,1.3056,1.4485,0.0,0.0,0.0,0.0,0.0,0.0,0.0,0.0,0.0,0.0,0.0,0.0,3.3157,3.4683,3.5424,3.5493,3.4745,3.4855,3.4643,3.4074,3.316,3.2044,3.0768,2.8409,2.5888,2.333,2.0797,1.7873,0.0,1.2081,0.9852,0.7914,0.7086,0.6573,0.6307,0.6522,0.6969,0.736,0.6857,0.6843,0.7101,0.0,0.0,0.0,0.0,0.0,0.0,0.0,0.2676,0.3599,0.4315,0.3991,0.3219,0.197,0.4038,0.553,0.5606,0.217,0.0,0.0,0.0,0.0,0.0,0.0,0.0,0.0,0.0,0.0063,0.0187,0.0266,0.0325,0.0378,0.0428,0.0,0.0,0.0,0.0,0.0,0.0,0.0,0.0,0.0,0.0,0.0,0.0,0.0,0.0,0.0,0.0,0.0,0.0,0.0,0.0,0.0,0.0,0.0,0.0,1.4474,0.0,0.0,2.2685,2.2639,2.0807,1.9436,1.7294,1.2528,1.1396,1.163,1.2604,1.2959,1.2993,1.2616,1.2117,1.2036,1.2813,1.5223,0.0,0.0,0.0,0.0,0.0,0.0,0.0,0.0,0.0,0.0,0.0,0.0,3.0937,3.216,3.3743,3.4203,3.3118,3.4282,3.4382,3.3351,3.2967,3.2096,3.0676,2.8748,2.6547,2.4108,2.1398,1.8529,1.5486,1.2403,0.9731,0.0,0.6566,0.5687,0.5067,0.5593,0.5985,0.6152,0.5729,0.5584,0.5589,0.0,0.0,0.0,0.0,0.0,0.0,0.0,0.1533,0.2884,0.343,0.3931,0.3273,0.0652,0.3213,0.5301,0.5771,0.0,0.0,0.0,0.0,0.0,0.0,0.0,0.0,0.0011,0.0056,0.0216,0.051,0.0804,0.1053,0.1248,0.1397,0.1,0.0166,0.0,0.0,0.0,0.0,0.0,0.0,0.0,0.0,0.0,0.0,0.0,0.0,0.0,0.0,0.0,0.0,0.0,0.0,0.0,0.0,0.0,0.0,0.0,0.0,0.0,0.0,0.0,0.0,0.0,1.612,1.2224,1.1343,0.0,1.2483,1.274,1.2786,1.2804,1.2332,1.1861,1.1593,0.0,0.0,0.0,0.0,0.0,0.0,0.0,0.0,0.0,0.0,0.0,0.0,0.0,2.7723,2.8314,3.1171,3.2269,3.1204,3.328,3.3875,3.2644,3.28,3.1913,2.9951,2.9112,2.7396,2.4887,2.1801,1.9118,0.0,1.3022,0.9876,0.74,0.6666,0.5491,0.4256,0.5019,0.5222,0.5114,0.4654,0.4337,0.3934,0.0,0.0,0.0,0.0,0.0,0.0,0.0,0.0,0.0,0.0,0.2126,0.1441,0.0228,0.0808,0.2512,0.0,0.0,0.0,0.0,0.0,0.0,0.0,0.0,0.0,0.0153,0.0608,0.0756,0.0582,0.1798,0.2822,0.3599,0.3889,0.3239,0.1786,0.0552,0.0,0.0,0.0,0.0,0.0,0.0,0.0,0.0,0.0,0.0,0.0,0.0,0.0,0.0,0.0,0.0,0.0,0.0,0.0,0.0,0.0,1.1575,1.179,1.3022,0.0,1.6467,1.6606,1.5647,1.4293,0.0,1.3108,1.3162,0.0,0.0,0.0,0.0,0.0,0.0,0.0,0.0,0.0,0.0,0.0,0.0,0.0,0.0,0.0,0.0,0.0,0.0,0.0,2.6962,2.6508,2.6139,2.6751,2.7764,2.9087,2.9639,3.0861,3.274,3.2229,3.1479,3.0559,2.9237,2.7324,2.4914,2.2822,2.0084,1.6779,1.4104,1.1162,0.8137,0.6996,0.5531,0.405,0.4819,0.4724,0.4089,0.4032,0.3619,0.2956,0.0,0.0,0.0,0.0,0.0,0.0,0.0,0.0,0.0,0.0,0.0,0.0444,0.0042,0.0,0.0,0.0,0.0,0.0,0.0,0.0,0.0,0.0,0.0,0.0049,0.0153,0.0655,0.09,0.0874,0.1864,0.2922,0.402,0.3844,0.368,0.3444,0.1058,0.0,0.0,0.0,0.0,0.0,0.0,0.0,0.0,0.0,0.0,0.0,0.0,0.3435,0.0,0.5481,0.689,0.8272,0.0,0.0,0.0,0.0,1.1541,1.1452,1.0705,1.1577,1.2794,1.3142,1.3001,1.2731,1.2691,0.0,0.0,0.0,0.0,0.0,0.0,0.0,0.0,0.0,0.0,0.0,0.0,0.0,0.0,0.0,0.0,0.0,0.0,0.0,0.0,0.0,2.5955,2.5746,2.5312,2.4692,2.5148,2.6752,2.6391,2.7693,3.0911,3.0683,3.0048,2.9009,2.7994,2.6594,2.4756,2.2747,2.0148,1.703,1.4611,1.1621,0.8357,0.7206,0.5601,0.4058,0.4796,0.4546,0.3782,0.3836,0.336,0.2609,0.0,0.0,0.0,0.0,0.0,0.0,0.0,0.0,0.0,0.0,0.0,0.0,0.0,0.0,0.0,0.0,0.0,0.0,0.0,0.0,0.0,0.0,0.0,0.0173,0.0545,0.0667,0.0934,0.1352,0.1789,0.257,0.3637,0.3178,0.3597,0.4603,0.1419,0.0,0.0,0.0,0.0,0.0,0.0,0.0,0.0,0.0,0.0,0.0,0.0,0.0,0.0,0.518,0.6308,0.6881,0.8145,0.0,0.0,0.0,0.0,0.0,1.0692,1.0323,1.0276,1.0625,1.146,1.2163,0.0,0.0,0.0,0.0,0.0,0.0,0.0,0.0,0.0,0.0,0.0,0.0,0.0,0.0,0.0,0.0,0.0,0.0,0.0,0.0,0.0,0.0,2.4831,2.4831,2.4831,2.347,2.3105,2.4225,2.3479,2.449,2.7536,2.8435,2.8126,2.6771,2.6495,2.5683,2.4346,2.237,1.9983,1.7275,0.0,0.0,0.859,0.7473,0.5953,0.4474,0.4966,0.4636,0.3937,0.3862,0.341,0.2586,0.0,0.0,0.0,0.0,0.0,0.0,0.0,0.0,0.0,0.0,0.0,0.0,0.0,0.0,0.0,0.0,0.0,0.0,0.0,0.0,0.0,0.0,0.0,0.0826,0.26,0.1478,0.1252,0.2046,0.2949,0.3549,0.3885,0.4957,0.4951,0.393,0.1216,0.0,0.0,0.0,0.0,0.0,0.0,0.0,0.0,0.0,0.0,0.0,0.0,0.0,0.0,0.3179,0.4351,0.5563,0.5615,0.0,0.0,0.0,0.0,0.0,1.0893,1.1415,1.1992,1.3984,1.4818,1.4525,0.0,0.0,0.0,0.0,0.0,0.0,0.0,0.0,0.0,0.0,0.0,0.0,0.0,0.0,0.0,0.0,0.0,0.0,0.0,0.0,0.0,2.2597,2.2666,2.2666,2.2666,2.0796,2.0083,2.0719,2.0926,2.1487,2.2312,2.5336,2.6608,2.6142,2.6416,2.5526,2.3648,2.2955,2.0597,1.7013,0.0,1.284,0.9736,0.8417,0.7075,0.5798,0.5601,0.5107,0.4442,0.3888,0.3427,0.286,0.0,0.0,0.0,0.0,0.0,0.0,0.0,0.0,0.0,0.0,0.0,0.0,0.0,0.0,0.0,0.0,0.0,0.0,0.0,0.0,0.0,0.2367,0.2047,0.2231,0.3075,0.2937,0.3139,0.3766,0.4779,0.5351,0.548,0.5845,0.4988,0.311,0.0956,0.0,0.0,0.0,0.0,0.0,0.0,0.0,0.0,0.0,0.0,0.0,0.0,0.0,0.0,0.0,0.3297,0.4269,0.5483,0.0,0.0,0.0,0.0,0.0,0.9181,1.2012,1.5048,1.6369,1.4966,1.2954,0.0,0.0,0.0,0.0,0.0,0.0,0.0,0.0,0.0,0.0,0.0,0.0,0.0,0.0,0.0,0.0,0.0,0.0,0.0,0.0,0.0,2.1335,2.1411,2.0964,2.0063,1.975,1.9008,1.7544,1.8002,1.8541,1.9016,2.0731,2.2243,2.3606,2.3358,2.2907,2.2287,2.1419,1.9352,1.6414,0.0,1.2874,0.9647,0.8671,0.7358,0.5931,0.5721,0.5216,0.4508,0.3975,0.3511,0.3039,0.0,0.0,0.0,0.0,0.0,0.0,0.0,0.0,0.0,0.0,0.0,0.0,0.0,0.0,0.0,0.0,0.0,0.0,0.0,0.0,0.1699,0.3796,0.3681,0.3875,0.4562,0.4967,0.5408,0.5902,0.657,0.6752,0.6473,0.5874,0.4473,0.2434,0.127,0.0474,0.0,0.0,0.0,0.0,0.0,0.0,0.0,0.0,0.0,0.0,0.0,0.0,0.0,0.0,0.0,0.0,0.0,0.0,0.0,0.6965,0.7611,0.8023,0.7695,1.1114,1.502,1.5978,0.0,1.217,1.2439,0.0,0.0,0.0,0.0,0.0,0.0,0.0,0.0,0.0,0.0,0.0,0.0,0.0,0.0,0.0,0.0,0.0,0.0,0.0,2.0699,2.0699,2.0395,1.9669,1.8375,1.9253,1.8376,1.5255,1.5591,1.6039,1.6418,1.6562,1.8118,2.0981,2.0457,2.0365,2.0707,1.9686,1.7977,1.5793,1.4874,1.2631,0.952,0.8853,0.7553,0.6027,0.5877,0.5306,0.4515,0.4069,0.3778,0.3394,0.0,0.0,0.0,0.0,0.0,0.0,0.0,0.0,0.0,0.0,0.0,0.0,0.0,0.0,0.0,0.0,0.0,0.0,0.0,0.0,0.1306,0.2051,0.3348,0.5599,0.8896,0.7721,0.7488,0.8243,0.7946,0.7041,0.5574,0.4714,0.355,0.2162,0.272,0.1865,0.0,0.0,0.0,0.0,0.0,0.0,0.0,0.0,0.0,0.0,0.0,0.0,0.0,0.0,0.0,0.0,0.0,0.0,0.3677,0.4295,0.5896,0.7484,0.7575,0.7621,0.8227,1.0629,0.0,0.0,1.5429,0.0,0.0,0.0,0.0,0.0,0.0,0.0,0.0,0.0,0.0,0.0,0.0,0.0,0.0,0.0,0.0,0.0,0.0,0.0,2.0699,2.0699,1.9418,1.8759,1.8931,1.9024,1.7676,1.4588,1.4486,1.4391,1.4068,1.4042,1.58,1.9176,1.9425,1.9402,1.9058,1.8839,1.7539,1.5393,1.4322,1.2458,1.0083,0.9364,0.816,0.6759,0.6254,0.5508,0.462,0.44,0.4183,0.4073,0.0,0.0,0.0,0.0,0.0,0.0,0.0,0.0,0.0,0.0,0.0,0.0,0.0,0.0,0.0,0.0,0.0,0.0,0.0,0.1163,0.1784,0.2963,0.3836,0.5455,0.7973,0.8118,0.8602,0.9488,0.8056,0.6671,0.5345,0.4343,0.2958,0.1296,0.1234,0.1664,0.2325,0.0686,0.0,0.0,0.0,0.0,0.0,0.0,0.0,0.0,0.0,0.0,0.0,0.0,0.0231,0.0606,0.0,0.214,0.3014,0.1913,0.2156,0.3152,0.4785,0.6261,0.7831,0.9924,0.0,0.0,0.0,0.0,0.0,0.0,0.0,0.0,0.0,0.0,0.0,0.0,0.0,0.0,0.0,0.0,0.0,0.0,0.0,0.0,0.0,0.0,2.0206,1.9026,1.8425,1.8041,1.7898,1.7903,1.7227,1.5736,1.5142,1.4743,1.4605,1.3631,1.3764,1.4977,1.5865,1.6544,1.7027,1.6669,1.5843,1.4678,1.3754,1.2278,1.0423,0.9584,0.8488,0.7293,0.6331,0.5726,0.5408,0.5382,0.5151,0.4805,0.0,0.0,0.0,0.0,0.0,0.0,0.0,0.0,0.0,0.0,0.0,0.0,0.0,0.0,0.0,0.0,0.0,0.0,0.1512,0.1458,0.196,0.3154,0.3894,0.5129,0.6922,0.833,0.9281,0.9772,0.7885,0.6347,0.5157,0.4,0.2899,0.1899,0.1,0.1607,0.3205,0.1819,0.076,0.0,0.0,0.0,0.0,0.0,0.0,0.0,0.0,0.0,0.0,0.0,0.0,0.0,0.0,0.0,0.2038,0.1267,0.0543,0.0553,0.3112,0.5664,0.8265,0.0,0.0,0.0,0.0,0.0,0.0,0.0,0.0,0.0,0.0,0.0,0.0,0.0,0.0,0.0,0.0,0.0,0.0,0.0,0.0,0.0,0.0,0.0,1.9932,1.8058,1.8149,1.8016,1.7447,1.7406,1.7282,1.6947,1.5332,1.4451,1.4325,1.2997,1.2202,1.203,1.275,1.39,1.531,1.4941,1.4574,1.4143,1.3313,1.2136,1.0708,0.9954,0.883,0.7509,0.6622,0.6176,0.6064,0.6067,0.5807,0.5466,0.0,0.0,0.0,0.0,0.0,0.0,0.0,0.0,0.0,0.0,0.0,0.0,0.0,0.0,0.0,0.0,0.0,0.0,0.1723,0.1581,0.1688,0.2084,0.3313,0.4783,0.643,0.8549,0.9456,0.9087,0.761,0.6207,0.4861,0.3532,0.3445,0.4315,0.2671,0.1962,0.2094,0.3369,0.24,0.0015,0.0,0.0,0.0,0.0,0.0,0.0,0.0,0.0,0.0,0.0,0.0,0.0,0.0,0.0,0.0,0.2625,0.1716,0.0568,0.3147,0.569,0.0,0.0,0.0,0.0,0.0,0.0,0.0,0.0,0.0,0.0,0.0,0.0,0.0,0.0,0.0,0.0,0.0,0.0,0.0,0.0,0.0,0.0,0.0,0.0,0.0,1.8058,1.863,1.8717,1.7922,1.7882,1.7895,1.7895,1.4855,1.306,1.2709,1.1918,1.1328,1.0989,1.0641,1.1757,1.4066,1.3962,1.3865,1.384,1.3046,1.2013,1.0893,1.0549,0.9217,0.7359,0.7113,0.6856,0.6668,0.6323,0.618,0.6075,0.0,0.0,0.0,0.0,0.0,0.0,0.0,0.0,0.0,0.0,0.0,0.0,0.0,0.0,0.0,0.0,0.0,0.0,0.1792,0.1603,0.1725,0.2222,0.3238,0.3959,0.4309,0.5494,0.6918,0.8628,0.7612,0.5976,0.3782,0.3896,0.3664,0.317,0.4045,0.3889,0.3019,0.3643,0.2937,0.1324,0.0387,0.0,0.0,0.0,0.0,0.0,0.0,0.0,0.0,0.0,0.0,0.0,0.0,0.0,0.0,0.0782,0.0517,0.0984,0.5471,0.0,0.0,0.0,0.0,0.0,0.0,0.0,0.0,0.0,0.0,0.0,0.0,0.0,0.0,0.0,0.0,0.0,0.0,0.0,0.0,0.0,0.0,0.0,0.0,0.0,0.0,0.0,1.6564,1.562,1.5393,1.5803,1.6071,1.6071,1.4948,1.3815,1.2709,1.2978,1.1972,0.9689,1.037,1.1228,1.2125,1.2411,1.2623,1.275,1.2566,1.2057,1.1297,1.0002,0.8822,0.7766,0.7334,0.6925,0.6622,0.6704,0.6548,0.6307,0.0,0.0,0.0,0.0,0.0,0.0,0.0,0.0,0.0,0.0,0.0,0.0,0.0,0.0,0.0,0.0,0.0,0.0,0.0,0.1655,0.1684,0.208,0.2667,0.3345,0.4104,0.5041,0.6115,0.7314,0.6295,0.4992,0.344,0.4173,0.4421,0.4262,0.4921,0.492,0.4404,0.402,0.3137,0.189,0.0536,0.0,0.0,0.0,0.0,0.0,0.0,0.0,0.0,0.0,0.0,0.0,0.0,0.0,0.0,0.3665,0.24,0.0914,0.51,0.0,0.0,0.0,0.0,0.0,0.0,0.0,0.0,0.0,0.0,0.0,0.0,0.0,0.0,0.0,0.0,0.0,0.0,0.0,0.0,0.0,0.0,0.0,0.0,0.0,0.0,0.0,1.6688,1.5476,1.4341,1.4932,1.5253,1.5117,1.4902,1.4241,1.3163,1.3404,1.26,1.0732,1.0634,1.0681,1.089,1.174,1.2389,1.2855,1.2401,1.1836,1.1121,0.9797,0.8861,0.8134,0.7561,0.7067,0.6712,0.6916,0.6743,0.6397,0.0,0.0,0.0,0.0,0.0,0.0,0.0,0.0,0.0,0.0,0.0,0.0,0.0,0.0,0.0,0.0,0.0,0.0,0.0,0.0,0.1547,0.1754,0.1945,0.3003,0.5046,0.6067,0.615,0.5265,0.4358,0.3769,0.3517,0.4448,0.5462,0.6432,0.5392,0.5249,0.5724,0.4351,0.3147,0.2038,0.058,0.0136,0.03,0.0082,0.0,0.0,0.0,0.0,0.0,0.0,0.0,0.0,0.0,0.0,0.1382,0.8391,0.5817,0.1188,0.0,0.0,0.0,0.0,0.0,0.0,0.0,0.0,0.0,0.0,0.0,0.0,0.0,0.0,0.0,0.0,0.0,0.0,0.0,0.0,0.0,0.0,0.0,0.0,0.0,0.0,0.0,0.0,0.0,1.7237,1.4455,1.4839,1.5025,1.4714,1.4714,1.4429,1.3821,1.3404,1.3232,1.3276,1.1474,1.0508,1.0339,1.1638,1.2717,1.3529,1.239,1.1457,1.0639,0.9864,0.9159,0.8463,0.7795,0.7225,0.6774,0.6828,0.665,0.6415,0.0,0.0,0.0,0.0,0.0,0.0,0.0,0.0,0.0,0.0,0.0,0.0,0.0,0.0,0.0,0.0,0.0,0.0,0.0,0.0,0.1273,0.1477,0.2504,0.3451,0.4238,0.4249,0.3467,0.1931,0.4332,0.4549,0.2788,0.516,0.5747,0.4842,0.5513,0.5302,0.4389,0.3816,0.3535,0.3294,0.0939,0.1131,0.2617,0.0722,0.0,0.0,0.0,0.0,0.0,0.0,0.0,0.0,0.0,0.0,0.032,0.1992,0.4129,0.6111,0.0,0.0,0.0,0.0,0.0,0.0,0.0,0.0,0.0,0.0,0.0,0.0,0.0,0.0,0.0,0.0,0.0,0.0,0.0,0.0,0.0,0.0,0.0,0.0,0.0,0.0,0.0,0.0,0.0,1.6951,1.4422,1.4203,1.4105,1.4007,1.4007,1.3941,1.3788,1.3404,1.3506,1.4059,1.3361,1.2292,1.0924,1.1442,1.1839,1.2146,1.1977,1.1457,1.0639,1.0118,0.9408,0.8602,0.793,0.7204,0.655,0.6636,0.6473,0.6261,0.0,0.0,0.0,0.0,0.0,0.0,0.0,0.0,0.0,0.0,0.0,0.0,0.0,0.0,0.0,0.0,0.0,0.0,0.0,0.0961,0.1269,0.1442,0.2579,0.3129,0.2988,0.3805,0.3239,0.124,0.3375,0.4008,0.3255,0.5051,0.5608,0.5126,0.5492,0.5414,0.492,0.3719,0.3349,0.3438,0.2014,0.1619,0.1744,0.0477,0.0,0.0,0.0,0.0,0.0,0.0,0.0,0.0,0.0,0.0,0.0288,0.1725,0.4032,0.6378,0.0,0.0,0.0,0.0,0.0,0.0,0.0,0.0,0.0,0.0,0.0,0.0,0.0,0.0,0.0,0.0,0.0,0.0,0.0,0.0,0.0,0.0,0.0,0.0,0.0,0.0,0.0,0.0,0.0,1.6478,1.3926,1.3607,1.362,1.3788,1.3788,1.3721,1.3506,1.3301,1.3391,1.3762,1.3775,1.34,1.2623,1.2385,1.2334,1.2421,1.2153,1.1468,1.0457,1.0,0.9399,0.8667,0.7833,0.7052,0.6413,0.6387,0.6192,0.5977,0.0,0.0,0.0,0.0,0.0,0.0,0.0,0.0,0.0,0.0,0.0,0.0,0.0,0.0,0.0,0.0,0.0,0.0,0.0,0.0676,0.1185,0.1427,0.2289,0.26,0.222,0.3847,0.3892,0.2243,0.2478,0.3131,0.0,0.4661,0.527,0.5929,0.5523,0.5512,0.5643,0.3672,0.277,0.2638,0.2529,0.169,0.0476,0.0136,0.0,0.0,0.0,0.0,0.0,0.0,0.0,0.0,0.0,0.0,0.0593,0.3612,0.4499,0.5069,0.0,0.0,0.0,0.0,0.0,0.0,0.0,0.0,0.0,0.0,0.0,0.0,0.0,0.0,0.0,0.0,0.0,0.0,0.0,0.0,0.0,0.0,0.0,0.0,0.0,0.0,0.0,0.0,0.0,1.6123,1.3898,1.3328,1.3267,1.3607,1.362,1.3404,1.3012,1.3012,1.3082,1.3198,1.3552,1.3908,1.4273,1.356,1.3137,1.3006,1.2519,1.1579,1.0283,0.9795,0.9262,0.8699,0.7792,0.6959,0.6263,0.6148,0.5911,0.5616,0.0,0.0,0.0,0.0,0.0,0.0,0.0,0.0,0.0,0.0,0.0,0.4648,0.4631,0.1865,0.0,0.0,0.0,0.0,0.0,0.0,0.0,0.1129,0.162,0.2375,0.3447,0.3493,0.3941,0.481,0.3038,0.0,0.0,0.0,0.0,0.5741,0.5911,0.5415,0.4384,0.3155,0.1787,0.0432,0.0404,0.1282,0.2404,0.0658,0.0,0.0,0.0,0.0,0.0,0.0,0.0,0.0,0.0,0.0,0.0,0.0,0.0,0.0,0.0,0.0,0.0,0.0,0.0,0.0,0.0,0.0,0.0,0.0,0.0,0.0,0.0,0.0,0.0,0.0,0.0,0.0,0.0,0.0,0.0,0.0,0.0,0.0,0.0,0.0,0.0,0.0,1.6565,1.6426,1.6095,1.3975,1.278,1.285,1.285,1.2662,1.2258,1.2258,1.2579,1.3198,1.3267,1.3641,1.43,1.39,1.3185,1.2341,1.268,1.1909,1.04,0.9734,0.9199,0.874,0.8062,0.7154,0.6214,0.6186,0.5913,0.5642,0.0,0.0,0.0,0.0,0.0,0.0,0.0,0.0,0.0,0.0,0.0,0.2028,0.2028,0.0804,0.0,0.0,0.0,0.0,0.0,0.0,0.0,0.0469,0.0936,0.1636,0.2567,0.3123,0.3281,0.3002,0.0,0.0,0.0,0.6455,0.6707,0.0,0.0,0.0,0.0,0.0,0.0,0.0,0.0,0.0533,0.135,0.1588,0.0975,0.0,0.0,0.0,0.0,0.0,0.0,0.0,0.0,0.0,0.0,0.0,0.0,0.0,0.0,0.0,0.0,0.0,0.0,0.0,0.0,0.0,0.0,0.0,0.0,0.0,0.0,0.0,0.0,0.0,0.0,0.0,0.0,0.0,0.0,0.0,0.0,0.0,0.0,0.0,0.0,0.0,1.6207,1.6392,1.6132,1.503,1.4454,1.4454,1.4454,1.4361,1.4187,1.3214,1.2978,1.3539,1.3301,1.3369,1.3695,1.3741,1.3663,1.3373,1.3028,1.2318,1.133,1.0312,0.9408,0.8643,0.8021,0.7189,0.63,0.5832,0.5433,0.5236,0.0,0.0,0.0,0.0,0.0,0.0,0.0,0.0,0.0,0.0,0.0,0.0,0.0049,0.0,0.0,0.0,0.0,0.0,0.0,0.0,0.0,0.0,0.0,0.0852,0.1379,0.2462,0.2318,0.0894,0.0,0.0,0.3807,0.7965,0.8912,0.0,0.5125,0.4345,0.0,0.0,0.0,0.0,0.0,0.0,0.0305,0.3117,0.2443,0.0,0.0,0.0,0.0,0.0,0.0,0.0,0.0,0.0,0.0,0.0,0.0,0.0,0.0,0.0,0.0,0.0,0.0,0.0,0.0,0.0,0.0,0.0,0.0,0.0,0.0,0.0,0.0,0.0,0.0,0.0,0.0,0.0,0.0,0.0,0.0,0.0,0.0,0.0,0.0,0.0,1.5768,1.6032,1.5792,1.5792,1.5792,1.5792,1.5792,1.5792,1.5792,1.3999,1.3232,1.3506,1.3301,1.3198,1.3198,1.362,1.404,1.4351,1.3412,1.265,1.2004,1.0697,0.9576,0.8578,0.7979,0.7224,0.6373,0.5674,0.5235,0.5101,0.0,0.0,0.0,0.0,0.0,0.0,0.0,0.0,0.0,0.0,0.0,0.0,0.0176,0.0,0.0,0.0,0.0,0.0,0.0,0.0,0.0,0.0,0.0,0.0,0.0552,0.1312,0.1161,0.0,0.0,0.0,0.2511,0.7916,1.0922,1.1546,0.7054,0.4183,0.2714,0.0,0.0,0.0,0.0,0.0,0.0547,0.5557,0.4355,0.0,0.0,0.0,0.0,0.0,0.0,0.0,0.0,0.0,0.0,0.0,0.0,0.0,0.0,0.0,0.0,0.0,0.0,0.0,0.0,0.0,0.0,0.0,0.0,0.0,0.0,0.0,0.0,0.0,0.0,0.0,0.0,0.0,0.0,0.0,0.0,0.0,0.0,0.0,0.0,0.0,1.5153,1.5379,1.5792,1.5792,1.5792,1.5792,1.5792,1.5792,1.5792,1.377,1.2745,1.2745,1.306,1.3198,1.3198,1.362,1.417,1.47,1.3661,1.2768,1.1957,1.04,0.9355,0.8732,0.8118,0.7231,0.6289,0.605,0.5736,0.5441,0.0,0.0,0.0,0.0,0.0,0.0,0.0,0.0,0.0,0.0,0.0,0.0,0.0,0.0674,0.0,0.0,0.0,0.0,0.0,0.0,0.0,0.0,0.0,0.0,0.0,0.044,0.0,0.0,0.0,0.381,0.5272,0.881,1.0726,1.0864,0.6743,0.6026,0.7878,0.7339,0.0,0.0,0.0,0.0,0.0,0.6995,0.7555,0.7207,0.0,0.0,0.0,0.0,0.0,0.0,0.0,0.2274,0.0,0.0,0.0,0.0,0.0,0.0,0.0,0.0,0.0,0.0,0.0,0.0,0.0,0.0,0.0,0.0,0.0,0.0,0.0,0.0,0.0,0.0,0.0,0.0,0.0,0.0,0.0,0.0,0.0,0.0,0.0,0.0,0.0,1.5289,1.5792,1.5792,1.5792,1.5792,1.5792,1.5272,1.4123,1.3168,1.2709,1.2709,1.3527,1.3661,1.3198,1.3129,1.322,1.3412,1.2779,1.233,1.1957,1.0361,0.9234,0.8496,0.7961,0.7496,0.6992,0.6136,0.563,0.5366,0.0,0.0,0.0,0.0,0.0,0.0,0.0,0.0,0.0,0.489,0.0,0.0,0.0,0.0,0.0635,0.0049,0.0,0.0,0.0,0.0,0.0,0.0,0.0,0.0,0.0,0.0,0.0,0.0,0.0,0.0,0.0,0.7694,0.9036,0.9708,0.7432,0.7048,0.0,0.0,0.0,0.0918,0.0,0.0,0.7793,0.0,0.9635,0.0,0.0,0.0,0.0,0.0,0.0,0.0,0.0,0.2288,0.0,0.0,0.0,0.0,0.0,0.0,0.0,0.0,0.0,0.0,0.0,0.0,0.0,0.0,0.0,0.0,0.0,0.0,0.0,0.0,0.0,0.0,0.0,0.0,0.0,0.0,0.0,0.0,0.0,0.0,0.0,0.0,0.0,0.0,1.6262,1.6262,1.6132,1.5792,1.5659,1.5024,1.3859,1.3059,1.2815,1.3094,1.3661,1.3661,1.3198,1.285,1.2709,1.2674,1.2258,1.2113,1.1957,1.0186,0.9024,0.8373,0.8044,0.7761,0.7384,0.6483,0.5836,0.5474,0.0,0.0,0.0,0.0,0.0,0.0,0.0,0.0,0.5076,0.5003,0.0,0.0,0.0,0.0,0.0,0.0159,0.0,0.0,0.0,0.0,0.0,0.0,0.0,0.0,0.0,0.0,0.0,0.0,0.0,0.0,0.0,0.0,0.5979,0.8309,0.9126,0.6983,0.2946,0.0,0.5271,0.2908,0.0,0.5048,0.8,0.0,0.0,0.0,1.25,1.3954,0.0,0.0,0.0,0.0,0.0,0.2251,0.0,0.0,0.0,0.0,0.0,0.0,0.0,0.0,0.0,0.0,0.0,0.0,0.0,0.0,0.0,0.0,0.0,0.0,0.0,0.0,0.0,0.0,0.0,0.0,0.0,0.0,0.0,0.0,0.0,0.0,0.0,0.0,1.6693,1.7199,1.7199,1.7199,1.6697,1.5696,1.5252,1.5016,1.5016,1.3465,1.306,1.3754,1.3369,1.3198,1.3163,1.2815,1.2674,1.2674,1.2258,1.2077,1.192,0.9864,0.8781,0.8414,0.8414,0.8044,0.7468,0.7112,0.6513,0.5826,0.0,0.0,0.0,0.0,0.0,0.721,0.8126,0.6474,0.5077,0.0,0.0,0.0,0.3847,0.3644,0.2589,0.0204,0.0,0.0,0.0,0.0,0.0,0.0,0.0,0.0,0.0,0.0,0.0,0.0,0.0,0.068,0.1987,0.2417,0.3541,0.5216,0.66,0.6094,0.4318,0.5817,0.0,0.0,0.514,0.5958,0.0,0.0,0.0,0.0,0.0,1.223,0.0,0.0,0.7622,0.5548,0.0,0.0,0.0,0.0,0.0,0.0,0.2251,0.0,0.0,0.0,0.0,0.0,0.0,0.0,0.0,0.0,0.0,0.0,0.0,0.0,0.0,0.0,0.0,0.0,0.0,0.0,0.0,0.0,0.0,0.0,0.0,0.0,0.0,0.0,1.7031,1.7199,1.7199,1.6863,1.5616,1.3193,1.2993,1.2915,1.2915,1.2475,1.2508,1.3025,1.3129,1.2908,1.2401,1.2027,1.2136,1.2674,1.2258,1.1748,1.1174,1.0312,0.9328,0.8414,0.8414,0.8085,0.7587,0.7154,0.6852,0.6636,0.0,0.0,0.0,0.5562,0.6239,0.703,0.802,0.7429,0.6417,0.0,0.0,0.0,0.4207,0.4056,0.3453,0.2125,0.0781,0.0,0.0,0.0,0.0,0.0,0.0,0.0,0.0,0.0,0.0,0.0,0.0,0.028,0.0829,0.1379,0.2181,0.3219,0.4914,0.4983,0.3899,0.0,0.0,0.0,0.8049,0.0,0.0,0.9932,1.1381,0.0,0.0,0.0,1.4111,1.2945,1.002,0.0,0.0,0.0,0.0,0.0,0.0,0.0,0.0,0.0,0.0,0.0,0.0,0.0,0.0,1.2045,0.0,0.0,0.0,0.0,0.0,0.0,0.0,0.0,0.0,0.0,0.0,0.0,0.0,0.0,0.0,0.0,0.0,1.7666,1.7406,1.7199,1.7199,1.7115,1.6905,1.665,1.5168,1.2171,1.2113,1.2113,1.2113,1.2113,1.2294,1.2709,1.2733,1.2508,1.2077,1.1697,1.1782,1.2209,1.1943,1.1511,1.0891,1.0487,0.9843,0.9168,0.9024,0.8414,0.7628,0.7154,0.707,0.7081,0.0,0.0,0.5663,0.5195,0.5722,0.6491,0.7317,0.8469,0.8379,0.0,0.5072,0.4559,0.4316,0.4343,0.4488,0.4742,0.2157,0.0365,0.0017,0.0,0.0,0.0,0.0,0.0,0.0,0.0,0.0,0.0,0.0,0.0,0.0016,0.0856,0.1526,0.2103,0.3851,0.3827,0.2605,0.0,0.0,0.6372,1.0673,1.1125,0.0,0.0,1.245,0.0,1.4638,1.5564,1.5464,1.4846,1.133,0.0,0.0,0.0,0.0,0.0,0.1641,0.0,0.0,0.0,0.0,0.0,0.0,0.0,0.6156,1.0199,1.2805,0.0,0.0,0.0,0.0,0.0,0.0,0.0,0.0,0.0,0.0,0.0,0.0,0.0,0.0,0.0,1.803,1.7922,1.772,1.7323,1.7323,1.704,1.6283,1.6283,1.5002,1.2207,1.2113,1.2113,1.2113,1.2004,1.2161,1.2567,1.2258,1.2113,1.2077,1.1697,1.1485,1.1485,1.1448,1.1223,1.0881,1.0592,1.0428,1.0244,0.9872,0.8984,0.7878,0.7405,0.7286,0.7405,0.0,0.5867,0.5068,0.4697,0.4857,0.5355,0.6324,0.7818,0.8913,0.9172,0.6751,0.4806,0.4283,0.5401,0.5758,0.4659,0.3985,0.259,0.0156,0.0,0.0,0.0,0.0,0.0,0.0,0.0,0.0,0.0,0.0,0.0,0.0005,0.0188,0.0725,0.1592,0.2979,0.3294,0.2926,0.0,0.0,0.6212,0.852,0.0,1.2681,1.3258,1.3356,1.3271,1.3814,1.4001,1.3746,0.0,1.0615,0.8724,0.0,0.0,0.0,0.0,0.0,0.2858,0.0,0.0,0.0,0.0,0.0,0.0,0.3859,0.9836,1.5145,0.0,0.0,0.0,0.0,0.0,0.0,0.0,0.0,0.0,0.0,0.0,0.0,0.0,0.0,0.0,1.8542,1.8083,1.7882,1.7747,1.8069,1.7219,1.4847,1.474,1.3928,1.2161,1.2113,1.2113,1.2113,1.1463,1.1325,1.1734,1.1968,1.2113,1.2077,1.1697,1.1485,1.1485,1.1147,1.0957,1.0919,1.1527,1.118,1.0244,0.9872,0.9554,0.9266,0.8773,0.8447,0.8112,0.0,0.6434,0.5333,0.4834,0.4545,0.48,0.5983,0.7431,0.8156,0.7444,0.5812,0.4576,0.4233,0.4949,0.52,0.4554,0.4375,0.376,0.2472,0.089,0.0,0.0,0.0,0.0,0.0,0.0,0.0,0.0,0.0,0.0,0.0,0.0,0.0253,0.0787,0.2737,0.3509,0.0,0.0,0.6781,0.8535,0.9393,0.0,1.4493,1.4493,1.3799,1.291,1.338,1.3138,1.2289,1.0565,0.9751,0.0,0.0,0.5568,0.4684,0.0,0.5127,0.4923,0.0,0.0,0.0,0.437,0.0,0.0,0.0,0.0,1.0849,1.09,0.0,0.0,0.0,0.0,0.0,0.0,0.0,0.0,0.0,0.0,0.0,0.0,0.0,0.0,2.002,1.8907,1.8202,1.8202,1.84,1.7894,1.647,1.5039,1.3782,1.2685,1.265,1.2365,1.1808,1.14,1.1298,1.1485,1.1906,1.1895,1.1501,1.1287,1.1185,1.1238,1.2212,1.2195,1.1538,1.1932,1.1638,1.086,1.0679,1.0225,0.9634,0.9185,0.8854,0.861,0.0,0.7176,0.6008,0.5146,0.4542,0.452,0.555,0.6866,0.6899,0.4551,0.4337,0.4355,0.4224,0.4138,0.4436,0.5304,0.4662,0.4356,0.4742,0.238,0.0802,0.0419,0.0468,0.0349,0.0,0.0,0.0,0.0,0.0,0.0,0.0,0.0,0.0,0.0119,0.2917,0.0,0.0,0.0,0.0,0.9797,0.0,1.2633,1.5186,1.4932,1.3774,1.2246,1.2685,1.2226,1.1221,0.9976,0.0,0.927,0.7794,0.7173,0.0,0.0,0.0,0.0,0.0,0.0,0.0,0.0,0.0,0.3973,0.0,0.0,0.0,0.536,0.0,0.0,0.0,0.0,0.0,0.0,0.0,0.0,0.0,0.0,0.0,0.0,0.0,0.0,2.1423,1.9654,1.8556,1.8736,1.8595,1.8345,1.8016,1.5688,1.4059,1.3335,1.3301,1.2733,1.1522,1.1485,1.1485,1.1485,1.176,1.1538,1.0891,1.0891,1.0891,1.1023,1.3367,1.3706,1.2514,1.2238,1.187,1.1485,1.1485,1.0881,0.9872,0.9506,0.9217,0.8854,0.8685,0.777,0.6813,0.5195,0.466,0.4422,0.4347,0.5514,0.5681,0.3622,0.4158,0.4628,0.4328,0.0,0.0,0.0,0.0,0.0,0.4612,0.0,0.3653,0.1934,0.2151,0.1571,0.0039,0.0,0.0,0.0,0.0,0.0,0.0,0.0,0.0,0.0149,0.3603,0.0,0.0,0.0,0.5157,0.0,0.9447,1.2373,0.0,1.3346,1.2761,1.2356,1.1076,1.0703,1.0979,0.0,1.1427,1.0937,0.0,1.0569,1.1023,0.0,0.0,0.0,0.0,0.0,0.0,0.0,0.5646,0.0,0.0,0.0,0.3492,0.3148,0.0,0.0,0.0,0.0,0.0,0.0,0.0,0.0,0.0,0.0,0.0,0.0,0.0,0.0,0.0,1.9654,1.8812,1.9508,1.8912,1.7805,1.6188,1.5229,1.4415,1.3754,1.3721,1.3012,1.1522,1.1485,1.1485,1.1485,1.1185,1.0995,1.0891,1.0891,1.0891,1.1023,1.3367,1.4299,1.4049,1.2657,1.187,1.1485,1.1485,1.1185,1.0766,1.069,0.9971,0.8854,0.8909,0.7553,0.0,0.5627,0.5098,0.4931,0.5308,0.61,0.6101,0.4516,0.4054,0.4102,0.0,0.0,0.0,0.0,0.0,0.5245,0.0,0.0,0.4538,0.3871,0.3643,0.3344,0.2972,0.1011,0.0,0.0,0.0,0.0,0.0,0.0,0.0,0.0116,0.2782,0.0,0.4719,0.0,0.0,0.0,0.0,0.0,0.0,1.1822,1.1548,1.1312,1.0337,1.0132,1.029,0.0,1.0478,0.0,0.0,0.0,0.0,0.0,0.0,0.0,0.0,0.0,0.0,0.0,0.0,0.0,0.3355,0.0,0.321,0.0,0.0,0.0,0.0,0.0,0.0,0.0,0.0,0.0,0.0,0.0,0.0,0.0,0.0,0.0,0.0,0.0,0.0,0.0,1.7155,1.7712,1.5919,1.5163,1.4683,1.4397,1.4007,1.267,1.0355,1.0355,1.0609,1.1147,1.0968,1.0891,1.0891,1.0891,1.0891,1.1023,1.3367,1.4373,1.4277,1.276,1.187,1.1597,1.2484,1.233,1.1575,1.1335,1.0592,0.9607,0.9472,0.0,0.0,0.0,0.5971,0.5728,0.5795,0.6174,0.5869,0.4212,0.0,0.0,0.4486,0.4012,0.0,0.0,0.0,0.5763,0.0,0.0,0.4922,0.4979,0.4445,0.0,0.0,0.2589,0.0933,0.0,0.0,0.0,0.0002,0.0075,0.0229,0.0498,0.1788,0.3208,0.4648,0.0,0.0,0.3686,0.781,0.9861,1.0481,1.0832,1.0733,1.0337,1.0036,0.9922,0.9849,0.9475,0.9786,0.0,0.8035,0.0,0.0,0.0,0.0,0.0,0.9465,0.0,0.0,0.0,0.0,0.0,0.0,0.0,0.0,0.0,0.0,0.0,0.0,0.0,0.0,0.0,0.0,0.0,0.0,0.0,0.0,0.0,0.0,0.0,0.0,0.0,0.0,0.0,0.0,1.6984,1.5874,1.5344,1.5072,1.5072,1.3772,1.1994,0.9735,0.9485,0.9727,1.0421,1.0756,1.1033,1.1212,1.0995,1.0891,1.1023,1.3367,1.4373,1.4277,1.276,1.1979,1.1954,1.3288,1.322,1.233,1.1833,1.1164,1.0322,1.0513,0.9889,0.0,0.0,0.0,0.6845,0.4868,0.4855,0.4138,0.0,0.0,0.0,0.0,0.0,0.0,0.0,0.0,0.593,0.6212,0.0,0.5189,0.0,0.0,0.4082,0.0,0.0,0.3324,0.0,0.0,0.0,0.0006,0.0267,0.0805,0.1526,0.1019,0.1582,0.301,0.3461,0.1783,-0.0809,0.3531,0.6681,0.8917,0.0,1.0633,0.9954,0.9911,0.0,0.0,0.9846,1.0439,0.0,0.0,0.0,0.0,0.0,0.0,0.0,0.0,0.0,0.0,1.1648,0.0,0.0,0.0,0.0,0.368,0.0,0.0,0.0,0.0,0.0,0.0,0.6778,0.0,0.0,0.0,0.0,0.0,0.0,0.0,0.0,0.0,0.0,1.6556,0.0,1.3615,1.5188,1.577,1.577,1.577,1.577,1.2798,1.0883,1.0287,0.9511,0.9127,0.9179,1.035,1.1325,1.2041,1.125,1.0891,1.1023,1.3367,1.4373,1.4277,1.276,1.233,1.2745,1.3506,1.3552,1.3094,1.2365,1.1575,1.0805,0.0,0.0,0.0,0.0,0.0,0.8326,0.633,0.514,0.0,0.0,0.0,0.0,0.0,0.0,0.3067,0.0,0.0,0.6412,0.6862,0.6159,0.0,0.0,0.0,0.4168,0.0,0.0,0.0,0.0,0.0,0.0,0.0002,0.0093,0.0117,0.0058,-0.0462,-0.0048,0.0,0.0,0.0,0.0,0.0,0.6323,0.8093,0.0,0.0,0.9922,0.9922,0.9223,0.0,0.9559,1.0067,1.0138,0.8942,0.8581,0.8568,0.8269,0.8221,0.0,0.0,0.0,0.9718,1.0277,0.0,0.0,0.0,0.0,0.0,0.0,0.0,0.0,0.0,0.0,0.7571,0.7952,0.7395,0.0,0.0,0.0,0.0,0.0,0.0,0.0,0.0,0.0,0.0,0.0,1.3955,0.0,1.5799,1.5799,1.5799,1.5799,1.2737,1.0825,1.0299,0.9854,0.9446,0.9115,1.0329,1.1314,1.2077,1.1287,1.0891,1.1023,1.3367,1.4373,1.4277,1.276,1.3329,1.5054,1.3617,1.299,1.2815,1.2294,1.1612,1.0805,1.4068,0.0,0.0,0.0,0.0,0.0,0.0,0.0,0.0,0.0,0.2709,0.0,0.2555,0.0,0.3265,0.0,0.4975,0.5528,0.5771,0.584,0.0,0.4409,0.4352,0.0,0.0,0.0,0.0,0.0,0.0,0.0,0.0,0.0,-0.0224,0.0,0.0,-0.0809,-0.0392,0.0,0.1297,0.0,0.0,0.5451,0.0,0.0,0.8476,0.8697,0.0,0.8398,0.7673,0.8714,0.9344,0.9667,0.936,0.9215,0.9214,0.8949,0.8858,0.9413,1.195,1.1659,0.0,1.0903,0.8158,0.0,0.4226,0.0,0.0,0.0,0.0,0.0,0.0,0.0,0.0,0.8572,0.7467,0.0,0.0,0.0,0.0,0.0,0.0,0.0,0.0,0.0,1.002,1.2175,1.448,0.0,0.0,1.5205,1.528,1.4166,1.2177,1.0825,1.0299,0.984,0.9446,0.9115,1.0329,1.1314,1.2077,1.1575,1.125,1.121,1.3029,1.4005,1.4367,1.3889,1.4776,1.6253,1.3679,1.2709,1.2674,1.2413,1.1895,1.1164,0.0,0.0,0.0,0.0,1.228,0.0,0.0,0.0,0.6486,0.0,0.2432,0.188,0.2823,0.2912,0.3265,0.414,0.3796,0.0,0.3136,0.4757,0.0,0.0,0.3808,0.3672,0.4092,0.0,0.0,0.0,0.0,0.0,0.0,0.0,0.0,0.0,-0.0321,0.0,-0.1343,-0.0418,0.036,0.121,0.2621,0.4095,0.5428,0.5428,0.5822,0.6548,0.7265,0.7521,0.7521,0.7587,0.8501,0.9676,1.0371,1.0624,1.0624,1.0688,1.0688,1.0996,1.2313,1.2683,1.2858,1.345,1.1744,0.0,0.0,0.0,0.7895,0.0,0.0,0.0,0.0,0.0,0.0,0.8464,0.7024,0.0,0.0,0.0,0.0,0.0,0.0,0.0,0.0,0.0,0.8358,1.2951,1.4698,0.0,0.0,1.3935,1.4227,1.1314,1.1108,1.0777,1.0287,0.9511,0.9138,0.9209,1.0337,1.1314,1.2113,1.2113,1.1906,1.1597,1.2389,1.3356,1.4558,1.5901,1.6479,1.6266,1.3876,1.2937,1.289,1.2745,1.2449,1.1906,1.7383,1.7218,1.6781,0.0,1.4415,1.2762,0.0,0.0,0.0,0.0,0.3991,0.352,0.3445,0.309,0.3001,0.322,0.2821,0.0,0.0,0.0,0.0,0.3226,0.2984,0.2838,0.2649,0.267,0.0,0.3114,0.0,0.0,0.0,0.0,0.0,0.0,0.0,0.0,-0.1184,-0.1068,-0.0221,0.121,0.2621,0.4095,0.0,0.0,0.6148,0.7265,0.7456,0.7521,0.7652,0.863,0.96,1.0371,1.0561,1.0624,1.0814,1.1809,1.2065,1.2243,1.3025,1.3983,1.4697,1.4874,1.4783,1.4459,0.0,0.0,0.0,0.0,0.0,0.0,0.0,0.0,0.0,0.0,0.0,0.0,0.0,0.0,0.0,0.0,0.0,0.0,0.0,0.0,0.8054,0.6559,0.9905,0.0,0.0,0.0,1.2535,1.3107,1.1022,0.984,0.9696,0.9485,0.975,1.0439,1.0739,1.1314,1.2113,1.2113,1.2197,1.2377,1.2603,1.376,1.548,1.5824,1.6175,1.6459,1.6181,1.6031,1.5747,1.319,1.2186,1.2136,1.8373,0.0,0.0,1.6216,0.0,0.0,1.1908,0.0,0.0,0.7322,0.6188,0.0,0.4016,0.3258,0.2841,0.2893,0.2301,0.0,0.1426,0.0,0.0,0.1771,0.1742,0.1575,0.1174,0.1432,0.0,0.1018,0.0,0.0,-0.0012,0.0,0.0,0.0,0.0,-0.0963,0.0,-0.0876,-0.0059,0.121,0.2621,0.0,0.0,0.5428,0.628,0.7521,0.7521,0.7521,0.7717,0.9022,0.9989,1.0624,1.0624,1.0996,1.1685,1.2666,1.3224,1.3657,1.4529,1.5294,1.5836,1.5836,1.6306,1.6931,1.7412,1.459,1.1962,0.0,1.3993,1.4323,0.0,0.0,0.0,0.0,0.0,0.0,0.0,0.0,0.0,0.0,0.0,0.0,0.0,0.0,0.0,0.0,0.0,0.0,0.0,0.0,1.1936,1.3742,1.0999,0.9497,0.9497,0.939,0.995,1.1147,1.0995,1.1314,1.2113,1.2437,1.2627,1.2758,1.4088,1.5097,1.5836,1.6262,1.6693,1.7115,1.7199,1.7199,1.6959,1.5064,1.4216,1.403,0.0,0.0,0.0,0.0,0.0,0.0,0.0,1.1362,0.0,0.989,0.0,0.6603,0.4517,0.3339,0.2746,0.2865,0.0,0.17,0.1508,0.1433,0.1131,0.0566,0.0351,0.007,-0.0281,-0.0408,0.0,0.0,0.0,0.0,-0.0028,0.0,0.0,0.0,0.0,0.0,0.0,-0.0345,0.0399,0.121,0.2621,0.4095,0.5428,0.5428,0.628,0.7521,0.7521,0.7521,0.7717,0.9022,0.9989,1.0624,1.0624,1.1498,1.2683,1.3216,1.395,1.4862,1.5972,1.6374,1.6488,1.6488,1.6885,1.7545,1.856,1.803,1.7445,1.7975,1.6132,1.3871,0.0,0.0,0.0,0.0,0.0,0.0,0.0,0.0,0.0,0.0,0.0,0.0,0.0,0.0,0.0,0.0,0.0,0.0,0.0,0.0,1.1747,1.3393,1.1153,0.9773,0.9497,0.9271,0.995,1.1485,1.1185,1.1426,1.215,1.2873,1.3221,1.3435,1.6044,1.6735,1.6057,1.6863,1.7502,1.7922,1.7529,1.7365,1.7404,1.7581,1.7385,1.6867,0.0,0.0,0.0,0.0,0.0,1.5544,1.5022,1.1556,0.9223,0.9829,0.9603,0.8089,0.4658,0.3339,0.2723,0.2724,0.268,0.0,0.0,0.0,0.0,0.0688,-0.0429,-0.1285,-0.1801,-0.2634,-0.3014,0.0,0.0,0.0,-0.0022,-0.0931,0.0,0.0,0.0,0.0,-0.1627,-0.0451,0.0,0.121,0.2621,0.4095,0.5428,0.5428,0.628,0.7521,0.7521,0.7521,0.7717,0.9022,0.9989,1.0624,1.0624,1.1498,1.2621,1.2744,1.3932,1.5303,1.5536,1.6353,1.7166,1.7166,1.7222,1.7334,1.7545,1.7434,1.7445,1.7975,1.6132,1.4321,1.3936,0.0,0.0,0.0,0.0,0.0,0.0,0.0,0.0,0.0,0.0,0.0,0.0,0.0,0.0,0.0,0.0,0.0,0.0,0.0,1.0784,0.0,1.1938,0.0,0.0,0.0,1.0133,1.1485,1.176,1.1968,1.215,1.2873,1.4372,1.6449,1.6974,1.7115,1.6989,1.7115,1.7652,1.84,1.8307,1.8268,1.8437,1.9622,2.0048,1.9533,0.0,0.0,0.0,0.0,0.0,0.0,0.0,1.1608,0.0,0.8773,0.7948,0.6565,0.4526,0.3845,0.3021,0.1773,0.1494,0.121,0.0718,0.0448,0.009,-0.0359,-0.1031,0.0,-0.2692,-0.2959,-0.3124,-0.3208,0.0,-0.1009,-0.0021,-0.0967,0.0,0.0,0.0,-0.1462,0.0,0.0,0.0,0.2218,0.2956,0.4095,0.5428,0.5428,0.628,0.7521,0.7521,0.7521,0.7717,0.9022,0.9734,1.0117,1.0498,1.1498,1.2683,1.2972,1.3941,1.502,1.5303,1.6343,1.7278,1.7278,1.7278,1.7278,1.7278,1.7278,1.7445,1.7975,1.6674,1.5502,1.5813,1.0782,0.0,0.0,0.0,0.0,0.0,0.0,0.0,0.0,0.0,0.0,0.0,0.0,0.0,0.0,0.0,0.0,0.0,0.0,1.0849,0.0,0.0,0.0,1.1159,0.0,1.1566,1.2377,1.2413,1.252,1.2685,1.306,1.4809,1.7584,1.7774,1.7855,1.7895,1.8121,1.8333,1.8517,1.8517,1.8517,1.8693,2.018,2.0699,2.0273,0.0,1.3032,0.0,0.0,1.1844,0.0,1.3156,1.0351,0.805,0.7947,0.6139,0.4737,0.4391,0.3868,0.2763,0.0854,0.027,-0.0135,-0.0539,-0.0629,-0.0898,-0.1389,-0.1389,-0.1853,-0.2856,-0.257,-0.2512,0.0,0.0,0.0,-0.0315,-0.1033,-0.1373,0.0,0.0,0.0,0.0,0.0,0.1882,0.3226,0.3226,0.4095,0.5428,0.5428,0.628,0.7521,0.7521,0.7521,0.7717,0.9022,0.9484,0.9612,1.0371,1.1498,1.2744,1.3329,1.3881,1.4437,1.501,1.6056,1.692,1.692,1.6818,1.6694,1.6694,1.6818,1.7151,1.8124,1.7483,1.6938,1.7468,1.3011,0.0,0.0,0.0,0.0,0.0,0.0,0.0,0.0,0.0,0.0,0.0,0.0,0.0,0.0,0.0,0.0,0.6908,0.9818,1.1215,0.0,0.0,1.1861,1.3126,0.0,1.306,1.3335,1.3116,1.333,1.3899,1.4116,1.5562,1.7922,1.8321,1.8556,1.8659,1.895,1.8912,1.862,1.8517,1.8517,1.8693,2.018,2.0848,2.0682,0.0,0.0,0.0,0.0,0.0,0.0,0.7396,0.625,0.6347,0.8443,0.6144,0.4384,0.4481,0.2437,0.0943,0.0719,0.027,0.0,-0.0045,-0.045,-0.0898,-0.1389,-0.1389,-0.1526,-0.1749,-0.2003,-0.1809,0.0,0.0,0.0,0.0,-0.0816,-0.0601,0.0,0.0,0.0,0.0,0.0727,0.1882,0.3226,0.3226,0.4095,0.5428,0.5428,0.628,0.7521,0.7521,0.7521,0.7717,0.9022,0.9484,0.9612,1.0371,1.1498,1.2744,1.3329,1.3571,1.3761,1.4378,1.5079,1.5584,1.5584,1.5196,1.4743,1.4743,1.5196,1.6208,1.8539,1.8469,1.8135,1.8722,1.8307,1.5574,0.0,0.0,0.0,0.0,0.0,0.0,0.0,0.0,0.0,0.0,0.0,0.0,0.0,0.0,0.0,0.6908,0.9818,1.1466,1.1399,1.3333,1.4446,1.4606,1.4007,1.3721,1.3754,1.4026,1.4846,1.6208,1.7089,1.7625,1.7922,1.8321,1.8697,1.9064,1.9064,1.9064,1.8988,1.862,1.8517,1.8693,2.018,2.1277,2.1955,0.0,0.0,0.0,0.0,0.0,0.0,0.0,0.5674,0.5924,0.6646,0.5407,0.4299,0.3999,0.2078,0.0826,0.0826,0.031,0.0,0.0,0.0331,0.0493,0.0268,0.0,-0.0206,-0.0337,-0.067,-0.0683,0.0,0.0,0.0,0.0,0.0,-0.0159,0.0,0.0,-0.041,0.0059,0.0777,0.1882,0.3293,0.4161,0.4894,0.5428,0.5428,0.628,0.7521,0.7521,0.7521,0.7717,0.9022,0.9484,0.9548,0.9862,1.1178,1.2621,1.292,1.3216,1.3631,1.4327,1.4684,1.4852,1.4852,1.4684,1.4641,1.5151,1.5486,1.6309,1.8645,1.8589,1.8193,1.841,1.9469,1.9223,1.5928,0.0,0.0,0.0,0.0,0.0,0.0,0.0,0.0,0.0,0.0,0.0,0.0,0.0,0.0,0.0,1.02,0.0,1.2096,0.0,1.3731,1.4794,1.4935,1.4811,1.4397,1.4332,1.5626,1.8054,1.8436,1.8503,1.8282,1.8439,1.9589,2.1367,2.1367,2.1367,2.1207,1.9516,1.8697,1.8733,2.0818,2.1841,2.2184,0.8073,0.0,0.916,0.0,0.8701,0.8955,0.6276,0.5789,0.5693,0.5428,0.4869,0.4259,0.3854,0.2075,0.0877,0.0675,0.0224,0.0168,0.0505,0.1078,0.1612,0.2014,0.1614,0.0,0.1146,0.0804,0.0538,0.0403,0.0391,0.0,0.0,0.0,0.0,0.0,0.0215,0.0499,0.0337,0.0875,0.1882,0.336,0.4827,0.5428,0.5428,0.5428,0.628,0.7521,0.7521,0.7521,0.7717,0.9022,0.9484,0.9667,1.0441,1.1664,1.2835,1.2617,1.292,1.3398,1.4019,1.4327,1.4387,1.3778,1.3924,1.4349,1.499,1.5443,1.6421,1.8664,1.8728,1.8505,1.892,2.0194,2.09,1.9935,0.0,0.0,0.0,0.0,0.0,0.0,0.0,0.8898,0.8312,0.0,0.0,0.0,0.0,0.0,0.0,0.0,0.0,0.0,0.0,0.0,1.5088,1.5551,1.5551,1.5086,1.5492,1.6895,1.9101,1.9101,1.8889,1.8517,1.8517,2.0172,2.2888,2.2888,2.2888,2.2714,2.0584,1.9708,1.981,2.1538,2.2184,2.2231,0.7503,0.7549,0.7617,0.7084,0.7287,0.7384,0.6916,0.6034,0.5428,0.5428,0.4758,0.4292,0.4292,0.2414,0.0834,0.0057,0.0,0.0505,0.1685,0.1521,0.2059,0.0,0.0,0.2806,0.266,0.2281,0.1854,0.1388,0.0,0.0,0.1082,0.0,0.0437,0.0056,0.153,0.1747,0.1076,0.1076,0.1882,0.336,0.4827,0.5428,0.5428,0.5428,0.628,0.7521,0.7521,0.7521,0.7717,0.9022,0.9484,0.999,1.2643,1.347,1.3364,1.2774,1.2629,1.2744,1.3338,1.401,1.4019,1.2112,1.2586,1.3477,1.3564,1.4721,1.6421,1.8664,1.9121,1.9497,2.0933,2.121,2.0132,1.6985,0.0,0.0,0.0,0.0,0.0,0.0,0.9797,0.9054,1.1213,0.0,0.0,0.0,0.0,0.0,0.0,0.0,0.0,1.242,1.2495,0.0,1.5784,1.5799,1.5799,1.58,1.7992,1.9072,1.9101,1.9101,1.8889,1.8517,1.8517,2.0172,2.2888,2.2888,2.2888,2.2797,2.1766,2.1704,2.2142,2.217,2.2184,2.2278,0.7455,0.7428,0.7453,0.7602,0.7414,0.6969,0.6044,0.5996,0.5596,0.4531,0.4739,0.4831,0.4367,0.3694,0.3394,0.0,0.2516,0.2017,0.0,0.3026,0.3609,0.4056,0.484,0.4819,0.3808,0.3658,0.3622,0.3714,0.0,0.0,0.0,0.0431,0.0678,0.1531,0.1986,0.2218,0.2149,0.1412,0.1882,0.336,0.4827,0.5428,0.5428,0.5428,0.628,0.7521,0.7521,0.7521,0.7805,0.9875,1.061,1.0742,1.1598,1.2599,1.3484,1.3282,1.3569,1.37,1.2554,1.2983,1.3707,1.3016,1.3192,1.3492,1.3492,1.4721,1.6421,1.8664,1.9075,1.8887,1.8055,1.7949,1.7984,1.8228,1.7529,0.0,0.0,0.0,0.0,0.0,0.8912,0.9097,0.0,1.0902,0.0,0.0,0.0,0.0,0.0,0.0,0.0,0.0,1.5055,0.0,1.9186,1.9217,1.9217,1.9201,1.9703,1.9904,1.9904,1.9654,1.9288,1.8912,1.8912,2.0593,2.3392,2.3392,2.2994,2.2417,2.2417,2.2509,2.2661,2.2661,2.4022,2.5914,0.7541,0.7395,0.739,0.7833,0.7332,0.6402,0.4904,0.5238,0.5249,0.4259,0.4217,0.4284,0.4319,0.414,0.0,0.5559,0.4732,0.3929,0.3319,0.4554,0.5265,0.5101,0.5933,0.5866,0.469,0.4441,0.0,0.4388,0.342,0.2192,0.0739,0.0227,0.0502,0.1414,0.2085,0.2487,0.2686,0.2216,0.2351,0.2958,0.4694,0.5428,0.5428,0.5428,0.628,0.7521,0.7521,0.7521,0.7849,0.9952,1.0663,1.0663,1.1037,1.1781,1.2746,1.3346,1.363,1.3517,1.2571,1.218,1.2115,1.249,1.3046,1.3492,1.3492,1.4433,1.6053,1.8586,1.9075,1.8723,1.7595,1.7388,1.7761,1.8889,1.7554,1.5577,1.3224,0.0,0.0,0.0,0.0,0.0,0.0,1.1471,1.1896,0.0,0.0,0.0,0.0,0.0,1.5479,1.7059,1.748,1.8687,2.0778,2.0794,2.0794,2.0794,2.0475,2.0304,2.0304,2.0045,2.0154,2.0538,2.0538,2.1689,2.3551,2.3201,2.2844,2.2509,2.2797,2.2888,2.3049,2.4241,2.5912,2.7625,0.7676,0.7454,0.7435,0.0,0.7228,0.5942,0.3843,0.4029,0.4465,0.4384,0.3292,0.2946,0.4149,0.3901,0.4343,0.6069,0.0,0.0,0.4566,0.6073,0.6901,0.6623,0.6623,0.6259,0.5431,0.4794,0.4215,0.3689,0.1775,0.0878,0.09,0.0255,0.0067,0.0202,0.1882,0.2686,0.2753,0.3368,0.3171,0.2565,0.4564,0.5428,0.5428,0.5428,0.6246,0.748,0.748,0.7546,0.7798,0.9327,0.9889,1.0095,1.0843,1.1097,1.1409,1.29,1.2826,1.2452,1.32,1.1585,0.9826,1.0797,1.2224,1.3419,1.3492,1.4,1.533,1.824,1.8998,1.9075,1.9075,1.9008,1.8931,1.8931,1.7431,1.5401,1.3165,0.0,0.0,0.0,0.0,0.0,1.5513,1.3252,1.2754,0.0,0.0,0.0,0.0,0.0,1.7601,1.7349,1.9604,2.0794,2.0794,2.0827,2.0827,2.0827,2.0527,2.0339,2.0304,2.0304,2.1295,2.2933,2.2933,2.3187,2.3508,2.2632,2.2609,2.3194,2.3209,2.3209,2.3577,2.6515,2.7625,2.7625,0.0,0.0,0.797,0.8147,0.7632,0.6802,0.5527,0.4192,0.3444,0.3919,0.3136,0.2946,0.4149,0.42,0.4719,0.6064,0.6607,0.6666,0.6088,0.6647,0.7565,0.8854,0.8935,0.8127,0.647,0.6276,0.5377,0.3618,0.2808,0.1849,0.09,0.0255,0.0606,0.1682,0.2153,0.2488,0.2896,0.3716,0.4104,0.4325,0.5084,0.5428,0.5428,0.5428,0.6271,0.7525,0.7525,0.7894,0.8513,0.8864,0.9846,1.1015,1.1177,1.122,1.1186,1.1558,1.2003,1.2305,1.2526,1.1661,1.0658,1.0232,1.1409,1.2746,1.3346,1.3637,1.4201,1.5824,1.7687,1.9075,1.9075,1.8192,1.7451,1.7451,1.5587,1.3738,1.2456,1.2027,0.0,0.0,1.5449,1.7757,1.7757,1.5719,1.4845,0.0,0.0,0.0,1.8882,1.9665,2.0001,1.9939,2.0479,2.0794,2.0794,2.1055,2.1183,2.1183,2.1087,2.0794,2.0304,2.0304,2.1432,2.3436,2.3436,2.3523,2.3551,2.2963,2.4221,2.6451,2.6017,2.6117,2.6574,2.7335,2.7625,2.7675,0.7801,0.8107,0.8377,0.8394,0.7476,0.6316,0.5357,0.4067,0.3257,0.3343,0.2901,0.2946,0.4149,0.43,0.4804,0.6082,0.6359,0.6431,0.6406,0.7045,0.808,0.9631,0.9683,0.9109,0.7817,0.7414,0.6015,0.3581,0.3327,0.3116,0.2932,0.1633,0.1413,0.2221,0.2221,0.2488,0.31,0.3876,0.4448,0.4864,0.5398,0.5647,0.5844,0.5844,0.6268,0.7026,0.7407,0.8011,0.8629,0.8629,0.9247,1.0047,1.0047,1.0034,0.9981,0.9981,1.0582,1.1186,1.1186,1.0887,1.0779,1.1648,1.2482,1.3212,1.3402,1.3492,1.3783,1.4705,1.6657,1.8291,1.8952,1.792,1.6592,1.5516,1.3537,1.2301,1.2733,1.2402,1.2669,1.4232,1.6847,1.8517,1.8517,1.6793,1.5898,1.6344,1.6382,0.0,2.0863,2.0893,2.0794,2.0794,2.0794,2.086,2.1023,2.1214,2.1309,2.1294,2.2213,2.2582,2.2452,2.2452,2.3095,2.4245,2.4036,2.3824,2.361,2.3581,2.5135,2.7575,2.7539,2.769,2.7989,2.8204,2.8171,2.7989,0.8082,0.8388,0.8576,0.8613,0.6624,0.4739,0.3762,0.3317,0.3037,0.2824,0.2639,0.2946,0.4149,0.43,0.4677,0.5746,0.5517,0.5572,0.6178,0.7167,0.8214,0.9157,0.9515,0.9435,0.8935,0.8057,0.6352,0.376,0.3647,0.4086,0.4968,0.3398,0.2622,0.2491,0.2602,0.287,0.3234,0.3818,0.4273,0.4801,0.5564,0.6027,0.6261,0.6183,0.6106,0.6183,0.6868,0.7539,0.8124,0.8124,0.8388,0.8568,0.8568,0.8643,0.8737,0.8892,0.9354,0.9946,0.9884,0.9922,1.061,1.3374,1.4088,1.4022,1.3568,1.3492,1.371,1.4425,1.566,1.6985,1.8347,1.7501,1.5895,1.3943,1.2087,1.1651,1.3815,0.0,1.3934,1.684,1.8303,1.9065,1.9065,1.7696,1.6738,1.6548,1.6815,1.821,2.1054,2.1356,2.1426,2.1426,2.1561,2.1761,2.2037,2.2085,2.2117,2.2133,2.3737,2.471,2.5084,2.5084,2.5084,2.5045,2.4605,2.412,2.3754,2.4648,2.6047,2.7675,2.8201,2.8411,2.846,2.8951,2.8858,2.8554,0.6224,0.7503,0.8568,0.8576,0.5001,0.1792,0.0808,0.0629,0.105,0.235,0.2534,0.2946,0.4149,0.43,0.4235,0.4017,0.3524,0.4018,0.6064,0.6805,0.7091,0.6921,0.8683,0.9315,0.8496,0.766,0.6278,0.4378,0.3874,0.3452,0.3127,0.4359,0.4561,0.3981,0.4355,0.4024,0.3228,0.3313,0.3901,0.4815,0.5783,0.6217,0.6183,0.5485,0.5174,0.5249,0.5326,0.5735,0.6177,0.6177,0.7238,0.8568,0.8568,0.8574,0.8742,0.9586,0.9928,0.9937,0.9906,0.9922,1.061,1.3374,1.4088,1.4022,1.3568,1.3492,1.371,1.4425,1.48,1.5237,1.614,1.5568,1.4803,1.4398,1.3301,1.3484,1.6244,0.0,1.663,1.716,1.9809,2.1622,2.1622,2.0427,1.8716,1.6431,1.8908,2.0622,2.0861,2.3074,2.4356,2.4356,2.5009,2.5384,2.5454,2.5715,2.5866,2.5866,2.5542,2.5448,2.5502,2.5502,2.5502,2.5486,2.5084,2.4645,2.4388,2.7186,2.806,2.7675,2.8201,2.8411,2.846,2.8951,2.9029,2.9422,0.4538,0.4474,0.4707,0.4827,0.295,0.1077,0.018,0.0,0.062,0.2466,0.2593,0.2494,0.2583,0.3627,0.408,0.343,0.2978,0.3135,0.4239,0.5087,0.5787,0.6367,0.737,0.7482,0.6598,0.595,0.5052,0.4024,0.4356,0.4403,0.4156,0.5039,0.5229,0.4909,0.4672,0.4215,0.3516,0.3516,0.4301,0.5613,0.6126,0.6338,0.6217,0.5632,0.5404,0.5404,0.5404,0.5545,0.5733,0.5733,0.6266,0.7061,0.7061,0.719,0.7481,0.8261,0.9119,0.9917,0.9887,0.9901,1.0378,1.2172,1.2631,1.2505,1.2332,1.2299,1.2298,1.2652,1.3025,1.376,1.4927,1.5505,1.5169,1.3108,1.1895,1.2307,1.5632,1.6723,1.7669,1.8911,2.0462,2.1616,2.2137,2.106,1.978,1.85,2.1424,2.2986,2.2332,2.4022,2.5005,2.5005,2.5974,2.6486,2.6486,2.6624,2.6691,2.6691,2.5954,2.5616,2.5616,2.5616,2.5616,2.5578,2.4926,2.4508,2.4559,2.779,2.8842,2.8398,2.8396,2.8411,2.8629,3.0631,3.1563,3.2031,0.3272,0.1705,0.0824,0.0876,0.0842,0.0448,-0.0539,-0.027,0.0535,0.201,0.1887,0.1511,0.1157,0.2552,0.3291,0.2487,0.2233,0.2186,0.2467,0.3279,0.4372,0.5906,0.6094,0.5825,0.5088,0.4617,0.4105,0.3585,0.4435,0.5029,0.5428,0.5428,0.5296,0.5096,0.4564,0.4154,0.3947,0.3805,0.4543,0.5715,0.5715,0.5871,0.6115,0.5852,0.5733,0.5733,0.5733,0.5733,0.5733,0.5733,0.5733,0.5733,0.5733,0.6075,0.6556,0.7007,0.8197,0.9433,0.9798,0.9955,1.0125,1.0824,1.1176,1.1262,1.1262,1.1163,1.1184,1.1431,1.1891,1.2583,1.3512,1.5178,1.5362,1.2196,0.0,1.2152,1.4722,1.6772,1.8995,2.1579,2.1416,2.1375,2.2137,2.1528,2.1271,2.1758,2.386,2.4792,2.3967,2.463,2.5346,2.6134,2.6998,2.7121,2.6469,2.6453,2.6453,2.6418,2.5881,2.5616,2.5594,2.6062,2.631,2.6366,2.5723,2.5428,2.5625,2.8102,2.9075,2.9075,2.8716,2.9024,3.0078,3.2708,3.3949,3.4349,0.2967,0.0718,-0.1168,-0.1176,-0.1171,-0.1525,-0.2515,-0.1168,0.0087,0.0161,-0.0473,-0.0454,0.0953,0.121,0.1008,0.0269,0.0242,0.0673,0.1797,0.1946,0.2758,0.4559,0.5105,0.5329,0.5275,0.4779,0.42,0.3585,0.3463,0.4061,0.5428,0.5428,0.503,0.4367,0.43,0.4252,0.4246,0.3922,0.3841,0.3997,0.3997,0.4705,0.5772,0.5719,0.5733,0.5733,0.5733,0.5733,0.5733,0.5733,0.5733,0.5733,0.5733,0.6322,0.7085,0.7129,0.7379,0.8017,0.9564,0.999,1.0038,1.0038,1.0738,1.1262,1.1262,1.1163,1.1389,1.2385,1.2431,1.2042,1.1084,1.3021,1.4363,1.301,0.0,0.0,1.5164,1.8172,2.1696,2.5103,2.349,2.2137,2.2184,2.2893,2.4164,2.6192,2.5857,2.5361,2.4909,2.4966,2.6397,2.9426,2.9637,2.8354,2.5707,2.5675,2.5675,2.5675,2.5616,2.5616,2.5659,2.7402,2.842,2.8821,2.8775,2.873,2.8745,2.8996,2.9075,2.9075,2.9075,3.0943,3.3759,3.4512,3.4804,3.4851,0.1078,-0.0269,-0.1436,-0.1436,-0.1885,-0.2424,-0.2873,-0.2145,-0.1716,-0.2283,-0.1636,-0.0916,-0.0337,-0.0672,-0.1076,-0.1346,-0.1745,-0.1447,-0.0063,0.0,0.1154,0.3814,0.3802,0.3691,0.3691,0.3132,0.3203,0.4028,0.3488,0.3961,0.5428,0.5428,0.503,0.43,0.43,0.43,0.4266,0.3911,0.3763,0.3763,0.3763,0.4086,0.4573,0.5357,0.5733,0.5733,0.5733,0.4928,0.3946,0.3946,0.4241,0.4589,0.4757,0.5102,0.5486,0.637,0.736,0.8211,0.8214,0.8193,0.8372,0.8995,0.9349,0.9611,0.9611,1.0045,1.0397,1.0253,1.0929,1.1363,1.071,1.2782,1.463,1.5009,0.0,1.6674,1.7389,1.9897,2.2426,2.4557,2.4624,2.4474,2.4474,2.3958,2.4489,2.6643,2.6674,2.6602,2.6611,2.5608,2.5576,2.6805,2.885,2.9383,2.8271,2.8255,2.8404,2.8631,2.8631,2.8527,2.8288,2.9022,2.9412,2.9592,2.9592,2.9592,2.9592,2.9592,2.9592,2.9547,2.9213,3.1166,3.4151,3.4691,3.6042,3.735,-0.1166,-0.1883,-0.2331,-0.2331,-0.3138,-0.3735,-0.3549,-0.3596,-0.3682,-0.3763,-0.2734,-0.1954,-0.2091,-0.2704,-0.3184,-0.3464,-0.3291,-0.2822,-0.1814,-0.1546,-0.0191,0.2647,0.2158,0.1847,0.1847,0.1909,0.2361,0.3291,0.3226,0.3694,0.4694,0.4492,0.417,0.3743,0.3685,0.3973,0.4477,0.404,0.3763,0.3763,0.3763,0.3763,0.3882,0.4597,0.4839,0.4839,0.4839,0.4036,0.2963,0.323,0.3623,0.3975,0.4222,0.4222,0.4335,0.5266,0.6465,0.725,0.6474,0.6432,0.6969,0.83,0.8568,0.8568,0.8568,0.9345,0.979,0.9209,0.9967,1.0961,1.172,1.3324,1.4835,1.5645,1.6316,1.7248,1.8794,2.0709,2.2297,2.339,2.4408,2.4791,2.4323,2.343,2.3902,2.6313,2.6542,2.6891,2.7545,2.6443,2.5576,2.5037,2.8311,3.0456,3.1232,3.0356,3.0033,3.0316,3.0316,3.0146,2.9918,2.9918,2.9726,2.9412,2.9412,2.9412,2.9412,2.9412,2.9412,2.9492,3.0149,3.1801,3.3899,3.4546,3.6125,3.7615,-0.3762,-0.43,-0.43,-0.43,-0.5104,-0.557,-0.5091,-0.5718,-0.5712,-0.4075,-0.3841,-0.3929,-0.429,-0.4732,-0.5329,-0.6261,-0.4433,-0.323,-0.3226,-0.2555,-0.1279,0.0791,0.0317,0.0,0.0,0.1413,0.1817,0.1076,0.2487,0.3159,0.3159,0.2491,0.2283,0.25,0.2262,0.3214,0.4935,0.4153,0.3763,0.3763,0.3763,0.3763,0.3722,0.3126,0.2873,0.2875,0.2875,0.2875,0.3053,0.3944,0.43,0.43,0.43,0.4053,0.3763,0.3763,0.4392,0.4888,0.4463,0.5015,0.6177,0.8124,0.8568,0.8568,0.8568,0.9345,1.0038,1.0038,0.9933,1.0881,1.3977,1.4561,1.4596,1.4477,1.6077,1.7712,1.8947,2.0313,2.1423,2.2123,2.2714,2.2445,2.0847,2.1144,2.2665,2.5711,2.5474,2.5908,2.75,2.7625,2.6792,2.5092,2.86,3.1637,3.4036,3.1267,2.9918,2.9918,2.9918,2.9918,2.9918,2.9935,2.9382,2.8411,2.8411,2.8411,2.8411,2.8411,2.8411,2.8753,3.2013,3.3309,3.3398,3.4201,3.4643,3.4899,-0.4119,-0.5364,-0.652,-0.7231,-0.7588,-0.7121,-0.5249,-0.5718,-0.6103,-0.5634,-0.6015,-0.6405,-0.6522,-0.5613,-0.5329,-0.6261,-0.5717,-0.4945,-0.4051,-0.2893,-0.1923,-0.128,-0.0463,0.0,0.0,-0.0067,-0.0202,-0.047,0.1008,0.1479,0.0944,0.0727,0.1298,0.2507,0.2436,0.2643,0.305,0.3581,0.3763,0.3763,0.3763,0.3763,0.3775,0.3561,0.3235,0.2875,0.2875,0.2875,0.3053,0.3944,0.43,0.43,0.43,0.4053,0.3763,0.3763,0.4106,0.4508,0.436,0.4478,0.5013,0.6263,0.6529,0.6884,0.83,0.9345,1.0038,1.0038,0.9933,1.0363,1.1842,1.2562,1.3252,1.4372,1.5041,1.6256,1.8767,1.9462,1.9791,1.9977,2.1815,2.2934,2.2439,2.1785,2.2815,2.6261,2.6416,2.6718,2.7545,2.794,2.7915,2.7395,2.877,2.9886,3.0593,3.0145,2.9918,2.9918,2.9918,2.9918,2.9939,3.1566,3.1035,2.8905,2.8905,2.8905,2.8905,2.8905,3.0275,3.2476,3.3065,3.3555,3.3899,3.4349,3.4643,3.4899,-0.5364,-0.6609,-0.7854,-0.8518,-0.8634,-0.8233,-0.6924,-0.7176,-0.7561,-0.771,-0.8169,-0.8246,-0.7557,-0.656,-0.6099,-0.6261,-0.5517,-0.4822,-0.4319,-0.3709,-0.2956,-0.2225,-0.158,-0.1239,-0.1279,-0.1194,-0.1124,-0.1076,-0.0281,0.0072,0.0,0.0,0.0549,0.1569,0.2196,0.2279,0.1874,0.2526,0.2824,0.2824,0.2824,0.2824,0.2824,0.2824,0.2578,0.2334,0.2334,0.2334,0.2423,0.2957,0.3673,0.43,0.43,0.4151,0.3975,0.3975,0.4128,0.4119,0.3403,0.3406,0.3855,0.4482,0.5109,0.6,0.7149,0.8201,0.8899,0.8899,0.9711,1.0559,1.0977,1.1726,1.2629,1.368,1.4283,1.5249,1.7064,1.8114,1.8741,1.9075,2.0526,2.1928,2.3005,2.2472,2.3205,2.5889,2.65,2.713,2.789,2.8201,2.8411,2.8411,2.8858,2.9075,2.9075,3.0512,3.0792,2.9918,2.9918,3.0367,3.1278,3.2688,3.2376,3.0732,3.027,3.0169,3.0454,3.0894,3.2256,3.405,3.3745,3.3949,3.4448,3.4594,3.4739,3.4899,-0.6962,-0.794,-0.8593,-0.8695,-0.8851,-0.9079,-0.9246,-0.9322,-0.9473,-0.9846,-0.9922,-0.9311,-0.7863,-0.7633,-0.733,-0.6567,-0.4539,-0.3546,-0.4298,-0.4754,-0.4199,-0.2537,-0.2777,-0.307,-0.3279,-0.21,-0.1428,-0.1364,-0.1278,-0.0943,-0.0236,-0.0079,0.0,0.0079,0.1726,0.2041,0.1335,0.1335,0.1343,0.1273,0.1273,0.1273,0.1273,0.1273,0.1341,0.1436,0.1436,0.1436,0.1436,0.1436,0.2688,0.43,0.43,0.43,0.43,0.43,0.4208,0.3671,0.1883,0.2154,0.2875,0.2875,0.4214,0.5466,0.5644,0.6438,0.7139,0.7139,0.9157,1.098,1.0828,1.1582,1.2344,1.2594,1.3659,1.4497,1.4641,1.6464,1.8144,1.8998,1.9075,2.0085,2.2689,2.3005,2.3603,2.4892,2.6002,2.713,2.8348,2.8411,2.8411,2.8411,2.8858,2.9201,2.9391,3.1927,3.2215,3.0291,3.0247,3.1278,3.3309,3.324,3.324,3.3134,3.2079,3.191,3.2563,3.3626,3.405,3.405,3.405,3.4496,3.5184,3.51,3.4967,3.4899,-0.7051,-0.794,-0.8593,-0.8695,-1.0276,-1.0875,-0.9079,-0.9387,-0.9771,-0.9916,-0.9922,-0.9765,-0.9387,-0.8856,-0.8399,-0.8169,-0.5436,-0.4027,-0.4785,-0.4781,-0.4622,-0.4402,-0.3477,-0.3174,-0.3644,-0.3413,-0.326,-0.319,-0.1942,-0.1492,-0.1961,-0.0628,0.0,0.0079,0.1726,0.2041,0.1335,0.1335,0.1311,0.1397,0.1397,0.1397,0.1397,0.1397,0.1412,0.1436,0.1436,0.1436,0.1436,0.1436,0.2688,0.43,0.43,0.43,0.43,0.43,0.3224,0.1973,0.1524,0.2154,0.2875,0.2875,0.3232,0.3857,0.5377,0.6438,0.7139,0.7139,0.7933,0.8806,0.9234,1.04,1.1432,1.189,1.2599,1.355,1.4705,1.5709,1.6968,1.8865,1.9075,1.9781,2.1463,2.2519,2.3603,2.4892,2.523,2.6297,2.8299,2.8411,2.8411,2.8411,2.8858,2.9923,3.1665,3.2269,3.2804,3.3178,3.2748,3.2812,3.3293,3.2796,3.2617,3.2563,3.2342,3.2563,3.3134,3.3346,3.345,3.345,3.345,3.5161,3.7503,3.6397,3.5512,3.4947,-0.7139,-0.7496,-0.8005,-0.8556,-0.974,-1.0351,-0.9685,-0.9951,-1.0175,-0.9949,-0.9922,-0.9922,-0.9922,-0.9932,-0.9298,-0.7667,-0.6015,-0.5134,-0.5439,-0.5228,-0.498,-0.4841,-0.4155,-0.3873,-0.4002,-0.3975,-0.3921,-0.3763,-0.2902,-0.2511,-0.2431,-0.0785,0.0,0.0,0.0942,0.1335,0.134,0.1318,0.1378,0.1436,0.1436,0.1436,0.1345,0.0448,0.0628,0.1436,0.1436,0.1436,0.1436,0.1436,0.2061,0.2957,0.2957,0.2957,0.2957,0.2957,0.2152,0.1525,0.1974,0.2513,0.2875,0.2875,0.2875,0.3142,0.4125,0.5102,0.5985,0.6874,0.7499,0.799,0.8463,0.9745,1.092,1.1278,1.2066,1.3044,1.4336,1.5221,1.6281,1.7638,1.8519,1.9791,2.1486,2.2297,2.3305,2.4878,2.5286,2.6606,2.9331,2.946,2.8891,2.7685,2.8122,2.9709,3.2367,3.212,3.2287,3.2873,3.2888,3.285,3.285,3.2563,3.2398,3.2398,3.2398,3.2563,3.2904,3.3187,3.3309,3.3309,3.3309,3.54,3.8311,3.7582,3.7179,3.6986,-0.7319,-0.7319,-0.7584,-0.8476,-0.8808,-0.9174,-1.0089,-1.0634,-1.0892,-1.0655,-1.0467,-1.0313,-1.0164,-1.0543,-0.9733,-0.701,-0.6521,-0.628,-0.6293,-0.5742,-0.5337,-0.5049,-0.4953,-0.4779,-0.4586,-0.4387,-0.411,-0.3763,-0.3763,-0.3372,-0.2431,-0.1099,-0.0475,-0.0483,-0.0161,0.0322,0.0809,0.087,0.0897,0.0897,0.0897,0.0897,0.0718,-0.0807,-0.0448,0.0987,0.1256,0.1166,0.0897,0.0897,0.0897,0.0897,0.0897,0.0897,0.0899,0.0912,0.1191,0.1645,0.2614,0.2875,0.2875,0.2875,0.2875,0.2875,0.2875,0.3587,0.4743,0.634,0.7231,0.7852,0.8021,0.9284,1.0391,1.0865,1.1934,1.2939,1.3754,1.4969,1.5859,1.6211,1.8046,1.9922,2.1675,2.2061,2.2836,2.4421,2.5543,2.7281,2.9954,3.0326,2.9434,2.7342,2.7724,2.9227,3.1905,3.1625,3.1482,3.1524,3.1894,3.2176,3.2231,3.2342,3.2398,3.2398,3.2398,3.2398,3.2453,3.3065,3.3524,3.3841,3.3841,3.5705,3.8391,3.8391,3.8727,3.9056,-0.8208,-0.8388,-0.8476,-0.8568,-0.9256,-0.9619,-0.9043,-1.0709,-1.2453,-1.3385,-1.2828,-1.1989,-1.124,-0.9803,-0.8914,-0.8873,-0.7273,-0.6553,-0.7247,-0.6368,-0.5946,-0.6225,-0.5894,-0.5668,-0.5698,-0.5173,-0.4568,-0.3763,-0.3763,-0.3372,-0.2511,-0.2275,-0.2295,-0.2472,-0.0706,-0.0353,-0.1059,-0.0982,-0.0987,-0.0987,-0.0987,-0.0987,-0.1076,-0.1345,-0.1256,-0.0807,0.0807,0.0359,-0.0987,-0.0987,-0.0987,-0.0987,-0.0987,-0.0987,-0.1001,-0.1171,0.0099,0.1766,0.2656,0.2875,0.2875,0.2875,0.2875,0.2875,0.2875,0.3587,0.4389,0.4654,0.5985,0.7319,0.7852,0.8452,0.93,1.0656,1.2116,1.3284,1.3722,1.4733,1.5638,1.6149,1.8452,2.0074,2.0335,2.1486,2.2309,2.2543,2.5486,2.7446,2.7894,2.9071,2.9572,2.9233,2.928,2.9558,2.9946,3.0984,3.1482,3.1482,3.1043,3.1102,3.164,3.2176,3.2398,3.2398,3.2398,3.2398,3.2453,3.3065,3.4382,3.606,3.606,3.6999,3.8391,3.8391,3.8448,3.8504,-0.7958,-0.8367,-0.8665,-0.8582,-0.9345,-1.0253,-1.0849,-1.1837,-1.2744,-1.3243,-1.2966,-1.2369,-1.1435,-0.9699,-0.8935,-0.9606,-0.884,-0.8288,-0.8016,-0.7119,-0.6778,-0.7167,-0.6878,-0.6636,-0.66,-0.5864,-0.5406,-0.514,-0.4268,-0.3606,-0.3214,-0.3684,-0.4121,-0.4393,-0.2512,-0.1886,-0.2243,-0.2243,-0.2243,-0.2243,-0.2778,-0.233,-0.1436,-0.1436,-0.1436,-0.1256,-0.0448,-0.0718,-0.1436,-0.1436,-0.1436,-0.1436,-0.1436,-0.1482,-0.1547,-0.1601,-0.0505,0.0903,0.1939,0.2511,0.2875,0.2875,0.2875,0.2875,0.2875,0.3587,0.4565,0.563,0.6517,0.7319,0.812,0.8476,0.8915,0.9685,1.1424,1.2849,1.3228,1.4316,1.5418,1.6281,1.8484,2.0224,2.0994,2.171,2.2274,2.2641,2.3854,2.5588,2.7986,2.8716,2.9035,2.9035,2.9035,2.9035,2.9035,2.9574,3.0068,3.0447,3.0582,3.0747,3.0999,3.1263,3.1364,3.1511,3.3306,3.4152,3.4152,3.4393,3.511,3.6004,3.6367,3.6846,3.7389,3.7759,3.7892,3.795]},{"header":{"parameterUnit":"m.s-1","parameterCategory":1,"la1":30.6,"la2":28.766,"lo1":-90.7593,"lo2":-88.6598,"dy":0.0162,"dx":0.0183,"nx":116,"ny":114,"refTime":"2024-05-29T12:00:00:Z","depth":0,"parameterNumber":3,"parameterNumberName":"V-component_of_WINDS"},"data":[0.0,0.0,0.0,0.0,0.0,0.0,0.0,0.0,0.0,0.0,0.0,0.0,0.0,0.0,0.0,0.0,0.0,0.0,0.0,0.0,0.0,0.0,0.0,0.0,0.0,0.0,0.0,0.0,0.0,0.0,0.0,0.0,0.0,0.0,0.0,0.0,0.0,0.0,0.0,0.0,0.0,0.0,0.0,0.0,0.0,0.0,0.0,0.0,0.0,0.0,0.0,0.0,0.0,0.0,0.0,0.0,0.0,0.0,0.0,0.0,0.0,0.0,0.0,0.0,0.0,0.0,0.0,0.0,0.0,0.0,0.0,0.0,0.0,0.0,0.0,0.0,0.0,0.0,0.0,0.0,0.0,0.0,0.0,0.0,0.0,0.0,0.0,0.0,0.0,0.0,0.0,0.0,0.0,0.0,0.0,0.0,0.0,0.0,0.0,0.0,0.0,0.0,0.0,0.0,0.0,0.0,0.0,0.0,0.0,0.0,0.0,0.0,0.0,0.0,0.0,0.0,0.0,0.0,0.0,0.0,0.0,0.0,0.0,0.0,0.0,0.0,0.0,0.0,0.0,0.0,0.0,0.0,0.0,0.0,0.0,0.0,0.0,0.0,0.0,0.0,0.0,0.0,0.0,0.0,0.0,0.0,0.0,0.0,0.0,0.0,0.0,0.0,0.0,0.0,0.0,0.0,0.0,0.0,0.0,0.0,0.0,0.0,0.0,0.0,0.0,0.0,0.0,0.0,0.0,0.0,0.0,0.0,0.0,0.0,0.0,0.0,0.0,0.0,0.0,0.0,0.0,0.0,0.0,0.0,0.0,0.0,0.0,0.0,0.0,0.0,0.0,0.0,0.0,0.0,0.0,0.0,0.0,0.0,0.0,0.0,0.0,0.0,0.0,0.0,0.0,0.0,0.0,0.0,0.0,0.0,0.0,0.0,0.0,0.0,0.0,0.0,0.0,0.0,0.0,0.0,0.0,0.0,0.0,0.0,0.0,0.0,0.0,0.0,0.0,0.0,0.0,0.0,0.0,0.0,0.0,0.0,0.0,0.0,0.0,0.0,0.0,0.0,0.0,0.0,0.0,0.0,0.0,0.0,0.0,0.0,0.0,0.0,0.0,0.0,0.0,0.0,0.0,0.0,0.0,0.0,0.0,0.0,0.0,0.0,0.0,0.0,0.0,0.0,0.0,0.0,0.0,0.0,0.0,0.0,0.0,0.0,0.0,0.0,0.0,0.0,0.0,0.0,0.0,0.0,0.0,0.0,0.0,0.0,0.0,0.0,0.0,0.0,0.0,0.0,0.0,0.0,0.0,0.0,0.0,0.0,0.0,0.0,0.0,0.0,0.0,0.0,0.0,0.0,0.0,0.0,0.0,0.0,0.0,0.0,0.0,0.0,0.0,0.0,0.0,0.0,0.0,0.0,0.0,0.0,0.0,0.0,0.0,0.0,0.0,0.0,0.0,0.0,0.0,0.0,0.0,0.0,0.0,0.0,0.0,0.0,0.0,0.0,0.0,0.0,0.0,0.0,0.0,0.0,0.0,0.0,0.0,0.0,0.0,0.0,0.0,0.0,0.0,0.0,0.0,0.0,0.0,0.0,0.0,0.0,0.0,0.0,0.0,0.0,0.0,0.0,0.0,0.0,0.0,0.0,0.0,0.0,0.0,0.0,0.0,0.0,0.0,0.0,0.0,0.0,0.0,0.0,0.0,0.0,0.0,0.0,0.0,0.0,0.0,0.0,0.0,0.0,0.0,0.0,0.0,0.0,0.0,0.0,0.0,0.0,0.0,0.0,0.0,0.0,0.0,0.0,0.0,0.0,0.0,0.0,0.0,0.0,0.0,0.0,0.0,0.0,0.0,0.0,0.0,0.0,0.0,0.0,0.0,0.0,0.0,0.0,0.0,0.0,0.0,0.0,0.0,0.0,0.0,0.0,0.0,0.0,0.0,0.0,0.0,0.0,0.0,0.0,0.0,0.0,0.0,0.0,0.0,0.0,0.0,0.0,0.0,0.0,0.0,0.0,0.0,0.0,0.0,0.0,0.0,0.0,0.0,0.0,0.0,0.0,0.0,0.0,0.0,0.0,0.0,0.0,0.0,0.0,0.0,0.0,0.0,0.0,0.0,0.0,0.0,0.0,0.0,0.0,0.0,0.0,0.0,0.0,0.0,0.0,0.0,0.0,0.0,0.0,0.0,0.0,0.0,0.0,0.0,0.0,0.0,0.0,0.0,0.0,0.0,0.0,0.0,0.0,0.0,0.0,0.0,0.0,0.0,0.0,0.0,0.0,0.0,0.0,0.0,0.0,0.0,0.0,0.0,0.0,0.0,0.0,0.0,0.0,0.0,0.0,0.0,0.0,0.0,0.0,0.0,0.0,0.0,0.0,0.0,0.0,0.0,0.0,0.0,0.0,0.0,0.0,0.0,0.0,0.0,0.0,0.0,0.0,0.0,0.0,0.0,0.0,0.0,0.0,0.0,0.0,0.0,0.0,0.0,0.0,0.0,0.0,0.0,0.0,0.0,0.0,0.0,0.0,0.0,0.0,0.0,0.0,0.0,0.0,0.0,0.0,0.0,0.0,0.0,0.0,0.0,0.0,0.0,0.0,0.0,0.0,0.0,0.0,0.0,0.0,0.0,0.0,0.0,0.0,0.0,0.0,0.0,0.0,0.0,0.0,0.0,0.0,0.0,0.0,0.0,0.0,0.0,0.0,0.0,0.0,0.0,0.0,0.0,0.0,0.0,0.0,0.0,0.0,0.0,0.0,0.0,0.0,0.0,0.0,0.0,0.0,0.0,0.0,0.0,0.0,0.0,0.0,0.0,0.0,0.0,0.0,0.0,0.0,0.0,0.0,0.0,0.0,0.0,0.0,0.0,0.0,0.0,0.0,0.0,0.0,0.0,0.0,0.0,0.0,0.0,0.0,0.0,0.0,0.0,0.0,0.0,0.0,0.0,0.0,0.0,0.0,0.0,0.0,0.0,0.0,0.0,0.0,0.0,0.0,0.0,0.0,0.0,0.0,0.0,0.0,0.0,0.0,0.0,0.0,0.0,0.0,0.0,0.0,0.0,0.0,0.0,0.0,0.0,0.0,0.0,0.0,0.0,0.0,0.0,0.0,0.0,0.0,0.0,0.0,0.0,0.0,0.0,0.0,0.0,0.0,0.0,0.0,0.0,0.0,0.0,0.0,0.0,0.0,0.0,0.0,0.0,0.0,0.0,0.0,0.0,0.0,0.0,0.0,0.0,0.0,0.0,0.0,0.0,0.0,0.0,0.0,0.0,0.0,0.0,0.0,0.0,0.0,0.0,0.0,0.0,0.0,0.0,0.0,0.0,0.0,0.0,0.0,0.0,0.0,0.0,0.0,0.0,0.0,0.0,0.0,0.0,0.0,0.0,0.0,0.0,0.0,0.0,0.0,0.0,0.0,0.0,0.0,0.0,0.0,0.0,0.0,0.0,0.0,0.0,0.0,0.0,0.0,0.0,0.0,0.0,0.0,0.0,0.0,0.0,0.0,0.0,0.0,0.0,0.0,0.0,0.0,0.0,0.0,0.0,0.0,0.0,0.0,0.0,0.0,0.0,0.0,0.0,0.0,0.0,0.0,0.0,0.0,0.0,0.0,0.0,0.0,0.0,0.0,0.0,0.0,0.0,0.0,0.0,0.0,0.0,0.0,0.0,0.0,0.0,0.0,0.0,0.0,0.0,0.0,0.0,0.0,0.0,0.0,0.0,0.0,0.0,0.0,0.0,0.0,0.0,0.0,0.0,0.0,0.0,0.0,0.0,0.0,0.0,0.0,0.0,0.0,0.0,0.0,0.0,0.0,0.0,0.0,0.0,0.0,0.0,0.0,0.0,0.0,0.0,0.0,0.0,0.0,0.0,0.0,0.0,0.0,0.0,0.0,0.0,0.0,0.0,0.0,0.0,0.0,0.0,0.0,0.0,0.0,0.0,0.0,0.0,0.0,0.0,0.0,0.0,0.0,0.0,0.0,0.0,0.0,0.0,0.0,0.0,0.0,0.0,0.0,0.0,0.0,0.0,0.0,0.0,0.0,0.0,0.0,0.0,0.0,0.0,0.0,0.0,0.0,0.0,0.0,0.0,0.0,0.0,0.0,0.0,0.0,0.0,0.0,0.0,0.0,0.0,0.0,0.0,0.0,0.0,0.0,0.0,0.0,0.0,0.0,0.0,0.0,0.0,0.0,0.0,0.0,0.0,0.0,0.0,0.0,0.0,0.0,0.0,0.0,0.0,0.0,0.0,0.0,0.0,0.0,0.0,0.0,0.0,0.0,0.0,0.0,0.0,0.0,0.0,0.0,0.0,0.0,0.0,0.0,0.0,0.0,0.0,0.0,0.0,0.0,0.0,0.0,0.0,0.0,0.0,0.0,0.0,0.0,0.0,0.0,0.0,0.0,0.0,0.0,0.0,0.0,0.0,0.0,0.0,0.0,0.0,0.0,0.0,0.0,0.0,0.0,0.0,0.0,0.0,0.0,0.0,0.0,0.0,0.0,0.0,0.0,0.0,0.0,0.0,0.0,0.0,0.0,0.0,0.0,0.0,0.0,0.0,0.0,0.0,0.0,0.0,0.0,0.0,0.0,0.0,0.0,0.0,0.0,0.0,0.0,0.0,0.0,0.0,0.0,0.0,0.0,0.0,0.0,0.0,0.0,0.0,0.0,0.0,0.0,0.0,0.0,0.0,0.0,0.0,0.0,0.0,0.0,0.0,0.0,0.0,0.0,0.0,0.0,0.0,0.0,0.0,0.0,0.0,0.0,0.0,0.0,0.0,0.0,0.0,0.0,0.0,0.0,0.0,0.0,0.0,0.0,0.0,0.0,0.0,0.0,0.0,0.0,0.0,0.0,0.0,0.0,0.0,0.0,0.0,0.0,0.0,0.0,0.0,0.0,0.0,0.0,0.0,0.0,0.0,0.0,0.0,0.0,0.0,0.0,0.0,0.0,0.0,0.0,0.0,0.0,0.0,0.0,0.0,0.0,0.0,0.0,0.0,0.0,0.0,0.0,0.0,0.0,0.0,0.0,0.0,0.0,0.0,0.0,0.0,0.0,0.0,0.0,0.0,0.0,0.0,0.0,0.0,0.0,0.0,0.0,0.0,0.0,0.0,0.0,0.0,0.0,0.0,0.0,0.0,0.0,0.0,0.0,0.0,0.0,0.0,0.0,0.0,0.0,0.0,0.0,0.0,0.0,0.0,0.0,0.0,0.0,0.0,0.0,0.0,0.0,0.0,0.0,0.0,0.0,0.0,0.0,0.0,0.0,0.0,0.0,0.0,0.0,0.0,0.0,0.0,0.0,0.0,0.0,0.0,0.0,0.0,0.0,0.0,0.0,0.0,0.0,0.0,0.0,0.0,0.0,0.0,0.0,0.0,0.0,0.0,0.0,0.0,0.0,0.0,0.0,0.0,0.0,0.0,0.0,0.0,0.0,0.0,0.0,0.0,0.0,0.0,0.0,0.0,0.0,0.0,0.0,0.0,0.0,0.0,0.0,0.0,0.0,0.0,0.0,0.0,0.0,0.0,0.0,0.0,0.0,0.0,0.0,0.0,0.0,0.0,0.0,0.0,0.0,0.0,0.0,0.0,0.0,0.0,0.0,0.0,0.0,0.0,0.0,0.0,0.0,0.0,0.0,0.0,0.0,0.0,0.0,0.0,0.0,0.0,0.0,0.0,0.0,0.0,0.0,0.0,0.0,0.0,0.0,0.0,0.0,0.0,0.0,0.0,0.0,0.0,0.0,0.0,0.0,0.0,0.0,0.0,0.0,0.0,0.0,0.0,0.0,0.0,0.0,0.0,0.0,0.0,0.0,0.0,0.0,0.0,0.0,0.0,0.0,0.0,0.0,0.0,0.0,0.0,0.0,0.0,0.0,0.0,0.0,0.0,0.0,0.0,0.0,0.0,0.0,0.0,0.0,0.0,0.0,0.0,0.0,0.0,0.0,0.0,0.0,0.0,0.0,0.0,0.0,0.0,0.0,0.0,0.0,0.0,0.0,0.0,0.0,0.0,0.0,0.0,0.0,0.0,0.0,0.0,0.0,0.0,0.0,0.0,0.0,0.0,0.0,0.0,0.0,1.697,0.0,0.0,0.0,0.0,0.0,0.0,0.0,0.0,0.0,0.0,0.0,0.0,0.0,0.0,0.0,0.0,0.0,0.0,0.0,0.0,0.0,0.0,0.0,0.0,0.0,0.0,0.0,0.1602,0.332,0.4998,0.0,0.0,0.0,0.0,0.0,0.9299,0.8876,0.8673,0.8711,0.7974,0.7884,0.8431,1.0125,1.0805,1.069,0.0,0.0,0.0,0.0,0.0,0.0,0.0,0.0,0.0,0.0,0.0,0.0,0.0,0.0,0.0,0.0,0.0,0.0,0.0,0.0,0.0,0.0,0.0,0.0,0.0,0.0,0.0,0.0,0.0,0.0,0.0,0.0,0.0,0.0,0.0,0.0,0.0,0.0,0.0,0.0,0.0,0.0,0.0,0.0,0.0,0.0,0.0,0.0,0.0,0.0,0.0,0.0,0.0,0.0,0.0,0.0,0.0,0.0,0.0,0.0,0.0,0.0,0.0,0.0,0.0,0.0,0.0,0.0,0.0,0.0,0.0,1.8628,0.0,0.0,0.0,0.0,0.0,0.0,0.0,0.0,0.0,0.0,0.0,0.0,0.0,0.0,0.0,0.0,0.0,0.0,0.0,0.0,0.0,0.0,0.0,0.0,0.0446,0.1551,0.2491,0.3708,0.5252,0.6152,0.0,0.0,0.0,0.9375,1.0195,0.9508,0.9744,1.1036,1.0105,1.0892,1.3373,1.5855,1.6122,1.458,1.5497,0.0,0.0,0.0,0.0,0.0,0.0,0.0,0.0,0.0,0.0,0.0,0.0,0.0,0.0,0.0,0.0,0.0,0.0,0.0,0.0,0.0,0.0,0.0,0.0,0.0,0.0,0.0,0.0,0.0,0.0,0.0,0.0,0.0,0.0,0.0,0.0,0.0,0.0,0.0,0.0,0.0,0.0,0.0,0.0,0.0,0.0,0.0,0.0,0.0,0.0,0.0,0.0,0.0,0.0,0.0,0.0,0.0,0.0,0.0,0.0,0.0,0.0,0.0,3.5892,3.383,3.1054,2.9309,2.8706,2.8884,2.5117,2.332,2.2885,2.0406,0.0,0.0,0.0,0.0,0.0,0.0,0.0,0.0,0.0,0.0,0.0,0.0,0.0,0.0,0.0,0.0,0.0,0.0,0.0,0.0,0.0,0.0,0.221,0.7683,0.6081,0.524,0.6331,0.7106,0.0,0.0,0.8534,0.9412,1.0275,1.0117,1.0392,1.1175,1.2934,1.5018,1.7386,1.9876,2.1612,2.2585,2.0752,2.0288,2.0736,0.0,0.0,0.0,0.0,0.0,0.0,0.0,0.0,0.0,0.0,0.0,0.0,0.0,0.0,0.0,0.0,0.0,0.0,0.0,0.0,0.0,0.0,0.0,0.0,0.0,0.0,0.0,0.0,0.0,0.0,0.0,0.0,0.0,0.0,0.0,0.0,0.0,0.0,0.0,0.0,0.0,2.0799,2.2152,0.0,0.0,0.0,0.0,0.0,0.0,0.0,0.0,0.0,0.0,0.0,0.0,0.0,4.6762,4.6762,4.101,3.9207,4.1217,4.0604,3.9125,3.681,3.6206,3.5866,3.5648,3.4347,0.0,2.4833,2.3612,0.0,0.0,0.0,0.0,0.0,0.0,0.0,0.0,0.0,0.0,0.0,0.0,0.0,0.0,0.0,0.0,0.0,0.0,0.0,0.0,0.0,0.2924,0.7491,1.3947,1.0557,0.8411,0.9192,0.8869,0.8344,0.7674,0.7974,0.8349,0.8776,0.9559,1.14,1.4294,1.8019,2.0627,2.2258,2.4783,2.6856,2.8408,2.6776,2.5165,2.3528,2.0529,0.0,0.0,0.0,0.0,0.0,0.0,0.0,0.0,0.0,0.0,0.0,0.0,0.0,0.0,0.0,0.0,0.0,0.0,0.0,0.0,0.0,0.0,0.0,0.0,0.0,0.0,0.0,0.0,0.0,0.0,0.0,0.0,0.0,0.0,0.0,0.0,0.0,0.0,0.0,2.5476,3.0154,3.1752,2.7489,2.1994,0.0,0.0,0.0,0.0,0.0,0.0,0.0,0.0,0.0,3.6133,4.4281,4.862,4.862,4.514,4.335,4.335,4.4603,4.4002,4.1711,4.1131,4.0796,4.0633,3.9264,3.6363,3.2353,2.8604,2.5411,2.2674,0.0,0.0,0.0,0.0,2.3472,2.3743,0.0,0.0,0.0,0.0,0.0,0.0,0.0,0.0,0.0,0.0,0.0,0.0,0.0413,0.4961,1.0202,1.5713,1.2889,1.0777,1.0725,0.9948,0.8858,0.7376,0.702,0.7021,0.7356,0.9903,1.3415,1.7844,2.2697,2.5667,2.6885,2.9263,3.0979,3.2006,3.0967,2.9099,2.6538,2.3148,2.0788,0.0,0.0,0.0,0.0,0.0,0.0,0.0,0.0,0.0,0.0,0.0,0.0,0.0,0.0,0.0,0.0,0.0,0.0,0.0,0.0,0.0,0.0,0.0,0.0,0.0,0.0,0.0,0.0,0.0,0.0,0.0,0.0,0.0,0.0,0.0,0.0,0.0,0.0,3.1332,3.5428,3.5658,2.9967,2.3455,0.0,0.0,0.0,0.0,0.0,0.0,3.3436,3.7218,4.1658,4.7018,4.9205,5.0222,4.9987,4.8012,4.6934,4.6718,4.8121,4.7839,4.6079,4.5073,4.4576,4.4313,4.2683,4.0978,3.9063,3.3376,2.9558,2.7243,2.6176,2.5981,2.6511,2.784,2.8247,2.8441,0.0,0.0,0.0,0.0,0.0,0.0,0.0,0.0,0.0,0.0,0.0,-0.0197,0.1521,0.4294,0.7088,0.9719,1.1162,1.1117,0.0,0.0,0.8816,0.6654,0.5628,0.5637,0.6726,1.2252,1.7031,2.0964,2.5852,2.9112,3.0765,3.2682,3.3227,3.2617,3.1721,3.1212,3.0778,2.7284,2.5316,2.4284,0.0,0.0,0.0,0.0,0.0,0.0,0.0,0.0,0.0,0.0,0.0,0.0,0.0,0.0,0.0,0.0,0.0,0.0,0.0,0.0,0.0,0.0,0.0,0.0,0.0,0.0,0.0,0.0,0.0,0.0,0.0,0.0,0.0,0.0,0.0,0.0,0.0,0.0,0.0,2.8839,2.2112,0.0,0.0,0.0,0.0,2.9001,3.2694,4.137,5.7093,5.2345,4.9737,5.0881,5.363,5.4624,5.3796,5.3105,5.2908,5.3086,5.1182,5.0181,4.996,4.8211,4.7174,4.6661,4.5117,4.3809,4.2333,3.6798,3.3594,3.1985,3.0513,3.0291,3.0912,3.1567,3.1886,3.2242,0.0,0.0,0.0,0.0,0.0,0.0,0.0,0.0,0.0465,0.1758,0.0197,-0.0432,0.1115,0.4046,0.7153,1.0315,1.1096,1.1573,1.1942,1.0772,0.926,0.7479,0.6931,0.8534,1.2535,1.6181,2.0057,2.4152,2.8072,3.0721,3.2093,3.2742,3.2923,3.2693,3.1176,3.049,3.0282,2.7393,2.5654,2.4572,2.1437,1.8831,0.0,0.0,0.0,0.0,0.0,0.0,0.0,0.0,0.0,0.0,0.0,0.0,0.0,0.0,0.0,0.0,0.0,0.0,0.0,0.0,0.0,0.0,0.0,0.0,0.0,0.0,0.0,0.0,0.0,0.0,0.0,0.0,0.0,0.0,0.0,0.0,0.0,3.4632,2.43,0.0,2.6361,2.8598,3.2421,3.9122,4.2813,4.8338,5.6492,5.7003,5.7233,5.7573,5.8577,5.8035,5.5814,5.585,5.5374,5.4456,5.3808,5.2981,5.2069,5.0869,4.9985,4.9256,4.8136,4.6925,4.5539,4.3725,4.0747,3.7331,3.6619,3.6268,3.6119,3.64,3.6054,3.5567,0.0,0.0,0.0,0.0,0.0,0.024,0.0974,0.11,0.1638,0.3105,0.1522,0.0802,0.2282,0.4449,0.6866,0.956,1.0439,1.1101,1.1679,1.0954,0.9558,0.7412,0.8779,1.2327,1.8195,1.9964,2.2919,2.7184,2.9972,3.1946,3.3098,3.3103,3.2735,3.1961,3.0698,2.9965,2.9509,2.7803,2.6682,2.5793,2.2941,2.0948,1.9239,0.0,0.0,0.0,0.0,0.0,0.0,0.0,0.0,0.0,0.0,0.0,0.0,0.0,0.0,0.0,0.0,0.0,0.0,0.0,0.0,0.0,0.0,0.0,0.0,0.0,0.0,0.0,0.0,0.0,0.0,0.0,0.0,0.0,0.0,0.0,3.5291,3.5338,2.9261,2.5653,2.7155,3.5873,4.284,4.6128,4.9425,5.2603,5.5716,5.9169,6.1102,6.1069,6.1102,6.0073,5.789,5.7465,5.6805,5.5887,5.5679,5.5132,5.4243,5.3423,5.255,5.1751,5.085,4.9687,4.8505,4.802,4.5863,4.2693,4.1774,4.0699,3.9725,3.9864,3.9143,3.8224,0.0,0.0,0.0,0.0,0.0,0.0723,0.2882,0.3303,0.3516,0.3879,0.3345,0.3539,0.5123,0.5471,0.5971,0.6875,0.9001,0.964,0.8063,0.9845,0.9626,0.6636,1.1135,1.6668,2.3063,2.3437,2.5655,2.9926,3.1608,3.291,3.3836,3.3913,3.2723,3.049,3.0403,2.9801,2.8881,2.8846,2.8669,2.824,2.611,2.3934,2.1446,0.0,0.0,0.0,0.0,0.0,0.0,0.0,0.0,0.0,0.0,0.0,0.0,0.0,0.0,0.0,0.0,0.0,0.0,0.0,0.0,0.0,0.0,0.0,0.0,0.0,0.0,0.0,0.0,0.0,0.0,0.0,0.0,0.0,2.6585,3.1563,3.3678,3.0166,3.619,3.4723,1.9727,3.8216,5.0788,4.9995,5.2507,5.4915,5.6603,5.9496,6.1069,6.1003,6.1069,6.0798,6.0148,5.8253,5.7514,5.7881,5.6774,5.6331,5.6516,5.5812,5.4946,5.4012,5.3084,5.2124,5.1082,4.9332,4.8413,4.7848,4.5508,4.3396,4.165,4.186,4.1112,4.0195,0.0,0.0,0.0,0.0,0.0,0.0792,0.3127,0.4423,0.4945,0.4471,0.412,0.4173,0.4865,0.5217,0.5631,0.6228,0.7461,0.791,0.7175,0.7481,0.9379,1.3143,1.6411,2.0372,2.5103,2.6676,2.855,3.0774,3.191,3.2485,3.2478,3.1154,3.0602,3.0688,2.9745,2.9059,2.8667,2.921,2.8442,2.6694,2.502,2.3022,2.059,0.0,0.0,0.0,0.0,0.0,0.0,0.0,0.0,0.0,0.0,0.0,0.0,0.0,0.0,0.0,0.0,0.0,0.0,0.0,0.0,0.0,0.0,0.0,0.0,0.0,0.0,0.0,0.0,0.0,0.0,0.0,0.0,3.5435,3.2056,3.4915,3.7343,3.7447,4.1091,4.3138,4.1973,4.6945,5.0152,4.9931,5.3067,5.5572,5.6603,5.9496,6.1102,6.1069,6.1102,6.0965,6.0672,5.905,5.8188,5.8116,5.8021,5.7824,5.7501,5.7295,5.6354,5.4788,5.4701,5.3788,5.2397,5.2185,5.1042,4.9316,4.7378,4.5713,4.4437,4.4045,4.2944,4.1678,0.0,0.0,0.0,0.0,0.0,0.0648,0.2591,0.4305,0.5227,0.4827,0.4841,0.5031,0.5393,0.5518,0.5515,0.5356,0.6601,0.6634,0.4819,0.7304,1.1253,1.6743,1.9746,2.313,2.7087,2.8787,3.0277,3.1583,3.1563,3.1526,3.1433,2.9906,2.9444,2.9843,2.9113,2.8844,2.8954,2.9071,2.828,2.6803,2.5014,2.2763,2.0102,1.6766,1.5041,1.4226,1.3244,1.2587,1.2176,1.2174,0.0,0.0,0.0,0.0,0.0,0.0,0.0,0.0,0.0,0.0,0.0,0.0,0.0,0.0,0.0,0.0,0.0,0.0,0.0,0.0,0.0,0.0,0.0,0.0,4.1338,4.1293,3.7671,3.8699,4.0242,4.1225,4.3379,4.6471,5.0762,5.0386,5.0405,5.1575,5.3985,5.5814,5.668,5.9496,6.1102,6.1102,6.1807,6.1998,6.1672,6.004,5.9125,5.8934,5.8874,5.8771,5.8626,5.8675,5.7711,5.6016,5.6081,5.5135,5.355,5.3161,5.2117,0.0,0.0,0.0,0.0,0.0,4.4019,4.3451,0.0,0.0,0.0,0.0,0.0,0.0411,0.1643,0.3427,0.4707,0.4931,0.0,0.5838,0.6201,0.6079,0.5553,0.454,0.6303,0.631,0.0,0.0,0.0,1.8477,2.1795,2.5234,2.8784,2.9892,3.0926,3.1918,3.0677,3.0186,3.0391,2.9425,2.8865,2.8662,2.8637,2.9132,2.9924,2.9133,2.8477,2.7812,2.5722,2.3044,2.0096,1.8164,1.6497,1.5139,1.473,1.3992,1.3294,1.3951,0.0,0.0,0.0,0.0,0.0,0.0,0.0,0.0,0.0,0.0,0.0,0.0,0.0,0.0,0.0,0.0,0.0,0.0,0.0,0.0,0.0,0.0,0.0,0.0,4.4265,4.4123,4.265,4.2301,4.2365,4.2553,4.3832,4.6257,5.0251,5.0133,5.0958,5.3439,5.4656,5.5653,5.6525,0.0,0.0,0.0,0.0,6.3233,6.2617,6.1143,6.0244,6.0007,5.953,5.9442,5.9743,5.9822,5.8985,5.7364,5.7097,5.6055,5.4517,5.3249,5.2272,5.1507,5.0641,4.8542,4.5913,4.4942,4.4873,4.536,0.0,0.0,0.0,0.0,0.0,0.0304,0.1196,0.2623,0.3845,0.4577,0.5321,0.5831,0.5978,0.5886,0.5533,0.4782,0.676,0.9377,0.0,0.0,1.7706,2.0665,2.4064,2.6961,2.9296,2.9799,2.9876,2.9632,2.9472,2.9116,2.8593,2.7846,2.8052,2.8993,2.8773,3.0062,3.2403,3.201,3.0313,2.7805,2.6468,2.4173,2.1344,1.9629,1.7867,1.6248,1.5896,1.52,1.4587,1.5591,1.5791,1.5695,1.6045,0.0,0.0,0.0,0.0,0.0,0.0,0.0,0.0,0.0,0.0,0.0,0.0,0.0,0.0,0.0,0.0,0.0,0.0,0.0,0.0,4.4057,4.6465,4.7063,4.4123,4.3514,4.3164,4.268,4.3913,4.5295,4.6716,4.8697,5.0153,5.069,5.2974,5.4749,5.5572,5.9785,6.2144,6.2144,6.2753,6.2531,6.1291,6.132,6.1187,6.0779,0.0,0.0,6.0508,6.0491,5.9606,5.7998,5.7161,5.6253,5.5132,5.4148,5.3378,5.2552,5.0441,4.895,4.7984,4.7395,4.7272,4.7417,0.0,0.0,0.0,0.0,0.0,0.0135,0.0541,0.211,0.3535,0.4353,0.526,0.5745,0.5489,0.5562,0.5256,0.4291,0.6196,0.0,0.0,1.7258,1.9657,2.2965,2.5837,2.7967,2.9282,2.8939,2.8644,2.8392,2.8163,2.7882,2.7572,2.7811,2.8324,2.9024,2.9413,3.0528,3.2072,3.2194,3.101,2.8968,2.8042,2.6422,2.4288,2.1562,1.9681,1.8483,1.7979,1.7074,1.6273,1.7364,1.7854,1.7932,1.7726,1.5443,1.2097,0.0,0.0,0.0,0.0,0.0,0.0,0.0,0.0,0.0,0.0,0.0,0.0,0.0,0.0,2.8201,0.0,0.0,4.4815,4.6971,4.8277,4.777,4.434,4.3687,4.3509,4.3129,4.3455,4.408,4.5133,4.6421,4.7793,4.9166,5.1373,5.3664,5.5892,5.8308,6.0438,6.2347,6.2123,6.1851,6.1653,6.1889,6.186,6.1551,6.1028,6.0757,6.0717,6.0114,5.9249,5.8272,5.7098,5.6274,5.5563,5.4391,5.3621,5.3043,5.1827,5.057,4.95,4.8589,4.8417,4.8675,0.0,0.0,0.0,0.0,0.0,0.0,0.0,0.1462,0.2957,0.3998,0.4986,0.5412,0.4929,0.5136,0.5089,0.0,0.0,0.0,0.0,1.8563,2.1416,2.5253,2.7328,2.8583,2.9093,2.8017,2.7475,2.7511,2.7046,2.6842,2.6944,2.8159,2.8972,2.9464,3.0353,3.1036,3.1617,3.2035,3.1615,3.0632,2.9952,2.8996,2.7558,2.4143,2.2044,2.0853,1.9988,1.8919,1.8034,1.8943,1.9355,1.9355,1.8448,1.6773,1.4586,1.1635,1.0833,0.0,0.0,0.0,0.0,0.0,0.0,0.0,0.0,0.0,3.5958,3.6621,3.7236,3.9476,4.5411,4.6428,4.7022,4.9274,4.9124,4.7788,4.4865,4.4351,4.4212,4.4212,4.3411,4.3279,4.4461,4.4572,4.5695,4.8419,4.9979,5.2231,5.5567,5.6288,5.8147,6.1356,6.1146,6.1426,6.2178,6.2275,6.2336,6.2193,6.1229,6.0685,6.0635,5.9737,5.8961,5.8265,5.7105,5.6366,5.5818,5.4562,5.3912,5.3684,5.3328,5.2442,5.1057,4.9627,4.9387,4.9817,0.0,0.0,0.0,0.0,0.0,0.0,0.0,0.0198,0.111,0.3228,0.4071,0.4481,0.446,0.4554,0.5476,0.0,0.0,0.0,1.8525,2.0983,2.3851,2.7486,2.8466,2.8944,2.9033,2.7662,2.6765,2.6382,2.6481,2.658,2.6689,2.7944,2.9502,3.131,3.1472,3.2351,3.3668,3.365,3.3192,3.2413,3.2006,3.1218,3.0032,2.7973,2.5256,2.2346,2.0919,2.0054,1.9647,1.9846,1.9889,1.9819,1.9847,1.861,1.6783,1.4826,0.0,1.2306,1.2936,1.6153,2.1366,2.9556,2.6141,2.1201,0.0,0.0,3.9681,4.2867,4.5612,4.865,5.2671,5.2878,5.1528,4.8692,4.8131,4.795,4.7554,4.6962,4.6543,4.6543,4.4749,4.3783,4.4536,4.4572,4.5695,4.8419,4.9194,5.0357,5.2237,5.4919,5.684,5.8018,6.0308,6.1529,6.1417,6.2438,6.2804,6.2651,6.2692,6.1907,6.0427,6.0506,5.9614,5.7929,5.7236,5.6575,5.5945,5.521,5.4984,5.4943,5.377,5.3445,5.3381,5.1489,5.1085,5.1333,0.0,0.0,0.0,0.0,0.0,0.0,0.0,0.0,0.0882,0.3372,0.3906,0.4192,0.4532,0.4114,0.4658,0.0,0.0,0.0,1.7425,2.1583,2.4844,2.7035,2.8051,2.8378,2.8001,2.6931,2.6275,2.6032,2.6217,2.6388,2.6588,2.8543,2.9962,3.0975,3.2374,3.306,3.3201,3.3292,3.2853,3.2101,3.1884,3.1358,3.0592,2.8889,2.6498,2.3909,2.2512,2.1538,0.0,0.0,2.1058,2.1131,2.0103,1.9001,1.7859,1.6382,1.5555,0.0,1.7131,1.7272,0.0,0.0,2.7256,2.9515,3.5876,4.1881,4.6993,5.0253,5.1939,5.3099,5.427,5.3949,5.2453,0.0,4.8244,4.8001,4.8001,4.737,4.6876,4.6876,4.6092,4.5024,4.3853,4.3792,4.4428,4.5966,4.7153,4.8746,5.0903,5.2617,5.4665,5.7164,5.8571,5.9945,6.1298,6.1953,6.2387,6.2537,6.2327,6.1469,6.0231,5.9749,5.8586,5.6931,5.674,5.6271,5.5649,5.5213,5.5091,5.5121,5.4408,5.4027,5.3718,5.2169,5.1953,5.2344,0.0,0.0,0.0,0.0,0.0,0.0297,0.1207,0.1355,0.1865,0.3275,0.3803,0.416,0.4472,0.402,0.4291,0.5786,0.0,0.0,0.0,2.1606,2.5198,2.6713,2.7993,2.8316,2.7576,2.6995,2.6499,2.5916,2.6302,2.6565,2.6857,2.8939,3.0421,3.1352,3.3131,3.3793,3.3625,3.3681,3.3288,3.2618,3.2482,3.188,3.0818,2.9164,2.6927,2.4585,2.3084,2.1795,0.0,0.0,2.0662,2.1186,1.9425,1.876,1.8482,1.7593,1.7665,1.8122,1.8533,0.0,0.0,1.8332,2.8102,3.9008,4.5906,5.0031,5.3311,5.6435,5.6892,5.6326,5.4793,5.4127,5.2972,5.0608,4.8971,4.8001,4.8001,4.737,4.6585,4.5807,4.4187,4.2839,4.2138,4.3016,4.3711,4.3731,4.5202,4.7025,4.9213,5.0629,5.2695,5.5647,5.6945,5.8528,6.0427,6.1323,6.1885,6.2137,6.1749,6.0935,5.9912,5.8664,5.7507,5.6503,5.6469,5.6331,5.5938,5.5381,5.5196,5.528,5.4729,5.4319,5.3922,5.2967,5.2873,5.3184,0.0,0.0,0.0,0.0,0.0,0.1077,0.4269,0.4752,0.4167,0.2564,0.3544,0.4291,0.4049,0.4401,0.4948,0.0,0.0,0.0,1.6757,2.1288,2.4963,2.7457,2.9014,2.9323,2.8189,2.845,2.7742,2.6015,2.6696,2.7261,2.758,2.8931,3.0945,3.3518,3.3853,3.4762,3.6108,3.5862,3.5466,3.4996,3.4826,3.3401,3.1189,2.9234,2.6733,2.3978,2.1925,0.0,0.0,0.0,1.7716,1.9194,1.7655,1.7946,0.0,1.8749,1.9604,0.0,0.0,0.0,2.0043,1.5214,2.9643,4.6064,4.9906,5.3618,5.715,6.0308,6.0388,5.8846,5.5173,5.4512,5.4222,5.3499,5.0326,4.8001,4.8001,4.737,4.5856,4.3087,3.7364,3.5256,0.0,4.2558,4.4006,4.2637,4.3624,4.4926,4.6504,4.9341,5.1434,5.2528,5.5799,5.7842,5.829,6.0483,6.1571,6.1512,6.1418,6.0688,5.9432,5.7376,5.6774,5.7256,5.6877,5.7013,5.7403,5.5989,5.5612,5.5825,5.4512,5.4269,5.4651,5.4189,5.3958,5.3833,0.0,0.0,0.0,0.0,0.0,0.1011,0.4046,0.4509,0.5028,0.6493,0.6319,0.0,0.0,0.0,0.0,0.0,0.0,0.0,1.5246,2.0505,2.424,2.5811,2.828,2.9391,2.8928,2.8967,2.8453,2.7439,2.7645,2.7973,2.8402,2.9654,3.1076,3.2598,3.3794,3.4569,3.494,3.5347,3.5483,3.5355,3.4563,3.3897,3.3058,3.0783,2.7612,2.4138,0.0,0.0,0.0,0.0,1.6731,0.0,1.6879,0.0,0.0,1.6811,1.7579,1.8157,0.0,0.0,1.7497,1.8574,3.4341,5.045,5.3779,5.7459,6.043,6.1456,6.1193,6.0395,5.909,5.6859,5.4948,5.4257,5.1074,4.869,4.869,4.4377,4.007,3.6821,3.425,0.0,0.0,0.0,0.0,4.128,4.2212,4.3487,4.5166,4.7818,5.0204,5.2131,5.4867,5.6884,5.7954,5.9519,6.0659,6.1308,6.1153,6.0455,5.9247,5.7935,5.6973,5.6346,5.6162,5.612,5.6073,5.5291,5.5213,5.5448,5.4634,5.4603,5.5044,5.5115,5.5313,5.5401,0.0,0.0,0.0,0.0,0.0,0.0,0.0,0.0,0.0,0.0,0.0,0.0,0.0,0.0,0.0,0.0,0.0,0.0,0.0,0.0,2.2347,2.3774,2.5862,2.7056,2.7165,2.6958,2.6713,2.64,2.6686,2.7312,2.8336,2.9241,3.0463,3.2008,3.3472,3.4228,3.4498,3.5086,3.5427,3.5332,3.3834,3.2996,3.2384,2.9294,2.5886,0.0,0.0,0.0,0.0,0.0,0.0,0.0,0.0,0.0,0.0,1.4806,1.6232,1.7709,1.7139,2.0862,2.6083,3.0982,4.3204,5.4765,5.7959,6.0555,6.2203,6.2005,6.0603,5.9077,5.7953,5.4659,5.2315,5.284,5.069,4.8629,4.7581,4.2401,3.7932,3.569,3.3646,3.2342,0.0,0.0,0.0,3.9489,4.081,4.2089,4.3425,4.628,4.8852,5.1037,5.3703,5.5869,5.7301,5.8825,5.9876,6.0512,6.0419,5.9802,5.8712,5.8134,5.7248,5.6185,5.6208,5.6023,5.5632,5.5196,5.5272,5.5512,5.5005,5.5079,5.5496,5.5786,5.6041,5.6147,0.0,0.0,0.0,0.0,0.0,0.0,0.0,0.0,0.0,0.0,0.0,0.0,0.0,0.0,0.0,0.0,0.0,0.0,0.0,0.0,0.0,2.1403,2.2164,2.2767,2.3257,2.2955,2.2903,2.3157,2.3896,2.5203,2.714,2.7523,2.9054,3.1477,3.2645,3.3587,3.4361,3.4918,3.5078,3.4731,3.251,3.0845,2.9234,2.5252,0.0,0.0,0.0,0.0,0.0,0.0,0.0,0.0,0.0,0.0,0.0,0.0,0.0,1.8987,1.6394,2.9167,4.4666,5.0523,5.5118,5.9043,6.2108,6.2677,6.2361,6.1714,5.8412,5.4706,0.0,0.0,4.6758,4.9326,4.9342,4.803,4.5049,4.1552,3.9325,0.0,0.0,0.0,0.0,0.0,0.0,3.7196,0.0,4.0897,4.14,4.4778,4.7499,4.9219,5.235,5.4749,5.6235,5.849,5.9545,5.931,5.9635,5.9098,5.8005,5.8137,5.7678,5.6735,5.6862,5.6576,5.6165,5.5723,5.575,5.609,5.5624,5.5618,5.5904,5.6203,5.6199,5.6091,0.0,0.0,0.0,0.0,0.0,0.0,0.0,0.0,0.0,0.0,0.0,0.0,0.0,0.0,0.0,0.0,0.0,0.0,0.0,0.0,0.0,0.0,0.0,0.0,2.2975,2.2876,0.0,0.0,0.0,2.243,2.3542,2.3866,2.4875,2.6517,2.787,2.8635,2.8963,3.0067,3.0069,2.9364,0.0,2.7699,2.6567,0.0,0.0,0.0,0.0,0.0,0.0,0.0,0.0,0.0,0.0,0.0,1.2232,0.0,0.0,2.7124,3.1786,4.2395,5.2823,5.5183,5.8687,6.1796,6.2622,6.0951,5.85,5.5981,5.0362,4.4822,0.0,0.0,0.0,4.6096,4.834,0.0,4.564,4.2123,0.0,0.0,0.0,3.5385,3.5217,3.5213,0.0,0.0,3.7169,3.9757,4.1818,4.4556,4.6977,4.8988,5.1765,5.407,5.5805,5.8631,5.9886,5.9655,6.0808,6.0774,5.9563,5.9338,5.8501,5.7201,5.6756,5.6309,5.5911,5.593,5.6034,5.6244,5.6199,5.6027,5.5704,5.6064,5.5964,5.5618,0.0,0.0,0.0,0.0,0.0,0.0,0.0,0.0,0.0,0.0,0.0,0.0,0.0,0.0,0.0,0.0,0.0,0.0,0.0,0.0,0.0,0.0,0.0,1.7032,1.8033,1.7508,0.0,0.0,0.0,0.0,0.0,1.8998,2.0061,2.1686,2.2896,2.3634,2.4074,0.0,0.0,0.0,0.0,0.0,0.0,0.0,0.0,0.0,0.0,0.0,0.0,0.0,0.0,1.4892,1.5099,1.5225,1.5787,1.8527,0.0,3.775,4.5346,5.2265,5.7727,5.9547,6.0334,6.0327,5.8914,5.6069,5.193,4.5601,3.9932,0.0,0.0,0.0,0.0,0.0,0.0,0.0,4.5531,4.3098,4.1438,0.0,3.8476,0.0,3.6554,3.6935,3.6714,0.0,3.6462,3.8028,4.0083,4.2861,4.5332,4.7429,4.9686,5.2384,5.5417,5.7604,5.8753,5.8769,5.9861,6.0048,5.9446,5.9504,5.8775,5.7511,0.0,5.688,5.6295,5.6599,5.6704,5.6757,5.7015,5.6663,5.6024,5.6343,5.5765,5.4791,0.0,0.0,0.0,0.0,0.0,0.0,0.0,0.0,0.0,0.0,0.4359,0.0,0.0,0.0,0.0,0.0,0.0,0.0,0.0,0.0,0.0,0.0,0.0,0.0,0.0,0.0,0.0,0.0,0.0,0.0,0.0,0.0,0.0,0.0,0.0,0.0,0.0,0.0,0.0,0.0,0.0,0.0,0.0,0.0,0.0,0.0,0.0,0.0,0.0,0.0,1.7036,1.6311,1.7426,1.9544,2.232,2.5665,3.5776,4.748,5.5202,5.8592,6.0368,6.2373,6.0084,5.64,5.2663,4.7858,4.1795,3.3351,0.0,2.7922,3.1702,3.1653,3.5349,4.8685,0.0,4.9547,4.5745,4.4683,4.3861,4.2745,3.9904,3.7634,3.6585,3.8281,3.9046,3.8277,3.6652,3.6265,3.7643,4.0368,4.291,4.5227,4.7319,5.0289,5.4258,5.5698,5.6604,5.7052,5.7736,5.8196,5.8568,5.9023,5.8748,5.7959,5.8199,5.7851,5.713,5.7492,5.7503,5.7346,5.7694,5.7189,5.6337,5.662,5.5479,5.3863,0.0,0.0,0.0,0.0,0.0,0.0,0.0,0.0,0.0,0.0,0.35,0.4499,0.0,0.0,0.0,0.0,0.0,0.0,0.0,0.0,0.0,0.0,0.0,0.0,0.0,0.0,0.0,0.0,0.0,0.0,0.0,0.0,0.0,0.0,0.0,0.0,0.0,0.0,0.0,0.0,0.0,0.0,0.0,0.0,0.0,0.0,0.0,0.0,0.0,0.0,1.9513,2.1018,2.2073,2.435,2.6517,2.6098,3.5359,4.7123,5.3382,5.8284,6.1187,5.9428,5.6463,5.2388,4.6127,3.3179,0.0,0.0,0.0,2.2029,3.0779,2.7579,0.0,5.1812,0.0,0.0,0.0,0.0,4.6686,0.0,0.0,0.0,0.0,0.0,0.0,0.0,0.0,3.6099,3.7125,3.807,4.0295,4.4065,4.7268,4.9312,4.9959,5.2938,5.4557,5.4699,5.6106,5.7442,5.8678,5.845,5.8621,5.9154,5.8557,0.0,5.8257,5.8301,5.7894,5.7248,5.7394,5.651,5.5217,5.5528,5.4753,5.344,0.0,0.0,0.0,0.0,0.0,0.0,0.0,0.3317,0.2595,0.3565,0.4407,0.4713,0.4165,0.4435,0.4341,0.0,0.0,0.0,0.0,0.0,0.0,0.0,0.0,0.0,0.0,0.0,0.0,0.0,0.0,0.0,0.0,0.0,0.0,0.0,0.0,0.0,0.0,0.0,0.0,0.0,0.0,0.0,0.0,0.0,0.0,0.0,0.0,0.0,0.0,0.0,2.1694,2.6129,2.6057,2.8015,3.0729,3.2622,3.8527,4.5669,5.1843,5.6034,5.8856,5.9826,5.7854,5.1987,3.7718,0.0,0.0,0.0,0.0,1.9032,2.5661,0.0,0.0,0.0,0.0,0.0,0.0,0.0,0.0,0.0,0.0,0.0,0.0,0.0,0.0,0.0,0.0,3.635,3.635,3.6177,3.765,4.0958,4.4038,4.5805,4.6269,4.921,5.1014,5.1561,5.3103,5.4421,5.5436,5.5723,5.6195,5.6692,5.6383,5.6293,5.6311,5.6388,5.6107,5.5677,5.5772,5.5025,5.3907,5.4123,5.3325,5.2143,0.0,0.0,0.0,0.0,0.0,0.0,0.0,0.6855,0.5027,0.5887,0.5501,0.497,0.4498,0.4033,0.3769,0.0,0.0,0.0,0.0,0.0,0.0,0.0,0.0,0.0,0.0,0.0,0.0,0.0,0.0,0.0,0.0,0.0,0.0,0.0,0.0,0.0,0.0,0.0,0.0,0.0,0.0,0.0,0.0,0.0,0.0,0.0,0.0,0.0,0.0,0.0,2.3117,2.7527,2.7977,3.0411,3.3917,3.8394,4.1409,4.4626,5.0492,5.2758,5.4278,5.7438,5.5653,4.8379,3.0426,2.1453,0.0,0.0,0.0,1.6533,1.9968,0.0,0.0,0.0,0.0,0.0,0.0,0.0,0.0,0.0,0.0,0.0,0.0,0.0,0.0,0.0,0.0,0.0,3.4633,3.4125,3.4986,3.7327,3.9813,4.1438,4.2118,4.4899,4.6739,4.7649,4.9274,5.0548,5.1584,5.2453,5.3033,5.3306,5.3512,5.3579,5.3583,5.3682,5.3649,5.3515,5.3601,5.308,5.2229,5.2376,5.1749,5.0865,0.0,0.0,0.0,0.0,0.0,0.0,0.0,0.9865,0.8282,0.7432,0.5766,0.4806,0.516,0.2345,0.0439,0.0,0.0,0.0,0.0,0.0,0.0,0.0,0.0,0.0,0.0,0.0,0.0,0.0,0.0,0.0,0.0,0.0,0.0,0.0,0.0,0.0,0.0,0.0,0.0,0.0,0.0,0.0,0.0,0.0,0.0,0.0,0.0,0.0,0.0,0.0,0.0,2.0497,2.5883,3.0796,3.5047,3.7498,0.0,0.0,4.9214,4.8673,4.6932,4.6361,4.1579,3.491,2.6969,0.0,0.0,0.0,1.1889,1.2939,1.6138,1.9437,0.0,0.0,0.0,0.0,0.0,0.0,0.0,0.0,0.0,0.0,0.0,0.0,0.0,0.0,0.0,0.0,3.0893,3.1439,3.2432,3.3846,3.5921,3.6925,3.6614,3.9998,4.2028,4.2618,4.4619,4.6724,4.8898,4.9563,5.0194,5.0744,5.0954,5.1117,0.0,5.1307,5.1277,5.1217,5.1277,5.0797,5.009,5.0175,5.0225,5.0278,0.0,0.0,0.0,0.0,0.0,0.0,0.6432,0.6335,0.6262,0.7244,0.6259,0.5693,0.6375,0.3923,0.1623,0.0126,0.0,0.0,0.0,0.0,0.0,0.0,0.0,0.0,0.0,0.0,0.0,0.0,0.0,0.0,0.0,0.0,0.0,0.0,0.0,0.0,0.0,0.0,0.0,0.0,0.0,0.0,0.0,0.0,0.0,0.0,0.0,0.0,0.0,0.0,0.0,0.0,2.2929,2.6799,0.0,0.0,3.9829,4.2779,4.5771,4.3474,4.0352,4.0763,3.6133,2.9814,2.3582,0.0,0.0,1.078,1.1103,1.2022,1.3172,1.5473,1.7593,0.0,2.6502,3.3122,0.0,0.0,0.0,0.0,0.0,0.0,0.0,0.0,0.0,0.0,0.0,3.0685,3.0075,3.0024,3.0708,3.2249,3.2678,3.2725,3.2266,3.5219,3.7086,3.7949,4.0015,4.1614,4.2798,4.3944,4.4618,4.4954,4.5416,4.5715,0.0,4.5905,4.6184,4.6561,4.6639,4.6701,4.6822,4.7479,4.772,4.7821,0.0,0.0,0.0,0.0,0.0,0.3765,0.4281,0.4633,0.5485,0.732,0.717,0.7056,0.746,0.6108,0.3778,0.0305,0.0,0.0,0.0,0.0,0.0,0.0,0.0,0.0,0.0,0.0,0.0,0.0,0.0,0.0,0.0,0.0,0.0,0.0,0.0,0.0,0.0,0.0,0.0,0.0,0.0,0.0,0.0,0.0,0.0,0.0,0.0,0.0,0.0,0.0,0.0,0.0,0.0,0.0,0.0,0.0,3.7503,4.0023,4.1772,3.9249,3.6292,3.6764,3.2851,2.7313,0.0,0.0,1.092,0.9828,1.0421,1.115,1.1247,1.326,1.4586,1.3517,2.226,3.08,3.5357,0.0,0.0,0.0,0.0,0.0,0.0,0.0,0.0,0.0,0.0,3.0911,2.9869,2.9221,2.9487,3.0748,2.9804,2.905,2.848,3.0724,3.2419,3.3583,3.5521,3.6776,3.7452,3.8607,3.9301,3.9528,4.0045,4.0409,0.0,4.0726,4.122,4.1958,4.2269,4.2636,4.3075,4.417,4.4798,4.5242,0.0,0.0,0.0,0.0,0.0,0.0,0.5642,0.6665,0.7499,0.8122,0.8651,0.8773,0.8252,0.8456,0.6318,0.0511,0.0,0.0,0.0,0.0,0.0,0.0,0.0,0.0,0.0,0.0,0.0,0.0,0.0,0.0,0.0,0.0,0.0,0.0,0.0,0.0,0.0,0.0,0.0,0.0,0.0,0.0,0.0,0.0,0.0,0.0,0.0,0.0,0.0,0.0,0.0,0.0,0.0,0.0,0.0,0.0,3.4234,3.7779,3.7478,3.6605,3.5432,3.3741,3.0888,2.678,0.0,1.5168,1.1201,1.0122,0.971,0.9762,1.0559,1.3205,1.414,1.0521,1.9124,2.6286,2.6352,0.0,0.0,0.0,0.0,0.0,0.0,0.0,0.0,0.0,0.0,0.0,2.9869,2.8986,2.8669,2.9143,2.7323,2.599,2.5252,2.6858,2.83,2.9484,3.1163,3.2588,3.3664,3.4353,3.4894,3.5277,3.5465,3.581,0.0,3.6367,3.6972,3.7846,3.8795,3.9031,3.8994,4.0076,4.147,4.285,0.0,0.0,0.0,0.0,0.0,0.0,0.0,0.5502,0.6421,0.7212,0.7093,0.6606,0.5708,0.7447,0.7962,0.6112,0.2296,0.0,0.0,0.0,0.0,0.0,0.0,0.0,0.0,0.0,0.0,0.0,0.0,0.0,0.0,0.0,0.0,0.0,0.0,0.0,0.0,0.0,0.0,0.0,0.0,0.0,0.0,0.0,0.0,0.0,0.0,0.0,0.0,0.0,0.0,0.0,0.0,0.0,0.0,0.0,0.0,0.0,3.2046,3.4026,3.5198,3.1205,2.7798,2.364,1.6948,1.296,1.0373,0.9251,0.8784,0.8878,0.9736,1.0992,1.2266,1.3403,1.8624,0.0,0.0,0.0,0.0,0.0,0.0,0.0,0.0,0.0,0.0,0.0,0.0,3.23,3.0685,2.9856,2.798,2.5013,2.5791,2.5518,2.397,2.3872,2.4588,2.6047,2.6725,2.7641,2.8682,2.9428,3.0342,0.0,3.1472,3.1974,3.2648,3.2298,3.3044,3.4447,3.4765,3.5852,3.7428,3.8396,3.9826,4.1328,0.0,0.0,0.0,0.0,0.0,0.0,0.0,0.3967,0.5464,0.6676,0.7055,0.6317,0.395,0.6688,0.8681,0.8632,0.3342,0.0,0.0,0.0,0.0,0.0,0.0,0.0,0.0,0.1934,0.16,0.0939,0.0919,0.09,0.0901,0.0878,0.0,0.0,0.0,0.0,0.0,0.0,0.0,0.0,0.0,0.0,0.0,0.0,0.0,0.0,0.0,0.0,0.0,0.0,0.0,0.0,0.0,0.0,0.0,0.0,2.048,0.0,0.0,3.1367,3.1593,2.8119,2.5215,2.1356,1.416,1.1446,1.011,0.8866,0.8375,0.8358,0.8916,0.9552,1.0743,1.3039,1.9485,0.0,0.0,0.0,0.0,0.0,0.0,0.0,0.0,0.0,0.0,0.0,0.0,3.1758,3.0519,3.065,2.8699,2.4394,2.4453,2.4074,2.2922,2.2237,2.2162,2.2803,2.328,2.3903,2.464,2.5388,2.6462,2.7793,2.8022,2.8667,0.0,2.9313,2.9953,3.1113,3.1718,3.3096,3.4891,3.617,3.7931,3.9765,0.0,0.0,0.0,0.0,0.0,0.0,0.0,0.2169,0.4462,0.6316,0.7927,0.7223,0.2796,0.5767,0.8202,0.8476,0.0,0.0,0.0,0.0,0.0,0.0,0.0,0.0,0.502,0.5097,0.4311,0.2686,0.2715,0.2797,0.2886,0.2817,0.1901,0.031,0.0,0.0,0.0,0.0,0.0,0.0,0.0,0.0,0.0,0.0,0.0,0.0,0.0,0.0,0.0,0.0,0.0,0.0,0.0,0.0,0.0,0.0,0.0,0.0,0.0,0.0,0.0,0.0,0.0,1.9642,1.2386,1.0859,0.0,0.9069,0.8353,0.8028,0.8001,0.8675,0.9435,1.0122,0.0,0.0,0.0,0.0,0.0,0.0,0.0,0.0,0.0,0.0,0.0,0.0,0.0,3.0387,2.9837,3.1308,3.0489,2.6769,2.3738,2.2104,2.2122,2.1607,2.0823,1.9824,2.0669,2.1212,2.1444,2.2088,2.3296,0.0,2.5149,2.5896,2.6911,2.7243,2.7604,2.8058,2.9597,3.0791,3.1838,3.3644,3.597,3.8236,0.0,0.0,0.0,0.0,0.0,0.0,0.0,0.0,0.0,0.0,0.5648,0.4604,0.099,0.145,0.3795,0.0,0.0,0.0,0.0,0.0,0.0,0.0,0.0,0.0,0.5017,0.5042,0.4844,0.4494,0.5494,0.6568,0.7675,0.751,0.5997,0.3342,0.1033,0.0,0.0,0.0,0.0,0.0,0.0,0.0,0.0,0.0,0.0,0.0,0.0,0.0,0.0,0.0,0.0,0.0,0.0,0.0,0.0,0.0,1.0984,1.2533,1.518,0.0,2.1461,1.9104,1.7685,1.6014,0.0,1.2938,1.3162,0.0,0.0,0.0,0.0,0.0,0.0,0.0,0.0,0.0,0.0,0.0,0.0,0.0,0.0,0.0,0.0,0.0,0.0,0.0,3.1708,3.1452,3.1709,3.2165,3.1243,2.8834,2.6687,2.4548,2.2501,2.1231,2.0054,1.8911,1.8447,1.8344,1.8604,1.9321,2.0707,2.2572,2.3129,2.4211,2.5613,2.5442,2.602,2.7101,2.8046,2.9408,3.106,3.2839,3.5166,3.756,0.0,0.0,0.0,0.0,0.0,0.0,0.0,0.0,0.0,0.0,0.0,0.2022,0.0191,0.0,0.0,0.0,0.0,0.0,0.0,0.0,0.0,0.0,0.0,0.1249,0.3903,0.4661,0.5236,0.5596,0.6292,0.7372,0.8771,0.7969,0.7222,0.6376,0.1959,0.0,0.0,0.0,0.0,0.0,0.0,0.0,0.0,0.0,0.0,0.0,0.0,0.5774,0.0,0.734,0.8139,0.887,0.0,0.0,0.0,0.0,1.0211,1.0311,1.1085,1.392,1.6302,1.479,1.37,1.2955,1.2803,0.0,0.0,0.0,0.0,0.0,0.0,0.0,0.0,0.0,0.0,0.0,0.0,0.0,0.0,0.0,0.0,0.0,0.0,0.0,0.0,0.0,3.191,3.2079,3.2398,3.189,3.1055,2.9973,2.7811,2.5487,2.2977,2.1286,1.9607,1.8039,1.7155,1.678,1.7014,1.7454,1.8544,2.0206,2.1359,2.2443,2.3437,2.4326,2.5005,2.5618,2.7198,2.8705,3.0253,3.241,3.4897,3.7311,0.0,0.0,0.0,0.0,0.0,0.0,0.0,0.0,0.0,0.0,0.0,0.0,0.0,0.0,0.0,0.0,0.0,0.0,0.0,0.0,0.0,0.0,0.0,0.1021,0.3216,0.4462,0.5507,0.6362,0.6395,0.7108,0.8365,0.7265,0.7416,0.8391,0.2586,0.0,0.0,0.0,0.0,0.0,0.0,0.0,0.0,0.0,0.0,0.0,0.0,0.0,0.0,0.666,0.7353,0.7576,0.8289,0.0,0.0,0.0,0.0,0.0,1.088,1.1415,1.1615,1.201,1.141,1.1097,0.0,0.0,0.0,0.0,0.0,0.0,0.0,0.0,0.0,0.0,0.0,0.0,0.0,0.0,0.0,0.0,0.0,0.0,0.0,0.0,0.0,0.0,3.1782,3.1782,3.1782,3.1005,3.0522,3.0319,2.8231,2.6034,2.3726,2.172,1.9694,1.7552,1.6717,1.6283,1.6191,1.6328,1.6992,1.8125,0.0,0.0,2.126,2.3345,2.41,2.414,2.6472,2.8077,2.9406,3.2034,3.4618,3.698,0.0,0.0,0.0,0.0,0.0,0.0,0.0,0.0,0.0,0.0,0.0,0.0,0.0,0.0,0.0,0.0,0.0,0.0,0.0,0.0,0.0,0.0,0.0,0.1983,0.6238,0.5468,0.5704,0.7134,0.7634,0.836,0.9321,1.0164,0.9312,0.6842,0.2117,0.0,0.0,0.0,0.0,0.0,0.0,0.0,0.0,0.0,0.0,0.0,0.0,0.0,0.0,0.4758,0.5721,0.6779,0.6402,0.0,0.0,0.0,0.0,0.0,0.9765,1.0323,1.0704,1.2926,1.311,1.2405,0.0,0.0,0.0,0.0,0.0,0.0,0.0,0.0,0.0,0.0,0.0,0.0,0.0,0.0,0.0,0.0,0.0,0.0,0.0,0.0,0.0,2.8793,2.9012,2.9012,2.9012,2.9977,3.0342,3.0006,2.9337,2.7751,2.5219,2.2913,2.0602,1.8305,1.7734,1.6815,1.5653,1.6148,1.6679,1.7237,0.0,1.9677,2.076,2.1644,2.261,2.3695,2.5005,2.6584,2.8444,3.1106,3.3301,3.5353,0.0,0.0,0.0,0.0,0.0,0.0,0.0,0.0,0.0,0.0,0.0,0.0,0.0,0.0,0.0,0.0,0.0,0.0,0.0,0.0,0.0,0.4908,0.4174,0.4757,0.6948,0.7134,0.8021,0.9684,1.0249,1.0972,1.1819,1.1533,0.9843,0.6825,0.2097,0.0,0.0,0.0,0.0,0.0,0.0,0.0,0.0,0.0,0.0,0.0,0.0,0.0,0.0,0.0,0.4797,0.5538,0.6592,0.0,0.0,0.0,0.0,0.0,0.8016,1.16,1.5114,1.6085,1.4078,1.1562,0.0,0.0,0.0,0.0,0.0,0.0,0.0,0.0,0.0,0.0,0.0,0.0,0.0,0.0,0.0,0.0,0.0,0.0,0.0,0.0,0.0,2.5314,2.5403,2.5773,2.6505,2.8871,2.9551,2.8213,2.7853,2.6977,2.5581,2.3227,2.1108,1.9202,1.8005,1.695,1.6044,1.6361,1.6528,1.6703,0.0,1.8998,1.9349,2.0804,2.1676,2.2331,2.4296,2.5926,2.7682,3.1803,3.4117,3.5632,0.0,0.0,0.0,0.0,0.0,0.0,0.0,0.0,0.0,0.0,0.0,0.0,0.0,0.0,0.0,0.0,0.0,0.0,0.0,0.0,0.6177,0.8679,0.7938,0.8171,0.9618,0.9963,1.0966,1.2656,1.2895,1.311,1.3271,1.1977,0.9702,0.6555,0.3611,0.1448,0.0,0.0,0.0,0.0,0.0,0.0,0.0,0.0,0.0,0.0,0.0,0.0,0.0,0.0,0.0,0.0,0.0,0.0,0.0,0.5767,0.5866,0.6354,0.6778,1.1559,1.6463,1.6691,0.0,1.1349,1.1054,0.0,0.0,0.0,0.0,0.0,0.0,0.0,0.0,0.0,0.0,0.0,0.0,0.0,0.0,0.0,0.0,0.0,0.0,0.0,2.2888,2.2888,2.216,2.2626,2.4719,2.7243,2.7631,2.5514,2.5195,2.4935,2.4688,2.29,2.1307,1.9997,1.8582,1.7626,1.707,1.6888,1.6691,1.657,1.7885,1.8122,1.7811,1.9768,2.0613,2.0845,2.3354,2.5509,2.7721,3.1988,3.4501,3.6071,0.0,0.0,0.0,0.0,0.0,0.0,0.0,0.0,0.0,0.0,0.0,0.0,0.0,0.0,0.0,0.0,0.0,0.0,0.0,0.0,0.5772,0.7458,0.861,1.1806,1.7366,1.4675,1.3936,1.5503,1.4865,1.3598,1.1753,1.1451,0.9013,0.5002,0.7843,0.5699,0.0,0.0,0.0,0.0,0.0,0.0,0.0,0.0,0.0,0.0,0.0,0.0,0.0,0.0,0.0,0.0,0.0,0.0,0.4048,0.3417,0.5036,0.7009,0.6911,0.7654,0.8939,1.1103,0.0,0.0,1.3061,0.0,0.0,0.0,0.0,0.0,0.0,0.0,0.0,0.0,0.0,0.0,0.0,0.0,0.0,0.0,0.0,0.0,0.0,0.0,2.2888,2.2888,2.002,2.0028,2.4122,2.457,2.3779,2.1729,2.168,2.1743,2.1977,2.1831,2.1352,2.0654,2.0204,1.9572,1.881,1.78,1.7235,1.7021,1.6843,1.6608,1.6453,1.7893,1.8878,1.9631,2.1634,2.5106,2.9168,3.0347,3.2879,3.5745,0.0,0.0,0.0,0.0,0.0,0.0,0.0,0.0,0.0,0.0,0.0,0.0,0.0,0.0,0.0,0.0,0.0,0.0,0.0,0.4581,0.6071,0.8606,0.9677,1.2109,1.6168,1.5349,1.5598,1.7117,1.5072,1.2953,1.0779,1.042,0.7756,0.3289,0.3583,0.3097,0.1969,0.0581,0.0,0.0,0.0,0.0,0.0,0.0,0.0,0.0,0.0,0.0,0.0,0.0,0.0362,0.0911,0.0,0.269,0.3641,0.17,0.1866,0.2978,0.4347,0.5915,0.7831,1.0642,0.0,0.0,0.0,0.0,0.0,0.0,0.0,0.0,0.0,0.0,0.0,0.0,0.0,0.0,0.0,0.0,0.0,0.0,0.0,0.0,0.0,0.0,2.2148,2.0314,1.8997,1.9095,2.0956,2.1054,2.0805,2.0323,2.0745,2.1055,2.1151,2.0113,1.9475,1.9256,1.8991,1.8455,1.7632,1.7489,1.7139,1.6664,1.6985,1.7056,1.7092,1.7931,1.8626,1.9376,2.2079,2.4556,2.6883,2.9394,3.1199,3.2636,0.0,0.0,0.0,0.0,0.0,0.0,0.0,0.0,0.0,0.0,0.0,0.0,0.0,0.0,0.0,0.0,0.0,0.0,0.4868,0.4885,0.6078,0.8725,0.976,1.1656,1.4594,1.5833,1.6829,1.7629,1.4986,1.2592,1.0458,0.9144,0.6747,0.348,0.1469,0.1397,0.2713,0.154,0.0644,0.0,0.0,0.0,0.0,0.0,0.0,0.0,0.0,0.0,0.0,0.0,0.0,0.0,0.0,0.0,0.2597,0.1537,0.0641,0.0495,0.279,0.5122,0.7775,0.0,0.0,0.0,0.0,0.0,0.0,0.0,0.0,0.0,0.0,0.0,0.0,0.0,0.0,0.0,0.0,0.0,0.0,0.0,0.0,0.0,0.0,0.0,2.1657,1.87,1.8228,1.8333,1.8874,1.8912,1.9026,1.9325,1.9275,1.9264,1.9358,1.839,1.7754,1.7422,1.7389,1.7319,1.7305,1.7264,1.6988,1.656,1.6887,1.7014,1.7054,1.7774,1.8617,1.9691,2.2177,2.3882,2.5259,2.7943,2.9532,3.0609,0.0,0.0,0.0,0.0,0.0,0.0,0.0,0.0,0.0,0.0,0.0,0.0,0.0,0.0,0.0,0.0,0.0,0.0,0.4798,0.4867,0.5652,0.7327,0.8687,1.0805,1.3789,1.66,1.769,1.7001,1.4776,1.2727,1.0792,0.7662,0.6152,0.5966,0.3113,0.179,0.1789,0.2852,0.2032,0.0013,0.0,0.0,0.0,0.0,0.0,0.0,0.0,0.0,0.0,0.0,0.0,0.0,0.0,0.0,0.0,0.3101,0.2027,0.0507,0.2809,0.5123,0.0,0.0,0.0,0.0,0.0,0.0,0.0,0.0,0.0,0.0,0.0,0.0,0.0,0.0,0.0,0.0,0.0,0.0,0.0,0.0,0.0,0.0,0.0,0.0,0.0,1.87,1.7679,1.753,1.8397,1.8436,1.845,1.845,1.6717,1.5913,1.6194,1.6785,1.6482,1.5265,1.5556,1.6636,1.8331,1.7319,1.6894,1.6864,1.6401,1.6088,1.5999,1.713,1.8691,2.0496,2.1572,2.3146,2.4884,2.5839,2.7878,3.0196,0.0,0.0,0.0,0.0,0.0,0.0,0.0,0.0,0.0,0.0,0.0,0.0,0.0,0.0,0.0,0.0,0.0,0.0,0.4793,0.486,0.5641,0.7327,0.8777,0.9986,1.094,1.2413,1.4184,1.6228,1.4467,1.1729,0.8064,0.6749,0.5724,0.4951,0.4532,0.3872,0.3112,0.3251,0.2486,0.1126,0.0329,0.0,0.0,0.0,0.0,0.0,0.0,0.0,0.0,0.0,0.0,0.0,0.0,0.0,0.0,0.0924,0.0611,0.0833,0.4631,0.0,0.0,0.0,0.0,0.0,0.0,0.0,0.0,0.0,0.0,0.0,0.0,0.0,0.0,0.0,0.0,0.0,0.0,0.0,0.0,0.0,0.0,0.0,0.0,0.0,0.0,0.0,1.6637,1.562,1.5871,1.5462,1.5184,1.5184,1.4883,1.5209,1.6194,1.5955,1.4984,1.3336,1.4338,1.4968,1.5312,1.5533,1.5588,1.5536,1.6083,1.6444,1.6669,1.7679,1.86,1.9465,2.0567,2.1797,2.3093,2.4591,2.6508,2.845,0.0,0.0,0.0,0.0,0.0,0.0,0.0,0.0,0.0,0.0,0.0,0.0,0.0,0.0,0.0,0.0,0.0,0.0,0.0,0.4842,0.5551,0.7023,0.8149,0.9445,1.0977,1.2245,1.3418,1.4511,1.2836,1.0234,0.6862,0.6582,0.6227,0.5812,0.5686,0.5346,0.4786,0.3765,0.2703,0.1607,0.0455,0.0,0.0,0.0,0.0,0.0,0.0,0.0,0.0,0.0,0.0,0.0,0.0,0.0,0.0,0.3285,0.2151,0.0794,0.4434,0.0,0.0,0.0,0.0,0.0,0.0,0.0,0.0,0.0,0.0,0.0,0.0,0.0,0.0,0.0,0.0,0.0,0.0,0.0,0.0,0.0,0.0,0.0,0.0,0.0,0.0,0.0,1.6981,1.568,1.485,1.417,1.3854,1.3974,1.4203,1.4811,1.5827,1.5624,1.4949,1.3798,1.3428,1.319,1.3094,1.4242,1.4896,1.5117,1.6088,1.6747,1.7207,1.795,1.8473,1.8932,2.0089,2.097,2.1782,2.3536,2.5167,2.6645,0.0,0.0,0.0,0.0,0.0,0.0,0.0,0.0,0.0,0.0,0.0,0.0,0.0,0.0,0.0,0.0,0.0,0.0,0.0,0.0,0.5307,0.6546,0.7324,0.9313,1.2728,1.4293,1.3895,1.1487,1.0329,0.8669,0.658,0.6916,0.7281,0.7631,0.6541,0.6228,0.6357,0.4294,0.2809,0.1733,0.0493,0.014,0.0308,0.0084,0.0,0.0,0.0,0.0,0.0,0.0,0.0,0.0,0.0,0.0,0.1239,0.7522,0.5215,0.1103,0.0,0.0,0.0,0.0,0.0,0.0,0.0,0.0,0.0,0.0,0.0,0.0,0.0,0.0,0.0,0.0,0.0,0.0,0.0,0.0,0.0,0.0,0.0,0.0,0.0,0.0,0.0,0.0,0.0,1.7013,1.4903,1.4268,1.4072,1.4397,1.4397,1.4683,1.5283,1.5624,1.577,1.5682,1.3084,1.1722,1.1584,1.3329,1.4565,1.536,1.6293,1.6986,1.7532,1.798,1.8371,1.8787,1.9916,2.0544,2.1005,2.2686,2.3978,2.5031,0.0,0.0,0.0,0.0,0.0,0.0,0.0,0.0,0.0,0.0,0.0,0.0,0.0,0.0,0.0,0.0,0.0,0.0,0.0,0.0,0.4552,0.6594,0.8953,1.0543,1.126,1.1068,0.8857,0.4549,0.8883,0.8927,0.4953,0.6725,0.7258,0.6694,0.6541,0.6208,0.5643,0.4238,0.3369,0.2789,0.0795,0.1161,0.2686,0.0741,0.0,0.0,0.0,0.0,0.0,0.0,0.0,0.0,0.0,0.0,0.0287,0.1786,0.3734,0.5502,0.0,0.0,0.0,0.0,0.0,0.0,0.0,0.0,0.0,0.0,0.0,0.0,0.0,0.0,0.0,0.0,0.0,0.0,0.0,0.0,0.0,0.0,0.0,0.0,0.0,0.0,0.0,0.0,0.0,1.7325,1.4935,1.4902,1.4994,1.5086,1.5086,1.5147,1.5313,1.5624,1.5536,1.5011,1.4645,1.324,1.0924,1.2324,1.3801,1.527,1.626,1.6986,1.7532,1.7883,1.8266,1.8659,1.9145,1.9929,2.0933,2.205,2.354,2.511,0.0,0.0,0.0,0.0,0.0,0.0,0.0,0.0,0.0,0.0,0.0,0.0,0.0,0.0,0.0,0.0,0.0,0.0,0.0,0.3219,0.5139,0.742,0.9378,1.0235,0.985,1.129,0.9275,0.3601,0.6588,0.7157,0.5472,0.6734,0.7341,0.7355,0.7061,0.6899,0.671,0.4803,0.3869,0.3576,0.2465,0.1981,0.1791,0.049,0.0,0.0,0.0,0.0,0.0,0.0,0.0,0.0,0.0,0.0,0.0166,0.0996,0.2957,0.5096,0.0,0.0,0.0,0.0,0.0,0.0,0.0,0.0,0.0,0.0,0.0,0.0,0.0,0.0,0.0,0.0,0.0,0.0,0.0,0.0,0.0,0.0,0.0,0.0,0.0,0.0,0.0,0.0,0.0,1.7748,1.5399,1.5448,1.5462,1.5313,1.5313,1.5373,1.5536,1.5712,1.561,1.5284,1.5298,1.437,1.2678,1.2938,1.394,1.5476,1.6275,1.7002,1.7664,1.7949,1.8249,1.8586,1.8911,1.9507,2.0341,2.1737,2.2908,2.3973,0.0,0.0,0.0,0.0,0.0,0.0,0.0,0.0,0.0,0.0,0.0,0.0,0.0,0.0,0.0,0.0,0.0,0.0,0.0,0.2589,0.5239,0.7701,0.893,0.9454,0.9249,1.2201,1.1384,0.6561,0.5137,0.5342,0.0,0.7009,0.7492,0.839,0.7744,0.7656,0.7802,0.5368,0.3974,0.3392,0.3449,0.2369,0.0668,0.0191,0.0,0.0,0.0,0.0,0.0,0.0,0.0,0.0,0.0,0.0,0.0339,0.2064,0.2558,0.3276,0.0,0.0,0.0,0.0,0.0,0.0,0.0,0.0,0.0,0.0,0.0,0.0,0.0,0.0,0.0,0.0,0.0,0.0,0.0,0.0,0.0,0.0,0.0,0.0,0.0,0.0,0.0,0.0,0.0,1.8385,1.6563,1.6097,1.5741,1.5448,1.5462,1.5624,1.5926,1.5926,1.587,1.5799,1.5522,1.5178,1.478,1.4165,1.44,1.5296,1.6095,1.6926,1.7811,1.804,1.8275,1.855,1.8928,1.925,1.9713,2.1441,2.2256,2.2735,0.0,0.0,0.0,0.0,0.0,0.0,0.0,0.0,0.0,0.0,0.0,0.2094,0.2222,0.0899,0.0,0.0,0.0,0.0,0.0,0.0,0.0,0.5311,0.7463,0.9352,1.1016,1.0591,1.1285,1.3214,0.7472,0.0,0.0,0.0,0.0,0.8472,0.8211,0.7557,0.6561,0.5099,0.2959,0.0555,0.0551,0.1797,0.3371,0.0922,0.0,0.0,0.0,0.0,0.0,0.0,0.0,0.0,0.0,0.0,0.0,0.0,0.0,0.0,0.0,0.0,0.0,0.0,0.0,0.0,0.0,0.0,0.0,0.0,0.0,0.0,0.0,0.0,0.0,0.0,0.0,0.0,0.0,0.0,0.0,0.0,0.0,0.0,0.0,0.0,0.0,0.0,1.9654,1.9489,1.9181,1.7258,1.6139,1.6083,1.6083,1.6207,1.649,1.649,1.6246,1.5799,1.5741,1.5418,1.4808,1.4972,1.4515,1.3646,1.5314,1.6696,1.7743,1.8117,1.8351,1.8531,1.8878,1.9261,1.9708,2.0717,2.1689,2.2628,0.0,0.0,0.0,0.0,0.0,0.0,0.0,0.0,0.0,0.0,0.0,0.1011,0.1011,0.0401,0.0,0.0,0.0,0.0,0.0,0.0,0.0,0.2137,0.4991,0.7379,0.9179,0.9541,0.9529,0.917,0.0,0.0,0.0,1.2141,1.1734,0.0,0.0,0.0,0.0,0.0,0.0,0.0,0.0,0.0747,0.1892,0.2226,0.1367,0.0,0.0,0.0,0.0,0.0,0.0,0.0,0.0,0.0,0.0,0.0,0.0,0.0,0.0,0.0,0.0,0.0,0.0,0.0,0.0,0.0,0.0,0.0,0.0,0.0,0.0,0.0,0.0,0.0,0.0,0.0,0.0,0.0,0.0,0.0,0.0,0.0,0.0,0.0,0.0,0.0,1.9925,1.9797,2.001,1.9065,1.85,1.85,1.85,1.8547,1.8656,1.699,1.5955,1.5507,1.5712,1.5654,1.5344,1.5328,1.4845,1.4154,1.5457,1.6421,1.7117,1.7772,1.8266,1.8641,1.8895,1.9227,1.968,2.0678,2.1391,2.2023,0.0,0.0,0.0,0.0,0.0,0.0,0.0,0.0,0.0,0.0,0.0,0.0,0.0085,0.0,0.0,0.0,0.0,0.0,0.0,0.0,0.0,0.0,0.0,0.4768,0.6855,0.7927,0.6927,0.3722,0.0,0.0,0.8353,1.5976,1.6939,0.0,0.87,0.7414,0.0,0.0,0.0,0.0,0.0,0.0,0.0477,0.4869,0.3816,0.0,0.0,0.0,0.0,0.0,0.0,0.0,0.0,0.0,0.0,0.0,0.0,0.0,0.0,0.0,0.0,0.0,0.0,0.0,0.0,0.0,0.0,0.0,0.0,0.0,0.0,0.0,0.0,0.0,0.0,0.0,0.0,0.0,0.0,0.0,0.0,0.0,0.0,0.0,0.0,0.0,2.0273,2.0065,2.0304,2.0304,2.0304,2.0304,2.0304,2.0304,2.0304,1.7365,1.577,1.5536,1.5712,1.5799,1.5799,1.5462,1.5056,1.4732,1.5566,1.6191,1.6675,1.7542,1.8201,1.8714,1.8913,1.9193,1.9615,2.0458,2.0998,2.1453,0.0,0.0,0.0,0.0,0.0,0.0,0.0,0.0,0.0,0.0,0.0,0.0,0.0304,0.0,0.0,0.0,0.0,0.0,0.0,0.0,0.0,0.0,0.0,0.0,0.5146,0.5168,0.3545,0.0,0.0,0.0,0.512,1.747,2.277,2.16,1.2726,0.7282,0.4725,0.0,0.0,0.0,0.0,0.0,0.0947,0.9624,0.7544,0.0,0.0,0.0,0.0,0.0,0.0,0.0,0.0,0.0,0.0,0.0,0.0,0.0,0.0,0.0,0.0,0.0,0.0,0.0,0.0,0.0,0.0,0.0,0.0,0.0,0.0,0.0,0.0,0.0,0.0,0.0,0.0,0.0,0.0,0.0,0.0,0.0,0.0,0.0,0.0,0.0,2.0761,2.0595,2.0304,2.0304,2.0304,2.0304,2.0304,2.0304,2.0304,1.7546,1.6166,1.6166,1.5913,1.5799,1.5799,1.5462,1.4932,1.4383,1.5374,1.6123,1.6686,1.7743,1.836,1.862,1.8896,1.9212,1.9499,1.9636,2.0339,2.1228,0.0,0.0,0.0,0.0,0.0,0.0,0.0,0.0,0.0,0.0,0.0,0.0,0.0,0.1167,0.0,0.0,0.0,0.0,0.0,0.0,0.0,0.0,0.0,0.0,0.0,0.1782,0.0,0.0,0.0,0.7725,1.0749,1.9445,2.3401,2.2906,1.5788,1.2706,1.2856,1.3172,0.0,0.0,0.0,0.0,0.0,1.2177,1.239,1.0735,0.0,0.0,0.0,0.0,0.0,0.0,0.0,0.1622,0.0,0.0,0.0,0.0,0.0,0.0,0.0,0.0,0.0,0.0,0.0,0.0,0.0,0.0,0.0,0.0,0.0,0.0,0.0,0.0,0.0,0.0,0.0,0.0,0.0,0.0,0.0,0.0,0.0,0.0,0.0,0.0,0.0,2.0662,2.0304,2.0304,2.0304,2.0304,2.0304,1.9372,1.744,1.6629,1.6194,1.6194,1.5492,1.5374,1.5799,1.5856,1.5755,1.5566,1.6065,1.6436,1.6686,1.7766,1.842,1.8751,1.8984,1.9152,1.9341,1.9609,1.9963,2.038,0.0,0.0,0.0,0.0,0.0,0.0,0.0,0.0,0.0,0.1507,0.0,0.0,0.0,0.0,0.1099,0.0085,0.0,0.0,0.0,0.0,0.0,0.0,0.0,0.0,0.0,0.0,0.0,0.0,0.0,0.0,0.0,1.8016,2.1032,2.1804,1.8988,1.6018,0.0,0.0,0.0,0.1476,0.0,0.0,1.3498,0.0,1.5051,0.0,0.0,0.0,0.0,0.0,0.0,0.0,0.0,0.1602,0.0,0.0,0.0,0.0,0.0,0.0,0.0,0.0,0.0,0.0,0.0,0.0,0.0,0.0,0.0,0.0,0.0,0.0,0.0,0.0,0.0,0.0,0.0,0.0,0.0,0.0,0.0,0.0,0.0,0.0,0.0,0.0,0.0,0.0,1.9904,1.9904,2.001,2.0304,2.0407,1.9491,1.7501,1.664,1.6111,1.5885,1.5374,1.5374,1.5799,1.6083,1.6194,1.6222,1.649,1.6596,1.6686,1.7822,1.8502,1.8806,1.8949,1.9088,1.9237,1.9518,1.9701,1.9906,0.0,0.0,0.0,0.0,0.0,0.0,0.0,0.0,0.0133,0.1075,0.0,0.0,0.0,0.0,0.0,0.0269,0.0,0.0,0.0,0.0,0.0,0.0,0.0,0.0,0.0,0.0,0.0,0.0,0.0,0.0,0.0,0.0,1.5885,1.8663,2.2032,1.645,0.4952,0.0,1.0401,0.4792,0.0,0.7923,1.3649,0.0,0.0,0.0,1.4701,1.5029,0.0,0.0,0.0,0.0,0.0,0.1518,0.0,0.0,0.0,0.0,0.0,0.0,0.0,0.0,0.0,0.0,0.0,0.0,0.0,0.0,0.0,0.0,0.0,0.0,0.0,0.0,0.0,0.0,0.0,0.0,0.0,0.0,0.0,0.0,0.0,0.0,0.0,0.0,1.9545,1.9101,1.9101,1.9101,1.9464,2.0181,2.0518,2.0668,2.0668,1.7708,1.5913,1.5343,1.5654,1.5799,1.5827,1.6111,1.6222,1.6222,1.649,1.6623,1.6712,1.798,1.8619,1.8788,1.8788,1.8949,1.9204,1.9277,1.9467,1.9826,0.0,0.0,0.0,0.0,0.0,-0.6323,-0.4907,-0.2135,0.0122,0.0,0.0,0.0,0.3404,0.3565,0.2658,0.021,0.0,0.0,0.0,0.0,0.0,0.0,0.0,0.0,0.0,0.0,0.0,0.0,0.0,0.2141,0.6254,0.712,0.9164,1.2214,1.5361,1.3449,0.8079,1.2265,0.0,0.0,0.9566,0.9818,0.0,0.0,0.0,0.0,0.0,1.3823,0.0,0.0,0.779,0.572,0.0,0.0,0.0,0.0,0.0,0.0,0.3568,0.0,0.0,0.0,0.0,0.0,0.0,0.0,0.0,0.0,0.0,0.0,0.0,0.0,0.0,0.0,0.0,0.0,0.0,0.0,0.0,0.0,0.0,0.0,0.0,0.0,0.0,0.0,1.925,1.9101,1.9101,1.9398,1.8944,1.7668,1.772,1.7776,1.7776,1.6936,1.6301,1.5942,1.5856,1.6011,1.6382,1.6707,1.6628,1.6222,1.649,1.6857,1.7289,1.7772,1.8307,1.8788,1.8788,1.8932,1.9137,1.9261,1.935,1.9549,0.0,0.0,0.0,-0.8404,-0.7915,-0.7248,-0.6294,-0.3704,-0.1175,0.0,0.0,0.0,0.3015,0.3183,0.259,0.0941,0.031,0.0,0.0,0.0,0.0,0.0,0.0,0.0,0.0,0.0,0.0,0.0,0.0,0.0976,0.2891,0.4214,0.5795,0.763,1.066,1.0217,0.7372,0.0,0.0,0.0,1.452,0.0,0.0,1.5742,1.8038,0.0,0.0,0.0,1.7425,1.5704,1.1784,0.0,0.0,0.0,0.0,0.0,0.0,0.0,0.0,0.0,0.0,0.0,0.0,0.0,0.0,1.4165,0.0,0.0,0.0,0.0,0.0,0.0,0.0,0.0,0.0,0.0,0.0,0.0,0.0,0.0,0.0,0.0,0.0,1.8697,1.8912,1.9101,1.9101,1.9176,1.9362,1.9581,1.873,1.6675,1.6596,1.6596,1.6596,1.6596,1.6463,1.6194,1.6151,1.6301,1.6623,1.694,1.6905,1.6575,1.6743,1.7066,1.7515,1.7715,1.8035,1.8388,1.8502,1.8788,1.912,1.9261,1.9292,1.9455,0.0,0.0,-0.9471,-0.8863,-0.8249,-0.7633,-0.7128,-0.55,-0.3133,0.0,0.1514,0.2323,0.2857,0.3127,0.2915,0.2025,0.0916,0.0187,0.0009,0.0,0.0,0.0,0.0,0.0,0.0,0.0,0.0,0.0,0.0,0.0,0.0056,0.2985,0.4494,0.4836,0.7398,0.7012,0.4652,0.0,0.0,0.9058,1.7763,1.8243,0.0,0.0,2.0317,0.0,1.9782,2.0749,2.109,2.091,1.5452,0.0,0.0,0.0,0.0,0.0,0.2931,0.0,0.0,0.0,0.0,0.0,0.0,0.0,0.6544,1.1837,1.5743,0.0,0.0,0.0,0.0,0.0,0.0,0.0,0.0,0.0,0.0,0.0,0.0,0.0,0.0,0.0,1.8428,1.8478,1.8673,1.8988,1.8988,1.9008,1.915,1.915,1.8362,1.6649,1.6596,1.6596,1.6596,1.6675,1.6586,1.6305,1.649,1.6596,1.6623,1.694,1.7108,1.7108,1.7133,1.7281,1.7498,1.7629,1.7704,1.7833,1.8087,1.8522,1.9019,1.9166,1.9232,1.9417,0.0,-0.9668,-0.8959,-0.9071,-0.8808,-0.8446,-0.8022,-0.6359,-0.4085,-0.1106,0.0295,0.1515,0.2835,0.3408,0.3308,0.2387,0.2031,0.1327,0.008,0.0,0.0,0.0,0.0,0.0,0.0,0.0,0.0,0.0,0.0,0.0,0.0019,0.0657,0.2352,0.4863,0.4909,0.4704,0.4527,0.0,0.0,0.8668,1.2934,0.0,2.0196,2.1425,2.1479,2.0933,2.1374,2.3533,2.5717,0.0,1.8858,1.5035,0.0,0.0,0.0,0.0,0.0,0.4339,0.0,0.0,0.0,0.0,0.0,0.0,0.464,1.2366,1.9298,0.0,0.0,0.0,0.0,0.0,0.0,0.0,0.0,0.0,0.0,0.0,0.0,0.0,0.0,0.0,1.8221,1.8321,1.8517,1.862,1.8307,1.7445,1.5852,1.5738,1.6023,1.6586,1.6596,1.6596,1.6596,1.7075,1.7191,1.6914,1.6701,1.6596,1.6623,1.694,1.7108,1.7108,1.733,1.7451,1.7474,1.7009,1.7216,1.7833,1.8087,1.8256,1.8383,1.8601,1.8752,1.9111,0.0,-0.9584,-0.9054,-0.9043,-0.9017,-0.875,-0.8013,-0.6662,-0.478,-0.2099,0.0317,0.211,0.2909,0.3245,0.314,0.246,0.2616,0.2237,0.1024,0.0353,0.0,0.0,0.0,0.0,0.0,0.0,0.0,0.0,0.0,0.0,0.0,0.0,0.0882,0.2496,0.3262,0.3698,0.0,0.0,1.0197,1.3018,1.4533,0.0,2.424,2.424,2.3425,2.2474,2.4137,2.6208,2.7282,2.1662,1.9451,0.0,0.0,0.7664,0.6447,0.0,0.888,0.857,0.0,0.0,0.0,0.6358,0.0,0.0,0.0,0.0,1.4397,1.4334,0.0,0.0,0.0,0.0,0.0,0.0,0.0,0.0,0.0,0.0,0.0,0.0,0.0,0.0,2.0196,1.8907,1.8202,1.8202,1.8003,1.7431,1.6399,1.537,1.5239,1.6163,1.6191,1.6409,1.6863,1.7141,1.7232,1.7108,1.6769,1.6753,1.705,1.7216,1.7306,1.7388,1.8805,1.8512,1.7025,1.6727,1.6933,1.7465,1.7599,1.789,1.8215,1.8423,1.8563,1.8785,0.0,-0.9437,-0.9163,-0.8959,-0.8865,-0.8502,-0.7604,-0.6806,-0.5058,-0.16,0.1091,0.2761,0.2957,0.3076,0.3063,0.288,0.297,0.2722,0.2025,0.0884,0.0251,0.0287,0.0141,0.0041,0.0,0.0,0.0,0.0,0.0,0.0,0.0,0.0,0.0,0.0155,0.3818,0.0,0.0,0.0,0.0,1.5987,0.0,2.1233,2.6842,2.6939,2.5635,2.4164,2.7359,2.8802,2.8306,2.2539,0.0,2.0459,1.4658,1.23,0.0,0.0,0.0,0.0,0.0,0.0,0.0,0.0,0.0,0.5418,0.0,0.0,0.0,0.7549,0.0,0.0,0.0,0.0,0.0,0.0,0.0,0.0,0.0,0.0,0.0,0.0,0.0,0.0,2.2184,1.9568,1.7842,1.7625,1.7801,1.7638,1.7022,1.5552,1.5011,1.5683,1.5712,1.6151,1.7083,1.7108,1.7108,1.7108,1.6873,1.7025,1.7515,1.7515,1.7515,1.764,2.0196,1.9849,1.7463,1.6844,1.6795,1.7108,1.7108,1.7498,1.8087,1.826,1.8385,1.8563,-0.9152,-0.9057,-0.8681,-0.8953,-0.8112,-0.7323,-0.7025,-0.6994,-0.4498,0.2454,0.2523,0.2183,0.2838,0.0,0.0,0.0,0.0,0.0,0.2262,0.0,0.1143,0.1323,0.0647,0.0183,0.0005,0.0,0.0,0.0,0.0,0.0,0.0,0.0,0.0,0.0382,0.9265,0.0,0.0,0.0,0.9401,0.0,1.5491,2.1431,0.0,2.7824,2.784,2.7915,3.043,3.1307,3.1004,0.0,2.7759,2.6081,0.0,2.3601,2.2352,0.0,0.0,0.0,0.0,0.0,0.0,0.0,0.8254,0.0,0.0,0.0,0.4509,0.4779,0.0,0.0,0.0,0.0,0.0,0.0,0.0,0.0,0.0,0.0,0.0,0.0,0.0,0.0,0.0,1.9568,1.7543,1.6735,1.7406,1.6676,1.3887,1.414,1.4669,1.5343,1.5373,1.5926,1.7083,1.7108,1.7108,1.7108,1.7306,1.7427,1.7515,1.7515,1.7515,1.764,2.0196,2.11,2.0537,1.7745,1.6795,1.7108,1.7108,1.7306,1.7569,1.7616,1.7988,1.8563,-0.8057,-0.8099,0.0,-0.8502,-0.8238,-0.7557,-0.6382,-0.5397,-0.3126,0.1522,0.2722,0.3962,0.0,0.0,0.0,0.0,0.0,0.4828,0.0,0.0,0.1518,0.1165,0.1613,0.1368,0.0312,0.01,0.0,0.0,0.0,0.0,0.0,0.0,0.0,0.0248,0.5965,0.0,1.0062,0.0,0.0,0.0,0.0,0.0,0.0,2.4374,2.4764,2.9089,3.2292,3.3399,3.2635,0.0,2.7296,0.0,0.0,0.0,0.0,0.0,0.0,0.0,0.0,0.0,0.0,0.0,0.0,0.0,0.4392,0.0,0.4035,0.0,0.0,0.0,0.0,0.0,0.0,0.0,0.0,0.0,0.0,0.0,0.0,0.0,0.0,0.0,0.0,0.0,0.0,0.0,1.5998,1.6517,1.3358,1.3894,1.4429,1.4714,1.5086,1.4966,1.4253,1.4253,1.5294,1.733,1.7467,1.7515,1.7515,1.7515,1.7515,1.764,2.0196,2.1309,2.1067,1.7888,1.6795,1.7032,1.6344,1.6436,1.7,1.7207,1.7629,1.8163,-0.6389,0.0,0.0,0.0,-0.7924,-0.7073,-0.4447,-0.3112,-0.1022,0.2801,0.0,0.0,0.7284,0.9627,0.0,0.0,0.0,0.8268,0.0,0.0,0.2842,0.1264,0.2289,0.0,0.0,0.0497,0.0092,0.0,0.0,0.0,0.0019,0.0954,0.1387,0.1543,0.5989,1.1007,1.6344,0.0,0.0,1.2963,2.3172,3.0126,3.3496,2.5213,2.5595,3.0895,3.3612,3.4602,3.3789,2.8526,2.8421,0.0,1.6028,0.0,0.0,0.0,0.0,0.0,2.3876,0.0,0.0,0.0,0.0,0.0,0.0,0.0,0.0,0.0,0.0,0.0,0.0,0.0,0.0,0.0,0.0,0.0,0.0,0.0,0.0,0.0,0.0,0.0,0.0,0.0,0.0,0.0,0.0,1.5838,1.332,1.3695,1.3993,1.3993,1.4014,1.338,1.2021,1.2195,1.3574,1.6125,1.7047,1.7403,1.7265,1.7427,1.7515,1.764,2.0196,2.1309,2.1067,1.7888,1.6717,1.6759,1.5697,1.5755,1.6436,1.6821,1.7273,1.7789,-0.4115,-0.6361,0.0,0.0,0.0,-0.5065,-0.0576,-0.0286,0.1941,0.0,0.0,0.0,0.0,0.0,0.0,0.0,0.0,1.2362,0.8207,0.0,0.5788,0.0,0.0,0.2715,0.0,0.0,0.0327,0.0,0.0,0.0,0.0078,0.3388,0.4875,0.5109,1.3712,1.8546,2.0444,2.3871,2.3311,1.9514,1.2519,1.9822,3.4793,0.0,3.3981,3.443,3.4564,0.0,0.0,3.4339,3.4143,0.0,0.0,0.0,0.0,0.0,0.0,0.0,0.0,0.0,0.0,2.2737,0.0,0.0,0.0,0.0,0.4906,0.0,0.0,0.0,0.0,0.0,0.0,0.7695,0.0,0.0,0.0,0.0,0.0,0.0,0.0,0.0,0.0,0.0,1.578,0.0,1.2864,1.404,1.3232,1.3232,1.3232,1.3232,1.1676,1.1075,1.1526,1.2174,1.2562,1.2693,1.5938,1.7191,1.6649,1.724,1.7515,1.764,2.0196,2.1309,2.1067,1.7888,1.6436,1.6166,1.5536,1.5522,1.5885,1.6409,1.7,1.7545,0.0,0.0,0.0,0.0,0.0,-0.4639,-0.2072,-0.0405,0.0,0.0,0.0,0.0,0.0,0.0,1.8577,0.0,0.0,1.6073,1.2006,0.9484,0.0,0.0,0.0,0.2655,0.0,0.0,0.0,0.0,0.0,0.0,0.0019,0.1188,0.4139,0.8808,1.6302,2.1875,0.0,0.0,0.0,0.0,0.0,2.7946,3.5054,0.0,0.0,3.4602,3.4602,3.3256,0.0,3.3893,3.4539,3.3683,2.9249,2.7849,2.7382,2.5078,2.4394,0.0,0.0,0.0,2.3753,2.3495,0.0,0.0,0.0,0.0,0.0,0.0,0.0,0.0,0.0,0.0,1.1384,1.1097,0.9091,0.0,0.0,0.0,0.0,0.0,0.0,0.0,0.0,0.0,0.0,0.0,1.2346,0.0,1.3198,1.3198,1.3198,1.3198,1.1569,1.0968,1.1489,1.1848,1.22,1.2546,1.5905,1.7175,1.6623,1.7216,1.7515,1.764,2.0196,2.1309,2.1067,1.7888,1.737,1.8344,1.6593,1.597,1.6111,1.6463,1.6975,1.7545,-0.2197,0.0,0.0,0.0,0.0,0.0,0.0,0.0,0.0,0.0,0.7494,0.0,1.0152,0.0,2.0325,0.0,1.9955,1.8223,1.4373,1.1841,0.0,0.5301,0.4833,0.0,0.0,0.0,0.0,0.0,0.0,0.0,0.0,0.0,0.3019,0.0,0.0,1.9514,2.5681,0.0,2.9698,0.0,0.0,3.1723,0.0,0.0,3.3072,3.3034,0.0,3.1618,3.0213,3.2241,3.2857,3.2377,3.0143,2.9451,2.9001,2.6746,2.6096,2.6399,2.7815,2.6813,0.0,2.5225,1.8111,0.0,0.6571,0.0,0.0,0.0,0.0,0.0,0.0,0.0,0.0,1.2829,1.0,0.0,0.0,0.0,0.0,0.0,0.0,0.0,0.0,0.0,1.0605,1.1965,1.2755,0.0,0.0,1.2872,1.2935,1.2314,1.1256,1.0968,1.1489,1.1884,1.22,1.2546,1.5905,1.7175,1.6623,1.7,1.724,1.7429,1.8869,2.0188,2.1101,1.8684,1.8494,1.9456,1.712,1.6194,1.6222,1.6398,1.6753,1.7273,0.0,0.0,0.0,0.0,-0.0778,0.0,0.0,0.0,0.5815,0.0,1.3791,2.0461,2.0411,2.0399,2.0325,2.0125,2.0233,0.0,1.5586,1.4534,0.0,0.0,0.9793,0.9887,0.9699,0.0,0.0,0.0,0.0,0.0,0.0,0.0,0.0,0.0,0.7004,0.0,2.0483,2.3961,2.7517,3.0796,3.0728,3.0586,3.0398,3.0398,3.0305,3.0157,2.9972,2.9888,2.9888,2.9872,2.9645,2.9344,2.9085,2.8994,2.8994,2.897,2.897,2.8834,2.8318,2.8154,2.8053,2.773,2.577,0.0,0.0,0.0,1.1872,0.0,0.0,0.0,0.0,0.0,0.0,1.2667,1.0031,0.0,0.0,0.0,0.0,0.0,0.0,0.0,0.0,0.0,1.0094,1.4384,1.3707,0.0,0.0,1.2221,1.2422,1.0974,1.0821,1.1015,1.1526,1.2174,1.2578,1.2792,1.5993,1.7175,1.6596,1.6596,1.6769,1.7032,1.6441,1.8132,2.1183,2.017,1.9726,1.9471,1.7212,1.6338,1.6351,1.624,1.6371,1.6769,-0.0038,0.0526,0.1579,0.0,0.2251,0.2193,0.0,0.0,0.0,0.0,1.838,2.0223,2.0315,2.0372,2.0386,2.0332,2.0392,0.0,0.0,0.0,0.0,1.3567,1.3742,1.3793,1.3791,1.0324,0.0,0.8386,0.0,0.0,0.0,0.0,0.0,0.0,0.0,0.0,1.6931,2.0382,2.5292,3.0796,3.0728,3.0586,0.0,0.0,3.0221,2.9972,2.9905,2.9888,2.9855,2.9608,2.9328,2.9085,2.9017,2.8994,2.8923,2.851,2.8424,2.8327,2.7933,2.7444,2.7068,2.6971,2.6262,2.4917,0.0,0.0,0.0,0.0,0.0,0.0,0.0,0.0,0.0,0.0,0.0,0.0,0.0,0.0,0.0,0.0,0.0,0.0,0.0,0.0,0.9814,0.6616,0.9649,0.0,0.0,0.0,1.2211,1.4056,1.2623,1.1884,1.2027,1.2195,1.3606,1.6229,1.7103,1.7175,1.6596,1.6596,1.6559,1.6425,1.6277,1.7851,2.0543,2.0254,1.9975,1.9615,1.8697,1.8361,1.8195,1.6959,1.6543,1.7014,0.1285,0.0,0.0,0.7605,0.0,0.0,0.777,0.0,0.0,1.5701,1.836,0.0,2.019,1.896,1.8731,2.0263,1.9081,0.0,2.0399,0.0,0.0,1.5249,1.5292,1.531,1.5346,1.3341,0.0,0.7608,0.0,0.0,0.0057,0.0,0.0,0.0,0.0,1.0738,0.0,2.2307,2.7265,3.0796,3.0728,0.0,0.0,3.0398,3.0194,2.9888,2.9888,2.9888,2.9839,2.9511,2.9218,2.8994,2.8994,2.8834,2.8562,2.8119,2.7882,2.7694,2.7181,2.6758,2.6486,2.6486,2.6222,2.5824,2.5454,2.1939,1.8687,0.0,2.1444,2.2161,0.0,0.0,0.0,0.0,0.0,0.0,0.0,0.0,0.0,0.0,0.0,0.0,0.0,0.0,0.0,0.0,0.0,0.0,0.0,0.0,1.2094,1.5196,1.3284,1.221,1.221,1.2293,1.4014,1.733,1.7427,1.7175,1.6596,1.6355,1.6234,1.6256,1.709,1.8561,2.027,1.9904,1.9545,1.9176,1.9101,1.9101,1.9001,1.8032,1.7792,1.8284,0.0,0.0,0.0,0.0,0.0,0.0,0.0,1.2345,0.0,1.1945,0.0,1.8775,1.9964,1.7178,1.6412,1.9458,0.0,1.726,2.0296,2.0497,1.9185,1.6201,1.607,1.6074,1.6072,1.5581,0.0,0.0,0.0,0.0,0.0134,0.0,0.0,0.0,0.0,0.0,0.0,2.6384,3.0447,3.0796,3.0728,3.0586,3.0398,3.0398,3.0194,2.9888,2.9888,2.9888,2.9839,2.9511,2.9218,2.8994,2.8994,2.8637,2.8154,2.7864,2.7526,2.7089,2.645,2.6203,2.6132,2.6132,2.5877,2.541,2.463,2.5045,2.5502,2.5084,2.3039,2.0564,0.0,0.0,0.0,0.0,0.0,0.0,0.0,0.0,0.0,0.0,0.0,0.0,0.0,0.0,0.0,0.0,0.0,0.0,0.0,0.0,1.2006,1.4616,1.341,1.2565,1.221,1.2359,1.4014,1.7108,1.7306,1.71,1.657,1.6039,1.6109,1.6665,1.8376,1.9508,2.0096,1.9398,1.8851,1.8478,1.8798,1.895,1.8993,1.944,1.9824,2.019,0.0,0.0,0.0,0.0,0.0,1.2985,1.3174,1.8227,1.9555,1.2694,1.2572,1.4899,1.9591,1.7178,1.5445,1.606,1.8202,0.0,0.0,0.0,0.0,1.9715,1.9644,1.9606,1.9605,1.6629,1.3055,0.0,0.0,0.0,0.0095,0.4034,0.0,0.0,0.0,0.0,2.4027,2.5836,0.0,3.0796,3.0728,3.0586,3.0398,3.0398,3.0194,2.9888,2.9888,2.9888,2.9839,2.9511,2.9218,2.8994,2.8994,2.8637,2.8182,2.8126,2.7491,2.6775,2.664,2.617,2.5691,2.5691,2.5654,2.5578,2.541,2.5486,2.5502,2.5084,2.3039,2.1132,2.0661,0.0,0.0,0.0,0.0,0.0,0.0,0.0,0.0,0.0,0.0,0.0,0.0,0.0,0.0,0.0,0.0,0.0,0.0,0.0,1.1414,0.0,1.4102,0.0,0.0,0.0,1.3883,1.7108,1.6873,1.6701,1.657,1.6039,1.6827,1.8592,1.8935,1.9176,1.9288,1.9176,1.8683,1.8003,1.8069,1.8109,1.8437,2.1226,2.2265,2.2175,0.0,0.0,0.0,0.0,0.0,0.0,0.0,1.9706,0.0,1.6327,1.5854,1.7103,1.9802,1.8691,1.7812,1.7999,1.9533,2.0511,2.0554,2.0542,2.0547,2.0544,2.0521,0.0,1.7746,1.4227,1.1558,0.9801,0.0,0.3225,0.0075,0.34,0.0,0.0,0.0,1.2355,0.0,0.0,0.0,3.076,3.0698,3.0586,3.0398,3.0398,3.0194,2.9888,2.9888,2.9888,2.9839,2.9511,2.9304,2.9175,2.904,2.8637,2.8154,2.7979,2.7509,2.6957,2.6775,2.6154,2.5616,2.5616,2.5616,2.5616,2.5616,2.5616,2.5502,2.5084,2.4374,2.3091,2.0609,1.3435,0.0,0.0,0.0,0.0,0.0,0.0,0.0,0.0,0.0,0.0,0.0,0.0,0.0,0.0,0.0,0.0,0.0,0.0,1.0944,0.0,0.0,0.0,1.4283,0.0,1.5005,1.6425,1.6398,1.6316,1.6163,1.5913,1.6887,1.8774,1.8567,1.8489,1.845,1.8201,1.8016,1.7882,1.7882,1.7882,1.829,2.1641,2.2888,2.2614,0.0,2.1266,0.0,0.0,1.9907,0.0,1.6613,2.0875,2.3379,2.0569,2.0079,2.0314,2.1111,2.0617,2.0301,2.0588,2.0604,2.0605,2.0598,2.0596,2.0566,2.05,2.05,1.8815,1.5223,1.2492,1.0364,0.0,0.0,0.0,0.1108,0.3727,0.495,0.0,0.0,0.0,0.0,0.0,3.0763,3.069,3.069,3.0586,3.0398,3.0398,3.0194,2.9888,2.9888,2.9888,2.9839,2.9511,2.9407,2.9365,2.9085,2.8637,2.8126,2.7789,2.7539,2.7296,2.694,2.633,2.5807,2.5807,2.5897,2.5954,2.5954,2.5897,2.5912,2.6126,2.6043,2.4761,2.091,1.5369,0.0,0.0,0.0,0.0,0.0,0.0,0.0,0.0,0.0,0.0,0.0,0.0,0.0,0.0,0.0,0.0,0.7605,0.9317,1.0597,0.0,0.0,1.3289,1.5782,0.0,1.5913,1.5683,1.5841,1.6171,1.6638,1.6455,1.7132,1.8478,1.8083,1.7842,1.7706,1.7365,1.7406,1.7747,1.7882,1.7882,1.829,2.1641,2.2752,2.2374,0.0,0.0,0.0,0.0,0.0,0.0,2.3819,2.4609,2.4766,2.3842,2.1604,2.1311,2.4476,2.225,2.0564,2.0593,2.0604,2.0605,2.0605,2.0601,2.0566,2.05,2.05,1.8864,1.535,1.4964,1.1756,0.0,0.0,0.0,0.0,0.4874,0.5082,0.0,0.0,0.0,0.0,2.7764,3.0763,3.069,3.069,3.0586,3.0398,3.0398,3.0194,2.9888,2.9888,2.9888,2.9839,2.9511,2.9407,2.9365,2.9085,2.8637,2.8126,2.7789,2.7672,2.76,2.7327,2.6925,2.659,2.659,2.6859,2.7154,2.7154,2.6859,2.7242,2.9525,2.7381,2.4847,2.3963,2.3222,1.9756,0.0,0.0,0.0,0.0,0.0,0.0,0.0,0.0,0.0,0.0,0.0,0.0,0.0,0.0,0.0,0.7605,0.9317,1.0324,1.0399,1.2763,1.4196,1.4479,1.5086,1.5373,1.5343,1.5041,1.6488,1.9316,1.8567,1.8331,1.8478,1.8083,1.7666,1.724,1.724,1.724,1.7323,1.7747,1.7882,1.829,2.1641,2.2324,2.1575,0.0,0.0,0.0,0.0,0.0,0.0,0.0,2.8204,2.8173,2.7951,2.5168,2.3775,2.5252,2.4365,2.3657,2.3657,2.367,2.3652,2.3652,2.1697,2.0521,2.0506,2.0547,1.8925,1.5446,1.5356,1.3029,0.0,0.0,0.0,0.0,0.0,0.7303,0.0,0.0,2.3492,2.6953,2.9658,3.0763,3.0683,3.0577,3.0469,3.0398,3.0398,3.0194,2.9888,2.9888,2.9888,2.9839,2.9511,2.9407,2.9386,2.9262,2.8743,2.8182,2.8025,2.7864,2.7642,2.7376,2.7186,2.7072,2.7072,2.7186,2.7829,2.9896,3.0229,3.0193,3.0425,2.7559,2.4926,2.4766,2.6072,2.5743,2.133,0.0,0.0,0.0,0.0,0.0,0.0,0.0,0.0,0.0,0.0,0.0,0.0,0.0,0.0,0.0,0.8867,0.0,0.9579,0.0,1.2363,1.4287,1.4111,1.4241,1.4714,1.4777,1.5971,1.8212,1.7882,1.7868,1.8123,1.7963,1.8428,1.9323,1.9323,1.9323,1.9179,1.7962,1.7666,1.8249,2.1,2.1746,2.1423,3.6041,0.0,3.1427,0.0,2.8241,2.6764,3.0174,3.049,3.0349,3.0398,2.8335,2.6891,2.6992,2.7128,2.6782,2.5792,2.5702,2.5703,2.5698,2.2435,2.0483,2.0448,2.0503,0.0,1.5426,1.535,1.37,1.0265,0.7783,0.0,0.0,0.0,0.0,0.0,2.4589,2.857,3.0877,3.0827,3.0763,3.0676,3.0479,3.0398,3.0398,3.0398,3.0194,2.9888,2.9888,2.9888,2.9839,2.9511,2.9407,2.9532,3.0323,3.0188,2.9518,2.8504,2.8025,2.7777,2.7513,2.7376,2.7345,2.7635,2.839,2.9748,3.2146,3.2558,3.2054,3.0757,2.8429,2.6551,2.6281,2.7794,2.8898,2.8339,0.0,0.0,0.0,0.0,0.0,0.0,0.0,1.1389,0.8645,0.0,0.0,0.0,0.0,0.0,0.0,0.0,0.0,0.0,0.0,0.0,1.3947,1.3459,1.3459,1.4007,1.5026,1.6103,1.7199,1.7199,1.7461,1.7882,1.7882,1.8976,2.0699,2.0699,2.0699,2.0542,1.9194,1.8785,1.913,2.0799,2.1423,2.1375,3.7718,3.6293,3.5081,3.5212,3.3214,3.167,3.1855,3.104,3.0398,3.0398,3.0471,3.054,3.054,3.0667,2.9383,2.5996,2.5703,2.5698,2.5707,2.2449,2.0443,0.0,0.0,1.8776,1.5278,1.526,1.3624,1.0199,0.0,0.0,1.0295,0.0,2.2261,2.5723,2.9198,3.0771,3.0801,3.0801,3.0763,3.0676,3.0479,3.0398,3.0398,3.0398,3.0194,2.9888,2.9888,2.9888,2.9839,2.9511,2.9407,2.9857,3.2511,3.3339,3.2665,2.9203,2.82,2.8126,2.7806,2.7496,2.7513,2.8362,3.0957,3.3357,3.3364,3.287,3.2054,3.0757,3.0452,3.0166,2.9212,2.9059,2.8487,2.6533,0.0,0.0,0.0,0.0,0.0,0.0,1.4524,1.2349,1.0456,0.0,0.0,0.0,0.0,0.0,0.0,0.0,0.0,0.9023,0.912,0.0,1.3185,1.3198,1.3198,1.3257,1.5918,1.7173,1.7199,1.7199,1.7461,1.7882,1.7882,1.8976,2.0699,2.0699,2.0699,2.0799,2.1766,2.1799,2.1382,2.141,2.1423,2.1326,3.8802,3.7773,3.6632,3.5384,3.4146,3.3142,3.2609,3.1962,3.1737,3.2242,3.1244,3.0499,3.0588,3.0637,2.9218,0.0,2.554,2.5624,0.0,2.2236,2.0208,2.0162,1.9969,1.8302,1.4993,1.495,1.4395,1.3279,0.0,0.0,0.0,2.1949,2.5909,2.9218,3.0306,3.076,3.0726,3.0788,3.0763,3.0676,3.0479,3.0398,3.0398,3.0398,3.0194,2.9888,2.9888,2.9888,3.0179,3.2048,3.2655,3.2818,3.3684,3.3698,3.3164,3.2065,3.1583,3.0951,2.8873,2.9858,3.1524,3.1815,3.2651,3.3393,3.3393,3.287,3.2054,3.0757,3.0526,2.9791,2.7539,2.7118,2.7562,2.889,2.7252,0.0,0.0,0.0,0.0,0.0,1.3401,1.2463,0.0,1.0808,0.0,0.0,0.0,0.0,0.0,0.0,0.0,0.0,1.15,0.0,1.4458,1.4481,1.4481,1.4535,1.5672,1.6262,1.6262,1.6565,1.6989,1.7406,1.7406,1.8461,2.0067,2.0067,2.0523,2.118,2.118,2.1082,2.0947,2.0947,2.1629,2.2526,3.972,3.8953,3.8019,3.6852,3.6039,3.5402,3.4891,3.4033,3.3616,3.4071,3.3151,3.2,3.0733,2.9457,0.0,2.5335,2.5224,2.4808,2.3616,2.1196,1.9821,1.9904,1.9712,1.8055,1.4761,1.4756,0.0,1.4813,1.6265,1.8877,2.2586,2.6034,2.8785,3.0846,3.0789,3.0739,3.0703,3.0721,3.073,3.0717,3.05,3.0398,3.0398,3.0398,3.0194,2.9888,2.9888,2.9888,3.0349,3.3331,3.434,3.434,3.4221,3.3972,3.3643,3.3452,3.3316,3.2834,3.0921,3.1119,3.219,3.3405,3.3549,3.3393,3.3393,3.2997,3.2197,3.0781,3.0526,2.9963,2.8158,2.7827,2.8423,3.0228,2.8092,2.5295,2.2676,0.0,0.0,0.0,0.0,0.0,0.0,1.1371,1.0664,0.0,0.0,0.0,0.0,0.0,0.9909,1.1452,1.3053,1.4275,1.5096,1.5108,1.5108,1.5108,1.557,1.5792,1.5792,1.6088,1.7062,1.8493,1.8493,1.9021,1.985,2.0258,2.066,2.1082,2.0799,2.0699,2.0753,2.1353,2.2229,2.3078,4.043,3.9736,3.9164,0.0,3.8527,3.8054,3.8166,3.6792,3.5718,3.5708,3.5826,3.4542,3.0993,2.7755,2.5611,2.5037,0.0,0.0,2.0594,1.9711,1.9353,1.9512,1.9512,1.7923,1.4526,1.4645,1.4944,1.5364,1.8862,2.2346,2.5785,2.9276,3.0898,3.0898,3.0763,3.0703,3.0697,3.0754,3.0814,3.087,3.054,3.0398,3.0398,3.0398,3.036,3.0281,3.0281,3.0265,3.0705,3.3633,3.4773,3.4918,3.4652,3.4407,3.4099,3.3605,3.3633,3.3753,3.3509,3.1616,3.0466,3.3478,3.3815,3.3422,3.3393,3.3183,3.2504,3.0965,3.0551,3.0526,3.0526,3.0568,3.0593,3.0593,2.8168,2.538,2.2688,0.0,0.0,0.0,0.0,0.0,1.4091,1.1932,1.1434,0.0,0.0,0.0,0.0,0.0,1.1376,1.1757,1.3919,1.5108,1.5108,1.5062,1.5062,1.5062,1.5468,1.5748,1.5792,1.5792,1.7554,2.0649,2.0649,2.0334,1.9901,2.0921,2.1175,2.0884,2.0897,2.0897,2.1043,2.2546,2.3078,2.3078,0.0,0.0,3.8739,3.8742,3.8369,3.8089,3.8117,3.6793,3.5772,3.5782,3.584,3.4542,3.0993,2.9882,2.8202,2.5259,2.2304,2.1469,2.3542,2.0923,1.9082,1.8563,1.8524,1.7135,1.4115,1.4096,1.5727,1.9054,1.9979,2.2247,2.5785,2.9276,3.0873,3.0813,3.0784,3.0759,3.0782,3.1992,3.2259,3.1777,3.0794,3.0398,3.0398,3.0398,3.1889,3.3941,3.3941,3.3857,3.3828,3.4585,3.6427,3.8413,3.8346,3.6416,3.4173,3.4049,3.3895,3.3807,3.3726,3.3393,3.3297,3.4267,3.4099,3.3643,3.3452,3.3334,3.3055,3.2266,3.1261,3.0526,3.0526,3.1038,3.1483,3.1483,2.9162,2.6251,2.3062,1.9247,0.0,0.0,1.6785,1.6925,1.6925,1.4531,1.2961,0.0,0.0,0.0,1.3283,1.3833,1.4136,1.4223,1.4811,1.5108,1.5108,1.4743,1.4558,1.4558,1.4697,1.5108,1.5792,1.5792,1.7355,2.0016,2.0016,1.9914,1.985,2.0586,2.1523,2.2591,2.3119,2.3005,2.2597,2.2937,2.3078,2.3017,4.0605,3.9848,3.9412,3.9489,3.9375,3.932,3.9364,3.8693,3.8182,3.8213,3.6859,3.4542,3.0993,3.0598,2.9098,2.5335,2.3126,2.2802,2.4771,2.2865,2.0643,1.8305,1.8211,1.7498,1.6027,1.6175,1.7594,2.0312,2.1937,2.449,2.7893,2.9916,3.0827,3.0799,3.0799,3.0759,3.0782,3.215,3.2687,3.2549,3.1831,3.2025,3.2724,3.2724,3.3819,3.5324,3.5226,3.6134,3.7376,3.7376,3.8515,3.9927,3.9927,3.7448,3.4524,3.4524,3.4344,3.4173,3.4173,3.4269,3.4713,3.6117,3.6251,3.5575,3.3807,3.3393,3.3274,3.2834,3.1998,3.1207,3.0626,3.1196,3.137,3.0126,2.7601,2.4944,2.262,1.9007,1.6889,1.7653,1.7831,1.7882,1.7882,1.5121,1.3047,1.2484,1.2401,0.0,1.4676,1.4971,1.5108,1.5108,1.5108,1.5017,1.4789,1.4512,1.4373,1.443,1.5845,1.6634,1.6842,1.6842,1.7642,1.9028,1.9291,1.9552,1.9811,1.9875,2.1184,2.3138,2.321,2.303,2.2665,2.2334,2.2408,2.2665,4.063,4.0328,4.0348,4.052,4.0675,4.08,4.0941,4.0999,4.0864,4.039,3.774,3.4542,3.0993,3.0598,2.9119,2.5393,2.5144,2.5132,2.501,2.4195,2.2118,1.8568,1.8277,1.8319,1.8524,1.9452,2.0299,2.1054,2.4041,2.6938,2.9685,3.0416,3.0748,3.0798,3.1318,3.1236,3.0768,3.1665,3.2454,3.3111,3.3249,3.418,3.5507,3.552,3.5534,3.552,3.5335,3.7472,4.0382,4.0382,4.0328,4.031,4.031,3.8194,3.5704,3.5666,3.5528,3.5265,3.4755,3.4602,3.5254,3.8029,3.8707,3.7754,3.4225,3.3393,3.3304,3.2979,3.2649,3.2113,3.0992,3.1411,3.1029,2.8119,2.52,2.2867,2.1582,0.0,1.7517,1.895,1.8707,1.8411,1.8411,1.5248,1.2901,1.2245,1.2671,1.3413,1.447,1.5163,1.5567,1.5567,1.538,1.5096,1.4725,1.4618,1.4569,1.458,1.7404,1.8452,1.7975,1.7975,1.7975,1.803,1.8625,1.9186,1.9668,1.9431,2.0811,2.3017,2.2432,2.2197,2.2135,2.1423,2.1549,2.2109,4.1034,4.0482,4.031,4.0348,4.0729,4.1055,4.1144,4.1167,4.0103,3.7094,3.624,3.4542,3.0993,3.0598,2.9206,2.5723,2.548,2.5367,2.5018,2.1917,1.9887,1.9408,1.8622,1.838,1.8751,2.2088,2.4058,2.4514,2.5172,2.5786,2.6417,2.9168,3.052,3.0759,3.3645,3.3372,3.071,3.0877,3.1773,3.3207,3.4558,3.5257,3.552,3.5635,3.5681,3.5651,3.5639,3.781,4.0725,4.0725,4.0531,4.031,4.031,3.991,3.9433,3.9176,3.9091,3.8423,3.5418,3.4602,3.5254,3.8029,3.8707,3.7754,3.4225,3.3393,3.3304,3.2979,3.2855,3.2677,3.2196,3.2456,3.1565,2.7955,2.4626,2.179,1.9793,0.0,1.8797,1.9058,2.0158,2.088,2.088,1.7524,1.4557,1.2723,1.3549,1.4373,1.4949,1.6688,1.7615,1.7615,1.671,1.6171,1.6061,1.5527,1.5236,1.5236,1.6826,1.749,1.7445,1.7445,1.7445,1.7434,1.7975,1.8572,1.9226,2.0393,2.1726,2.3017,2.2432,2.2197,2.2135,2.1423,2.1285,2.1475,4.1432,4.0849,4.1315,4.3208,4.2182,4.1119,4.1191,4.1191,4.0601,3.8926,3.7077,3.4578,3.1084,3.0645,2.9977,2.8446,2.6651,2.5531,2.5331,2.1817,1.9695,1.9597,1.92,1.9115,1.9438,2.1273,2.3266,2.5406,2.5351,2.6314,2.8231,2.9712,3.0433,3.0565,3.2222,3.3131,3.3448,3.3448,3.3809,3.4468,3.5193,3.5493,3.5713,3.7687,3.845,3.845,3.845,3.9456,4.079,4.079,4.0712,4.0562,4.0562,3.9269,3.8041,3.9716,3.8726,3.6691,3.5058,3.6007,3.774,3.8902,3.9166,3.8775,3.7126,3.5219,3.3788,3.3616,3.3494,3.322,3.2755,3.1269,2.8985,2.5588,2.2255,2.0084,2.0008,1.9493,1.9624,2.1003,2.1751,2.1996,2.1471,1.7987,1.5384,1.4454,1.5637,1.6777,1.7605,1.7938,1.8084,1.8084,1.6627,1.5836,1.5836,1.5526,1.541,1.541,1.6694,1.7278,1.7278,1.7278,1.7278,1.7334,1.8193,1.8721,1.9102,2.0563,2.1537,2.2087,2.2185,2.2197,2.2267,2.2666,2.2514,2.2221,4.1571,4.1097,4.1945,4.462,4.2882,4.1111,4.1168,4.119,4.0895,4.0028,3.757,3.4615,3.117,3.0714,3.0664,3.0739,2.7605,2.563,2.5624,2.297,2.1254,2.0941,2.0907,2.1004,2.1195,2.1262,2.2698,2.5511,2.615,2.7811,3.0398,3.0398,3.0421,3.0455,3.054,3.2095,3.4639,3.546,3.5708,3.5579,3.5579,3.6048,3.7038,3.9747,4.079,4.079,4.079,4.079,4.079,4.079,4.079,4.079,4.079,3.8903,3.718,3.9738,3.7753,3.49,3.5631,3.7813,3.9867,3.9703,3.9626,3.9602,3.9602,3.6801,3.442,3.5182,3.4534,3.3433,3.2223,3.0276,2.7572,2.3553,0.0,2.0224,2.0735,2.0346,2.0821,2.314,2.2865,2.2231,2.1471,1.855,1.6995,1.7698,1.8474,1.9024,1.9408,1.856,1.8246,1.8555,1.72,1.6296,1.5826,1.5816,1.5816,1.5874,1.6807,1.7278,1.7345,1.808,1.8337,1.8291,1.9121,1.9511,1.9574,2.0699,2.1221,2.1221,2.1737,2.2171,2.246,2.333,2.3224,2.2628,4.1143,4.1107,4.1175,4.1448,4.1272,4.1104,4.1114,4.1155,4.0039,3.6796,3.6149,3.4665,3.1177,3.0796,3.0804,3.0878,2.7694,2.5694,2.5699,2.5433,2.5181,2.4899,2.4812,2.4805,2.4817,2.4877,2.51,2.5511,2.8718,3.0335,3.0398,3.0398,3.0466,3.0588,3.0598,3.0742,3.1197,3.4426,3.5791,3.5773,3.5773,3.7637,4.043,4.0694,4.079,4.079,4.079,4.079,4.079,4.079,4.079,4.079,4.079,4.0486,4.0181,4.0431,3.7961,3.5793,3.8719,3.97,3.9889,3.9889,3.9727,3.9602,3.9602,3.6801,3.5052,3.8116,3.6103,3.2863,2.9844,3.1052,3.0282,2.3471,0.0,0.0,2.1259,2.1849,2.3165,2.4669,2.2883,2.1471,2.1423,2.0254,2.0638,2.3275,2.2084,2.0355,1.8348,1.8139,1.8656,1.9942,1.9803,1.8946,1.7177,1.7155,1.7155,1.7155,1.7278,1.7278,1.7389,2.0462,2.1513,2.094,2.1003,2.1065,2.1077,2.1164,2.1221,2.1221,2.1221,2.197,2.2878,2.2199,2.1959,2.1883,4.1158,4.1132,4.1108,4.1108,4.1109,4.11,4.1091,3.9297,3.7422,3.6041,3.4062,3.2272,3.0936,3.0793,3.0801,3.083,2.9597,2.8811,2.8867,2.8867,2.7828,2.5517,2.544,2.5456,2.5456,2.5511,2.6565,2.8664,3.0032,3.0604,3.0398,3.0398,3.0466,3.0598,3.0598,3.0598,3.0839,3.4329,3.5799,3.5799,3.5799,3.6569,3.7928,4.0014,4.079,4.079,4.079,4.0876,4.0982,4.0982,3.9519,3.8064,4.0188,4.0815,4.0312,3.8064,3.7865,3.8629,3.9925,4.0269,4.0252,4.0157,4.0096,4.0034,4.0034,3.8839,3.7491,3.666,3.5198,3.3001,2.9627,2.9221,2.8407,2.5228,0.0,2.5432,2.3286,2.4902,2.6258,2.6105,2.4624,2.3635,2.3635,2.129,2.1008,2.3884,2.3289,2.2322,2.1262,1.9209,1.8328,1.8857,1.9643,1.9726,1.9069,1.9058,1.88,1.8416,1.8416,1.8614,1.908,2.0322,2.0786,2.0529,2.0529,2.0529,2.0529,2.0529,2.0529,2.0593,2.1031,2.1924,2.2927,2.2101,2.2522,2.3339,4.1116,4.107,4.1047,4.1047,4.1013,4.0649,3.9568,3.7347,3.5788,3.5799,3.3796,3.1952,3.0867,3.1701,3.2324,3.2276,3.1312,3.071,3.0767,3.0781,2.9238,2.5723,2.6671,2.7262,2.7262,2.7297,2.8418,3.0664,3.069,3.0637,3.05,3.0511,3.1148,3.2225,3.113,3.1233,3.2368,3.4786,3.5799,3.5799,3.5799,3.5799,3.6179,3.9578,4.0886,4.0886,4.0886,4.0974,4.1085,4.1045,3.9424,3.7819,4.0169,4.0169,3.8801,3.6319,3.7137,3.9119,4.0304,4.0607,4.0558,4.0346,4.031,4.031,4.031,4.0077,3.9267,3.6936,3.534,3.3486,3.0732,2.9579,2.8499,2.6826,2.6239,2.6059,2.6227,2.7607,2.8284,2.7386,2.6404,2.5448,2.4429,2.2041,2.1616,2.4218,2.3586,2.3068,2.3113,2.094,1.9186,1.8107,1.9186,2.0159,2.0967,2.0379,1.9878,1.9407,1.9407,1.9671,2.0085,2.0085,2.0335,2.0786,2.0786,2.0786,2.0786,2.0786,2.0786,2.0843,2.1804,2.2684,2.3298,2.2327,2.2683,2.3505,4.0941,4.0907,4.0907,4.0907,4.0834,3.963,3.6226,3.5598,3.556,3.5765,3.5791,3.4484,3.1013,3.3673,3.5659,3.5507,3.2571,3.0729,3.069,3.0753,2.9288,2.5886,2.9041,3.0898,3.0898,3.0827,3.0806,3.0801,3.0739,3.0697,3.0697,3.0798,3.2655,3.5752,3.2343,3.2635,3.5676,3.5756,3.5799,3.5799,3.5799,3.5799,3.6176,3.9721,4.1091,4.111,4.111,4.111,4.1078,4.0963,4.0907,4.0907,4.0907,3.8557,3.5799,3.5799,3.5766,3.651,3.9947,4.0846,4.0725,4.0382,4.031,4.031,4.031,4.0077,3.9889,3.9889,3.7071,3.425,3.3129,3.2898,3.1661,2.7959,2.6364,2.6759,3.003,2.9694,2.8951,2.8444,2.7925,2.6396,2.3254,2.2477,2.2964,2.4829,2.3139,2.2324,2.3075,2.3078,2.1599,1.823,1.8751,2.035,2.2957,2.109,2.0085,2.0085,2.0085,2.0085,2.0085,2.0096,2.0862,2.2197,2.2197,2.2197,2.2197,2.2197,2.2197,2.2363,2.3688,2.42,2.4043,2.2852,2.2176,2.1807,4.0906,4.0742,4.0593,4.0492,4.0447,3.9381,3.6203,3.5598,3.5515,3.5572,3.547,3.4985,3.3949,3.4943,3.5659,3.5507,3.4629,3.3089,3.077,3.0743,3.0349,2.9327,3.0328,3.0898,3.0898,3.084,3.08,3.0797,3.0784,3.0785,3.0884,3.3312,3.4976,3.585,3.4837,3.3587,3.2415,3.4797,3.5799,3.5799,3.5799,3.5799,3.5915,3.6977,3.8928,4.111,4.111,4.111,4.1078,4.0963,4.0907,4.0907,4.0907,3.8557,3.5799,3.5799,3.7491,3.9568,4.0626,4.0888,4.0826,4.0693,4.0651,4.0592,4.0346,4.0077,3.9889,3.9889,3.7071,3.4431,3.391,3.294,3.1993,3.1355,2.9841,2.9175,3.0327,3.0258,3.0044,2.9897,2.8559,2.721,2.6273,2.3774,2.2815,2.4275,2.3785,2.3328,2.3113,2.2726,2.2007,2.1021,2.0711,2.0927,2.1721,2.0621,2.0085,2.0085,2.0085,2.0085,2.0194,2.2103,2.2445,2.1486,2.1486,2.1486,2.1486,2.1486,2.1996,2.2846,2.3804,2.3824,2.3298,2.2628,2.2176,2.1807,4.0742,4.0579,3.9938,3.8422,3.8156,3.7525,3.5622,3.5273,3.5193,3.5141,3.5037,3.5019,3.5174,3.5393,3.5495,3.5507,3.4345,3.2752,3.0733,3.1934,3.2169,3.0857,3.1464,3.1538,3.0833,3.2165,3.2187,3.0801,3.2186,3.2871,3.2969,3.5039,3.5972,3.5942,3.5909,3.4769,3.2994,3.5026,3.5885,3.5885,3.5885,3.5885,3.5885,3.5885,3.8057,4.1106,4.1106,4.1106,4.1081,4.1007,4.0949,4.0907,4.0907,3.9489,3.7819,3.7819,3.9276,4.0906,4.0953,4.0991,4.0971,4.0927,4.0873,4.0752,4.0546,4.0307,4.0139,4.0139,3.8239,3.6227,3.508,3.4053,3.3332,3.3232,3.2081,3.1265,3.1428,3.1061,3.0733,3.0526,2.9451,2.8448,2.766,2.5624,2.4453,2.4784,2.439,2.3688,2.2787,2.2432,2.2197,2.2197,2.1549,2.1221,2.1221,2.1564,2.1163,2.0085,2.0085,2.0676,2.1799,2.3424,2.3523,2.243,2.3018,2.315,2.2741,2.2139,2.2377,2.3075,2.3519,2.3224,2.2478,2.2252,2.2025,2.1807,4.0519,4.0379,3.9166,3.5534,3.4851,3.4792,3.4809,3.4788,3.4747,3.4623,3.4602,3.4751,3.5107,3.5157,3.5242,3.5432,3.2813,3.1127,3.1071,3.3828,3.4196,3.1362,3.2558,3.2629,3.1195,3.433,3.4423,3.124,3.4449,3.6003,3.5995,3.5996,3.5996,3.5996,3.5935,3.5938,3.5991,3.5991,3.6186,3.6462,3.6462,3.6462,3.6462,3.6462,3.8394,4.1108,4.1108,4.1108,4.1108,4.1108,4.1006,4.0907,4.0907,4.0907,4.0907,4.0907,4.0897,4.0929,4.107,4.1096,4.111,4.111,4.0956,4.0827,4.0803,4.0646,4.0489,4.0489,4.006,3.893,3.6555,3.5913,3.5348,3.4138,3.3388,3.2948,3.2884,3.1966,3.1112,3.0551,3.0526,2.9777,2.7894,2.766,2.7152,2.6002,2.4892,2.3688,2.2247,2.2197,2.2197,2.2197,2.1549,2.1314,2.155,2.341,2.2979,2.0336,2.0402,2.1799,2.42,2.4261,2.4261,2.4406,2.5746,2.5955,2.5099,2.3655,2.3075,2.3075,2.3075,2.2724,2.2199,2.2039,2.1956,2.1807,4.0504,4.0379,3.9166,3.5534,3.4416,3.4232,3.4792,3.473,3.4645,3.4583,3.4602,3.4626,3.473,3.487,3.4982,3.5037,3.4812,3.4669,3.4592,3.4021,3.3964,3.4604,3.3786,3.3738,3.4672,3.5441,3.5475,3.4717,3.5572,3.5965,3.5923,3.5971,3.5996,3.5996,3.5935,3.5938,3.5991,3.5991,3.7555,3.9995,3.9995,3.9995,3.9995,3.9995,4.0444,4.1108,4.1108,4.1108,4.1108,4.1108,4.1006,4.0907,4.0907,4.0907,4.0907,4.0907,4.0967,4.1066,4.1085,4.1096,4.111,4.111,4.1064,4.0991,4.0839,4.0646,4.0489,4.0489,4.0341,3.9719,3.8096,3.7186,3.6534,3.6059,3.4614,3.3327,3.2834,3.2387,3.1746,3.0634,3.0526,3.0027,2.8873,2.8057,2.7152,2.6002,2.5674,2.4523,2.2309,2.2197,2.2197,2.2197,2.1549,2.2243,2.4408,2.4873,2.4163,2.2379,2.3037,2.3621,2.4189,2.4826,2.5028,2.5099,2.5382,2.5099,2.4406,2.4116,2.397,2.397,2.397,2.4392,2.4941,2.4205,2.3062,2.1731,4.0489,4.0444,3.9789,3.7813,3.5727,3.4394,3.4628,3.5284,3.5484,3.4695,3.4602,3.4602,3.4602,3.612,3.6611,3.531,3.547,3.5411,3.4832,3.4469,3.4348,3.4447,3.4457,3.4667,3.5124,3.5579,3.5801,3.5799,3.5879,3.5908,3.5894,3.5968,3.5996,3.5996,3.5964,3.5971,3.6108,3.7731,3.9468,4.1108,4.1108,4.1108,4.1091,4.1091,4.1108,4.1108,4.1108,4.1108,4.1108,4.1108,4.1042,4.1007,4.1007,4.1007,4.1007,4.1007,4.1057,4.1104,4.1105,4.1095,4.111,4.111,4.111,4.1071,4.0965,4.0815,4.0655,4.0534,4.0463,4.017,3.9394,3.8372,3.7464,3.6889,3.6062,3.4887,3.3167,3.2641,3.2126,3.1334,3.0821,3.0044,2.8905,2.8284,2.7408,2.5988,2.5619,2.5249,2.4721,2.472,2.4243,2.3128,2.2469,2.3107,2.5288,2.5664,2.5453,2.4659,2.4671,2.4754,2.4754,2.5099,2.5312,2.5312,2.5312,2.5099,2.4683,2.4334,2.42,2.42,2.42,2.4902,2.5841,2.5349,2.426,2.3111,4.0476,4.0476,4.0427,4.031,3.7776,3.5473,3.4614,3.5614,3.6189,3.5404,3.5338,3.5383,3.5446,3.8018,3.8677,3.6063,3.5619,3.5166,3.437,3.5258,3.5183,3.3785,3.524,3.5697,3.4836,3.5728,3.6075,3.5799,3.5799,3.5838,3.5894,3.596,3.6305,3.6872,3.6875,3.6874,3.7061,3.9893,4.1103,4.1103,4.1103,4.1103,4.1107,4.1105,4.1091,4.1101,4.1094,4.1097,4.1103,4.1103,4.1103,4.1103,4.1103,4.1103,4.1221,4.1806,4.1995,4.1862,4.1265,4.111,4.111,4.111,4.111,4.111,4.111,4.0996,4.0839,4.0602,4.0492,4.0396,4.0323,3.9429,3.8445,3.7582,3.7564,3.6795,3.4256,3.3037,3.2336,3.2161,3.11,2.9957,2.8763,2.8493,2.7825,2.6418,2.6106,2.6576,2.7933,2.7789,2.6854,2.4945,2.4313,2.4633,2.5836,2.6302,2.6533,2.6452,2.5943,2.5594,2.5523,2.5382,2.5312,2.5312,2.5312,2.5312,2.5241,2.4467,2.4469,2.4927,2.4927,2.5351,2.5895,2.5895,2.5391,2.4882,4.0345,4.0328,4.031,4.031,3.9697,3.8222,3.5285,3.4489,3.5165,3.7798,3.834,3.8611,3.8877,3.9686,3.9395,3.7319,3.6151,3.5792,3.6435,3.6579,3.6511,3.6227,3.7212,3.7365,3.6491,3.7398,3.7201,3.5799,3.5799,3.5838,3.5908,3.5904,3.7527,4.0413,4.0462,4.0467,4.0435,4.0906,4.1101,4.1101,4.1101,4.1101,4.1099,4.1091,4.1094,4.1105,4.1105,4.1092,4.1101,4.1101,4.1101,4.1101,4.1101,4.1101,4.1687,4.4711,4.5605,4.4946,4.1928,4.111,4.111,4.111,4.111,4.111,4.111,4.0996,4.0898,4.0849,4.0655,4.0476,4.0396,4.0195,3.9887,3.9425,3.9021,3.8309,3.6948,3.4293,3.2422,3.2214,3.0861,2.9902,2.9726,2.8905,2.8299,2.8088,2.9189,2.9952,3.0176,2.9071,2.8309,2.7985,2.7907,2.7927,2.817,2.7053,2.6533,2.6533,2.6985,2.6918,2.6314,2.5594,2.5312,2.5312,2.5312,2.5312,2.5241,2.4467,2.5674,2.792,2.792,2.7129,2.5895,2.5895,2.5812,2.5728,3.7844,3.7356,3.7909,3.9948,4.0077,3.929,3.7526,3.698,3.7276,3.8736,3.9036,3.9229,3.9552,4.0013,3.989,3.889,3.829,3.7773,3.7313,3.7057,3.7021,3.7306,3.8035,3.8118,3.743,3.7553,3.7286,3.6574,3.6057,3.5815,3.5833,3.5807,3.7626,4.0937,4.1075,4.1129,4.1091,4.1091,4.1091,4.1091,4.1019,4.1028,4.1108,4.1108,4.1108,4.1094,4.1091,4.1107,4.1108,4.1108,4.1108,4.1108,4.1108,4.2435,4.4309,4.5851,4.6306,4.5968,4.4411,4.2582,4.111,4.111,4.111,4.111,4.111,4.0996,4.0859,4.0706,4.0574,4.0476,4.0363,4.031,4.0215,3.9956,3.9514,3.8683,3.7356,3.5882,3.4227,3.2301,3.2178,3.2365,3.2639,3.115,2.9559,2.8084,2.8809,2.9566,3.0011,2.9477,2.9162,2.9162,2.9162,2.9162,2.9162,2.856,2.8039,2.7656,2.7536,2.7323,2.7066,2.6701,2.6552,2.6559,2.7456,2.7779,2.7779,2.748,2.8053,2.9155,2.8669,2.8018,2.729,2.6809,2.6655,2.6573]}]]